[[{"header":{"parameterUnit":"m.s-1","parameterCategory":1,"la1":30.6,"la2":28.766,"lo1":-90.7593,"lo2":-88.6598,"dx":0.0162,"dy":0.0183,"nx":116,"ny":114,"refTime":"2023-01-09T06:00:00:Z","depth":0,"parameterNumber":2,"parameterNumberName":"U-component_of_WINDS"},"data":[0.0,0.0,0.0,0.0,0.0,0.0,0.0,0.0,0.0,0.0,0.0,0.0,0.0,0.0,0.0,0.0,0.0,0.0,0.0,0.0,0.0,0.0,0.0,0.0,0.0,0.0,0.0,0.0,0.0,0.0,0.0,0.0,0.0,0.0,0.0,0.0,0.0,0.0,0.0,0.0,0.0,0.0,0.0,0.0,0.0,0.0,0.0,0.0,0.0,0.0,0.0,0.0,0.0,0.0,0.0,0.0,0.0,0.0,0.0,0.0,0.0,0.0,0.0,0.0,0.0,0.0,0.0,0.0,0.0,0.0,0.0,0.0,0.0,0.0,0.0,0.0,0.0,0.0,0.0,0.0,0.0,0.0,0.0,0.0,0.0,0.0,0.0,0.0,0.0,0.0,0.0,0.0,0.0,0.0,0.0,0.0,0.0,0.0,0.0,0.0,0.0,0.0,0.0,0.0,0.0,0.0,0.0,0.0,0.0,0.0,0.0,0.0,0.0,0.0,0.0,0.0,0.0,0.0,0.0,0.0,0.0,0.0,0.0,0.0,0.0,0.0,0.0,0.0,0.0,0.0,0.0,0.0,0.0,0.0,0.0,0.0,0.0,0.0,0.0,0.0,0.0,0.0,0.0,0.0,0.0,0.0,0.0,0.0,0.0,0.0,0.0,0.0,0.0,0.0,0.0,0.0,0.0,0.0,0.0,0.0,0.0,0.0,0.0,0.0,0.0,0.0,0.0,0.0,0.0,0.0,0.0,0.0,0.0,0.0,0.0,0.0,0.0,0.0,0.0,0.0,0.0,0.0,0.0,0.0,0.0,0.0,0.0,0.0,0.0,0.0,0.0,0.0,0.0,0.0,0.0,0.0,0.0,0.0,0.0,0.0,0.0,0.0,0.0,0.0,0.0,0.0,0.0,0.0,0.0,0.0,0.0,0.0,0.0,0.0,0.0,0.0,0.0,0.0,0.0,0.0,0.0,0.0,0.0,0.0,0.0,0.0,0.0,0.0,0.0,0.0,0.0,0.0,0.0,0.0,0.0,0.0,0.0,0.0,0.0,0.0,0.0,0.0,0.0,0.0,0.0,0.0,0.0,0.0,0.0,0.0,0.0,0.0,0.0,0.0,0.0,0.0,0.0,0.0,0.0,0.0,0.0,0.0,0.0,0.0,0.0,0.0,0.0,0.0,0.0,0.0,0.0,0.0,0.0,0.0,0.0,0.0,0.0,0.0,0.0,0.0,0.0,0.0,0.0,0.0,0.0,0.0,0.0,0.0,0.0,0.0,0.0,0.0,0.0,0.0,0.0,0.0,0.0,0.0,0.0,0.0,0.0,0.0,0.0,0.0,0.0,0.0,0.0,0.0,0.0,0.0,0.0,0.0,0.0,0.0,0.0,0.0,0.0,0.0,0.0,0.0,0.0,0.0,0.0,0.0,0.0,0.0,0.0,0.0,0.0,0.0,0.0,0.0,0.0,0.0,0.0,0.0,0.0,0.0,0.0,0.0,0.0,0.0,0.0,0.0,0.0,0.0,0.0,0.0,0.0,0.0,0.0,0.0,0.0,0.0,0.0,0.0,0.0,0.0,0.0,0.0,0.0,0.0,0.0,0.0,0.0,0.0,0.0,0.0,0.0,0.0,0.0,0.0,0.0,0.0,0.0,0.0,0.0,0.0,0.0,0.0,0.0,0.0,0.0,0.0,0.0,0.0,0.0,0.0,0.0,0.0,0.0,0.0,0.0,0.0,0.0,0.0,0.0,0.0,0.0,0.0,0.0,0.0,0.0,0.0,0.0,0.0,0.0,0.0,0.0,0.0,0.0,0.0,0.0,0.0,0.0,0.0,0.0,0.0,0.0,0.0,0.0,0.0,0.0,0.0,0.0,0.0,0.0,0.0,0.0,0.0,0.0,0.0,0.0,0.0,0.0,0.0,0.0,0.0,0.0,0.0,0.0,0.0,0.0,0.0,0.0,0.0,0.0,0.0,0.0,0.0,0.0,0.0,0.0,0.0,0.0,0.0,0.0,0.0,0.0,0.0,0.0,0.0,0.0,0.0,0.0,0.0,0.0,0.0,0.0,0.0,0.0,0.0,0.0,0.0,0.0,0.0,0.0,0.0,0.0,0.0,0.0,0.0,0.0,0.0,0.0,0.0,0.0,0.0,0.0,0.0,0.0,0.0,0.0,0.0,0.0,0.0,0.0,0.0,0.0,0.0,0.0,0.0,0.0,0.0,0.0,0.0,0.0,0.0,0.0,0.0,0.0,0.0,0.0,0.0,0.0,0.0,0.0,0.0,0.0,0.0,0.0,0.0,0.0,0.0,0.0,0.0,0.0,0.0,0.0,0.0,0.0,0.0,0.0,0.0,0.0,0.0,0.0,0.0,0.0,0.0,0.0,0.0,0.0,0.0,0.0,0.0,0.0,0.0,0.0,0.0,0.0,0.0,0.0,0.0,0.0,0.0,0.0,0.0,0.0,0.0,0.0,0.0,0.0,0.0,0.0,0.0,0.0,0.0,0.0,0.0,0.0,0.0,0.0,0.0,0.0,0.0,0.0,0.0,0.0,0.0,0.0,0.0,0.0,0.0,0.0,0.0,0.0,0.0,0.0,0.0,0.0,0.0,0.0,0.0,0.0,0.0,0.0,0.0,0.0,0.0,0.0,0.0,0.0,0.0,0.0,0.0,0.0,0.0,0.0,0.0,0.0,0.0,0.0,0.0,0.0,0.0,0.0,0.0,0.0,0.0,0.0,0.0,0.0,0.0,0.0,0.0,0.0,0.0,0.0,0.0,0.0,0.0,0.0,0.0,0.0,0.0,0.0,0.0,0.0,0.0,0.0,0.0,0.0,0.0,0.0,0.0,0.0,0.0,0.0,0.0,0.0,0.0,0.0,0.0,0.0,0.0,0.0,0.0,0.0,0.0,0.0,0.0,0.0,0.0,0.0,0.0,0.0,0.0,0.0,0.0,0.0,0.0,0.0,0.0,0.0,0.0,0.0,0.0,0.0,0.0,0.0,0.0,0.0,0.0,0.0,0.0,0.0,0.0,0.0,0.0,0.0,0.0,0.0,0.0,0.0,0.0,0.0,0.0,0.0,0.0,0.0,0.0,0.0,0.0,0.0,0.0,0.0,0.0,0.0,0.0,0.0,0.0,0.0,0.0,0.0,0.0,0.0,0.0,0.0,0.0,0.0,0.0,0.0,0.0,0.0,0.0,0.0,0.0,0.0,0.0,0.0,0.0,0.0,0.0,0.0,0.0,0.0,0.0,0.0,0.0,0.0,0.0,0.0,0.0,0.0,0.0,0.0,0.0,0.0,0.0,0.0,0.0,0.0,0.0,0.0,0.0,0.0,0.0,0.0,0.0,0.0,0.0,0.0,0.0,0.0,0.0,0.0,0.0,0.0,0.0,0.0,0.0,0.0,0.0,0.0,0.0,0.0,0.0,0.0,0.0,0.0,0.0,0.0,0.0,0.0,0.0,0.0,0.0,0.0,0.0,0.0,0.0,0.0,0.0,0.0,0.0,0.0,0.0,0.0,0.0,0.0,0.0,0.0,0.0,0.0,0.0,0.0,0.0,0.0,0.0,0.0,0.0,0.0,0.0,0.0,0.0,0.0,0.0,0.0,0.0,0.0,0.0,0.0,0.0,0.0,0.0,0.0,0.0,0.0,0.0,0.0,0.0,0.0,0.0,0.0,0.0,0.0,0.0,0.0,0.0,0.0,0.0,0.0,0.0,0.0,0.0,0.0,0.0,0.0,0.0,0.0,0.0,0.0,0.0,0.0,0.0,0.0,0.0,0.0,0.0,0.0,0.0,0.0,0.0,0.0,0.0,0.0,0.0,0.0,0.0,0.0,0.0,0.0,0.0,0.0,0.0,0.0,0.0,0.0,0.0,0.0,0.0,0.0,0.0,0.0,0.0,0.0,0.0,0.0,0.0,0.0,0.0,0.0,0.0,0.0,0.0,0.0,0.0,0.0,0.0,0.0,0.0,0.0,0.0,0.0,0.0,0.0,0.0,0.0,0.0,0.0,0.0,0.0,0.0,0.0,0.0,0.0,0.0,0.0,0.0,0.0,0.0,0.0,0.0,0.0,0.0,0.0,0.0,0.0,0.0,0.0,0.0,0.0,0.0,0.0,0.0,0.0,0.0,0.0,0.0,0.0,0.0,0.0,0.0,0.0,0.0,0.0,0.0,0.0,0.0,0.0,0.0,0.0,0.0,0.0,0.0,0.0,0.0,0.0,0.0,0.0,0.0,0.0,0.0,0.0,0.0,0.0,0.0,0.0,0.0,0.0,0.0,0.0,0.0,0.0,0.0,0.0,0.0,0.0,0.0,0.0,0.0,0.0,0.0,0.0,0.0,0.0,0.0,0.0,0.0,0.0,0.0,0.0,0.0,0.0,0.0,0.0,0.0,0.0,0.0,0.0,0.0,0.0,0.0,0.0,0.0,0.0,0.0,0.0,0.0,0.0,0.0,0.0,0.0,0.0,0.0,0.0,0.0,0.0,0.0,0.0,0.0,0.0,0.0,0.0,0.0,0.0,0.0,0.0,0.0,0.0,0.0,0.0,0.0,0.0,0.0,0.0,0.0,0.0,0.0,0.0,0.0,0.0,0.0,0.0,0.0,0.0,0.0,0.0,0.0,0.0,0.0,0.0,0.0,0.0,0.0,0.0,0.0,0.0,0.0,0.0,0.0,0.0,0.0,0.0,0.0,0.0,0.0,0.0,0.0,0.0,0.0,0.0,0.0,0.0,0.0,0.0,0.0,0.0,0.0,0.0,0.0,0.0,0.0,0.0,0.0,0.0,0.0,0.0,0.0,0.0,0.0,0.0,0.0,0.0,0.0,0.0,0.0,0.0,0.0,0.0,0.0,0.0,0.0,0.0,0.0,0.0,0.0,0.0,0.0,0.0,0.0,0.0,0.0,0.0,0.0,0.0,0.0,0.0,0.0,0.0,0.0,0.0,0.0,0.0,0.0,0.0,0.0,0.0,0.0,0.0,0.0,0.0,0.0,0.0,0.0,0.0,0.0,0.0,0.0,0.0,0.0,0.0,0.0,0.0,0.0,0.0,0.0,0.0,0.0,0.0,0.0,0.0,0.0,0.0,0.0,0.0,0.0,0.0,0.0,0.0,0.0,0.0,0.0,0.0,0.0,0.0,0.0,0.0,0.0,0.0,0.0,0.0,0.0,0.0,0.0,0.0,0.0,0.0,0.0,0.0,0.0,0.0,0.0,0.0,0.0,0.0,0.0,0.0,0.0,0.0,0.0,0.0,0.0,0.0,0.0,0.0,0.0,0.0,0.0,0.0,0.0,0.0,0.0,0.0,0.0,0.0,0.0,0.0,0.0,0.0,0.0,0.0,0.0,0.0,0.0,0.0,0.0,0.0,0.0,0.0,0.0,0.0,0.0,0.0,0.0,0.0,0.0,0.0,0.0,0.0,0.0,0.0,0.0,0.0,0.0,0.0,0.0,0.0,0.0,0.0,0.0,0.0,0.0,0.0,0.0,0.0,0.0,0.0,0.0,0.0,0.0,0.0,0.0,0.0,0.0,0.0,0.0,0.0,0.0,0.0,0.0,0.0,0.0,0.0,0.0,0.0,0.0,0.0,0.0,0.0,0.0,0.0,0.0,0.0,0.0,0.0,0.0,0.0,0.0,0.0,0.0,0.0,0.0,0.0,0.0,0.0,0.0,0.0,0.0,0.0,0.0,0.0,0.0,0.0,0.0,0.0,0.0,0.0,0.0,0.0,0.0,0.0,0.0,0.0,0.0,0.0,0.0,0.0,0.0,0.0,0.0,0.0,0.0,0.0,0.0,0.0,0.0,0.0,0.0,0.0,0.0,0.0,0.0,0.0,0.0,0.0,0.0,0.0,0.0,0.0,0.0,0.0,0.0,0.0,0.0,0.0,0.0,0.0,0.0,0.0,0.0,0.0,0.0,0.0,0.0,0.0,0.0,0.0,0.0,0.0,0.0,0.0,0.0,0.0,0.0,0.0,0.0,0.0,0.0,0.0,0.0,0.0,0.0,0.0,0.0,0.0,0.0,0.0,0.0,0.0,0.0,0.0,0.0,0.0,0.0,0.0,0.0,0.0,0.0,-3.1184,0.0,0.0,0.0,0.0,0.0,0.0,0.0,0.0,0.0,0.0,0.0,0.0,0.0,0.0,0.0,0.0,0.0,0.0,0.0,0.0,0.0,0.0,0.0,0.0,0.0,0.0,0.0,0.0,0.0,0.0,0.0,0.0,0.0,0.0,0.0,0.0,0.0,-1.511,-1.5523,-1.5963,-1.7074,-1.8805,-1.8455,-1.8166,-1.7934,0.0,0.0,0.0,0.0,0.0,0.0,0.0,0.0,0.0,0.0,0.0,0.0,0.0,0.0,0.0,0.0,0.0,0.0,0.0,0.0,0.0,0.0,0.0,0.0,0.0,0.0,0.0,0.0,0.0,0.0,0.0,0.0,0.0,0.0,0.0,0.0,0.0,0.0,0.0,0.0,0.0,0.0,0.0,0.0,0.0,0.0,0.0,0.0,0.0,0.0,0.0,0.0,0.0,0.0,0.0,0.0,0.0,0.0,0.0,0.0,0.0,0.0,0.0,0.0,0.0,0.0,0.0,0.0,0.0,0.0,0.0,-3.1238,0.0,0.0,0.0,0.0,0.0,0.0,0.0,0.0,0.0,0.0,0.0,0.0,0.0,0.0,0.0,0.0,0.0,0.0,0.0,0.0,0.0,0.0,0.0,-1.7677,-1.83,-1.9859,-1.9991,-1.9899,0.0,0.0,0.0,0.0,0.0,0.0,0.0,-1.4747,-1.5205,-1.6159,-1.7389,-1.8768,-2.0262,-2.0304,-1.9709,-1.8567,-1.7723,0.0,0.0,0.0,0.0,0.0,0.0,0.0,0.0,0.0,0.0,0.0,0.0,0.0,0.0,0.0,0.0,0.0,0.0,0.0,0.0,0.0,0.0,0.0,0.0,0.0,0.0,0.0,0.0,0.0,0.0,0.0,0.0,0.0,0.0,0.0,0.0,0.0,0.0,0.0,0.0,0.0,0.0,0.0,0.0,0.0,0.0,0.0,0.0,0.0,0.0,0.0,0.0,0.0,0.0,0.0,0.0,0.0,0.0,0.0,0.0,0.0,0.0,0.0,-3.3703,-3.3293,-3.3229,-3.3217,-3.3205,-3.3144,-3.2176,-3.2326,-3.3166,-3.1902,0.0,0.0,0.0,0.0,0.0,0.0,0.0,0.0,0.0,0.0,0.0,0.0,0.0,0.0,0.0,0.0,0.0,0.0,0.0,0.0,0.0,-1.7595,-1.8183,-1.9849,-1.9899,-1.9707,-1.9397,0.0,0.0,0.0,0.0,0.0,-1.4198,-1.4154,-1.485,-1.6363,-1.9315,-2.0946,-2.1318,-2.1548,-2.1553,-2.1331,-2.0353,-2.001,-2.008,0.0,0.0,0.0,0.0,0.0,0.0,0.0,0.0,0.0,0.0,0.0,0.0,0.0,0.0,0.0,0.0,0.0,0.0,0.0,0.0,0.0,0.0,0.0,0.0,0.0,0.0,0.0,0.0,0.0,0.0,0.0,0.0,0.0,0.0,0.0,0.0,0.0,0.0,0.0,0.0,0.0,-3.3886,-3.3354,0.0,0.0,0.0,0.0,0.0,0.0,0.0,0.0,0.0,0.0,0.0,0.0,0.0,-3.5999,-3.6116,-3.5887,-3.5759,-3.5759,-3.5527,-3.5412,-3.5398,-3.5266,-3.5212,-3.5165,-3.4272,0.0,-3.2816,-3.312,0.0,0.0,0.0,0.0,0.0,0.0,0.0,0.0,0.0,0.0,0.0,0.0,0.0,0.0,0.0,0.0,0.0,0.0,0.0,0.0,0.0,-1.7822,-1.8693,-2.027,-2.0634,-2.0532,-1.9906,-1.8316,0.0,0.0,0.0,-1.4123,-1.3991,-1.4816,-1.6342,-1.8588,-2.0672,-2.1923,-2.2347,-2.2662,-2.2868,-2.3002,-2.2716,-2.1996,-2.097,-2.0297,0.0,0.0,0.0,0.0,0.0,0.0,0.0,0.0,0.0,0.0,0.0,0.0,0.0,0.0,0.0,0.0,0.0,0.0,0.0,0.0,0.0,0.0,0.0,0.0,0.0,0.0,0.0,0.0,0.0,0.0,0.0,0.0,0.0,0.0,0.0,0.0,0.0,0.0,0.0,-3.4098,-3.4466,-3.408,-3.4373,-3.4795,0.0,0.0,0.0,0.0,0.0,0.0,0.0,0.0,0.0,-3.5894,-3.5886,-3.5908,-3.5937,-3.5936,-3.5957,-3.6003,-3.5935,-3.5896,-3.5846,-3.5805,-3.5736,-3.5624,-3.5255,-3.4826,-3.432,-3.353,-3.2722,-3.1946,0.0,0.0,0.0,0.0,-3.1743,-3.1965,0.0,0.0,0.0,0.0,0.0,0.0,0.0,0.0,0.0,0.0,0.0,0.0,-1.7726,-1.8541,-1.9485,-2.0791,-2.1221,-2.1043,-2.0117,-1.8431,-1.7081,-1.6201,-1.4669,-1.3798,-1.3721,-1.5505,-1.7696,-2.0263,-2.1514,-2.2374,-2.2876,-2.3197,-2.3422,-2.3518,-2.3842,-2.3314,-2.2182,-2.1926,-2.1101,-1.9915,0.0,0.0,0.0,0.0,0.0,0.0,0.0,0.0,0.0,0.0,0.0,0.0,0.0,0.0,0.0,0.0,0.0,0.0,0.0,0.0,0.0,0.0,0.0,0.0,0.0,0.0,0.0,0.0,0.0,0.0,0.0,0.0,0.0,0.0,0.0,0.0,0.0,-3.4315,-3.4732,-3.5194,-3.5047,-3.5153,0.0,0.0,0.0,0.0,0.0,0.0,-3.5806,-3.5778,-3.5773,-3.5763,-3.5766,-3.5807,-3.5848,-3.5884,-3.594,-3.5976,-3.5996,-3.5973,-3.5935,-3.5935,-3.5864,-3.5773,-3.5763,-3.5758,-3.565,-3.4197,-3.3412,-3.3077,-3.3032,-3.2812,-3.2551,-3.2728,-3.296,-3.3203,0.0,0.0,0.0,0.0,0.0,0.0,0.0,0.0,0.0,0.0,0.0,-1.7716,-1.9395,-1.9948,-2.0547,-2.1388,-2.1139,-2.0502,-1.9512,-1.8171,-1.6886,-1.579,-1.4247,-1.3377,-1.3227,-1.5726,-1.8095,-2.0205,-2.1676,-2.2425,-2.2537,-2.2798,-2.2784,-2.2495,-2.2887,-2.3541,-2.4252,-2.2917,-2.2305,-2.2038,-1.9707,0.0,0.0,0.0,0.0,0.0,0.0,0.0,0.0,0.0,0.0,0.0,0.0,0.0,0.0,0.0,0.0,0.0,0.0,0.0,0.0,0.0,0.0,0.0,0.0,0.0,0.0,0.0,0.0,0.0,0.0,0.0,0.0,0.0,0.0,0.0,0.0,0.0,0.0,-3.6787,-3.6236,0.0,0.0,0.0,0.0,-3.581,-3.5802,-3.5792,-3.5792,-3.5747,-3.5716,-3.5716,-3.5717,-3.571,-3.5717,-3.5846,-3.5908,-3.5916,-3.5964,-3.5992,-3.5993,-3.5993,-3.5993,-3.5974,-3.5916,-3.5891,-3.5868,-3.565,-3.5093,-3.4386,-3.4182,-3.3713,-3.3219,-3.3868,-3.4229,-3.4516,0.0,0.0,0.0,-1.6764,-1.6352,-1.5931,-1.5031,-1.4766,-1.4759,-1.5046,-1.6022,-1.7111,-1.8234,-1.9705,-2.0853,-2.1454,-2.1714,-2.1403,-2.0314,-1.838,-1.7043,-1.6561,-1.4681,-1.4491,-1.6301,-1.8035,-1.9656,-2.1173,-2.2255,-2.2476,-2.1859,-2.2631,-2.2459,-2.1579,-2.2295,-2.2657,-2.2712,-2.3125,-2.2704,-2.1709,-2.1004,-1.9639,0.0,0.0,0.0,0.0,0.0,0.0,0.0,0.0,0.0,0.0,0.0,0.0,0.0,0.0,0.0,0.0,0.0,0.0,0.0,0.0,0.0,0.0,0.0,0.0,0.0,0.0,0.0,0.0,0.0,0.0,0.0,0.0,0.0,0.0,0.0,0.0,0.0,-3.5871,-3.5785,0.0,-3.5543,-3.5666,-3.5718,-3.5666,-3.5676,-3.5659,-3.5611,-3.5591,-3.556,-3.5516,-3.5504,-3.5538,-3.5573,-3.5611,-3.5666,-3.571,-3.5723,-3.5791,-3.5873,-3.5873,-3.5929,-3.6007,-3.5973,-3.5956,-3.5957,-3.5915,-3.5678,-3.5334,-3.526,-3.5071,-3.4891,-3.5129,-3.5271,-3.5383,0.0,0.0,0.0,-1.617,-1.5853,-1.5526,-1.4915,-1.4658,-1.4786,-1.5519,-1.655,-1.7665,-1.8781,-2.0359,-2.1409,-2.155,-2.1864,-2.1513,-2.0229,-1.8434,-1.7106,-1.6422,-1.4994,-1.5465,-1.8134,-1.8992,-2.0131,-2.1606,-2.2033,-2.1865,-2.1212,-2.1704,-2.1383,-2.0487,-2.1244,-2.144,-2.1327,-2.241,-2.2456,-2.1839,-2.1789,-2.0778,-1.9236,0.0,0.0,0.0,0.0,0.0,0.0,0.0,0.0,0.0,0.0,0.0,0.0,0.0,0.0,0.0,0.0,0.0,0.0,0.0,0.0,0.0,0.0,0.0,0.0,0.0,0.0,0.0,0.0,0.0,0.0,0.0,0.0,0.0,0.0,0.0,-3.5028,-3.5541,-3.5479,-3.5366,-3.5254,-3.5387,-3.5463,-3.5451,-3.5451,-3.5445,-3.5476,-3.5443,-3.5402,-3.5364,-3.5369,-3.5393,-3.5425,-3.5438,-3.5454,-3.5495,-3.5544,-3.5609,-3.5702,-3.5709,-3.5743,-3.5831,-3.5856,-3.5892,-3.5929,-3.5929,-3.5891,-3.5837,-3.587,-3.5868,-3.587,-3.587,-3.5872,-3.5872,0.0,0.0,-1.6168,-1.5266,-1.493,-1.4766,-1.4699,-1.453,-1.5148,-1.7284,-1.827,-1.9458,-2.1259,-2.2014,-2.2197,-2.1716,-2.1488,-2.0677,-1.911,-1.8267,-1.7067,-1.5294,-1.5183,-1.6156,-1.838,-1.845,-1.9484,-2.1524,-2.0898,-2.0612,-2.0584,-2.0053,-1.9575,-1.9221,-1.9671,-2.0058,-2.0371,-2.0765,-2.1573,-2.2547,-2.1949,-2.1604,-2.1407,0.0,0.0,0.0,0.0,0.0,0.0,0.0,0.0,0.0,0.0,0.0,0.0,0.0,0.0,0.0,0.0,0.0,0.0,0.0,0.0,0.0,0.0,0.0,0.0,0.0,0.0,0.0,0.0,0.0,0.0,0.0,0.0,0.0,-3.4603,-3.4168,-3.4315,-3.5967,-3.5473,-3.498,-3.498,-3.498,-3.5032,-3.5165,-3.5114,-3.5165,-3.5364,-3.5315,-3.5266,-3.5266,-3.5273,-3.5277,-3.5277,-3.5283,-3.5295,-3.5295,-3.5442,-3.5499,-3.548,-3.5493,-3.5484,-3.5514,-3.5573,-3.5666,-3.5801,-3.5801,-3.584,-3.5889,-3.5968,-3.5999,-3.5988,-3.5981,-3.5997,-3.6001,-1.6806,-1.6028,-1.5478,-1.5216,-1.4925,-1.4728,-1.4699,-1.4416,-1.4781,-1.644,-1.7606,-1.8802,-2.0119,-2.1278,-2.1718,-2.1118,-2.091,-2.0319,-1.9153,-1.77,-1.6488,-1.5616,-1.7263,-1.8523,-1.9162,-2.0046,-2.0801,-2.145,-2.1212,-2.0854,-2.0373,-2.0288,-1.9662,-1.8703,-1.929,-1.9387,-1.9089,-1.9214,-1.9617,-2.0266,-2.1238,-2.1464,-2.1149,0.0,0.0,0.0,0.0,0.0,0.0,0.0,0.0,0.0,0.0,0.0,0.0,0.0,0.0,0.0,0.0,0.0,0.0,0.0,0.0,0.0,0.0,0.0,0.0,0.0,0.0,0.0,0.0,0.0,0.0,0.0,0.0,-3.281,-3.3588,-3.4026,-3.44,-3.4767,-3.4703,-3.4595,-3.4492,-3.4675,-3.4793,-3.4832,-3.4832,-3.4794,-3.4755,-3.4716,-3.4676,-3.4576,-3.4755,-3.487,-3.487,-3.507,-3.5155,-3.5155,-3.5203,-3.5262,-3.5345,-3.5359,-3.538,-3.543,-3.5461,-3.5493,-3.5582,-3.5582,-3.5553,-3.5553,-3.5833,-3.5904,-3.5844,-3.5858,-3.5889,-3.5924,-1.6778,-1.5874,-1.5211,-1.5163,-1.4927,-1.4719,-1.469,-1.4404,-1.4866,-1.6835,-1.7593,-1.8532,-2.0141,-2.088,-2.1055,-2.0527,-2.0376,-1.979,-1.8462,-1.6896,-1.6333,-1.697,-1.8081,-1.8909,-1.9448,-2.0048,-2.0342,-2.0409,-2.0092,-1.9628,-1.891,-1.8955,-1.8355,-1.7394,-1.803,-1.8154,-1.7867,-1.8185,-1.8468,-1.8829,-1.9901,-2.059,-2.0983,-2.0916,-2.0818,-2.0535,-1.9874,-2.0144,-2.0872,-2.1114,0.0,0.0,0.0,0.0,0.0,0.0,0.0,0.0,0.0,0.0,0.0,0.0,0.0,0.0,0.0,0.0,0.0,0.0,0.0,0.0,0.0,0.0,0.0,0.0,-3.1253,-3.1816,-3.2127,-3.3142,-3.3828,-3.3742,-3.3906,-3.4006,-3.3887,-3.4147,-3.4371,-3.4439,-3.4439,-3.4439,-3.4423,-3.4423,-3.4379,-3.4292,-3.4401,-3.4529,-3.4653,-3.4732,-3.4849,-3.4965,-3.4908,-3.4927,-3.4999,-3.5035,-3.5064,-3.5117,-3.5113,-3.5158,-3.5243,-3.5243,-3.5238,0.0,0.0,0.0,0.0,0.0,-3.5657,-3.569,-1.6804,-1.5974,-1.5377,-1.5149,-1.4954,-1.4783,-1.4708,-1.4462,-1.5246,-1.787,-1.7924,-1.8601,-2.0844,-2.0829,-2.0496,-2.0096,-2.0061,-1.9336,-1.7617,-1.6459,-1.6701,-1.8643,-1.8207,-1.8363,-1.9396,-1.9093,-1.8987,-1.8987,-1.8382,-1.7716,-1.7044,-1.6906,-1.6478,-1.5917,-1.6441,-1.674,-1.6833,-1.745,-1.7827,-1.8043,-1.8358,-1.9337,-2.0671,-2.1144,-2.149,-2.1658,-2.1099,-2.1138,-2.1334,-2.0958,0.0,0.0,0.0,0.0,0.0,0.0,0.0,0.0,0.0,0.0,0.0,0.0,0.0,0.0,0.0,0.0,0.0,0.0,0.0,0.0,0.0,0.0,0.0,0.0,-3.0297,-3.071,-3.0362,-3.1594,-3.2572,-3.2711,-3.2991,-3.3194,-3.3284,-3.355,-3.3815,-3.4023,-3.4049,-3.4105,-3.4195,0.0,0.0,0.0,0.0,-3.4176,-3.4467,-3.4325,-3.4409,-3.4747,-3.4583,-3.4539,-3.458,-3.4583,-3.4645,-3.4666,-3.4651,-3.4735,-3.4868,-3.4868,-3.4902,-3.4983,-3.5251,-3.5354,-3.5348,-3.5348,-3.5354,-3.5353,-1.697,-1.6493,-1.6091,-1.5318,-1.5057,-1.4904,-1.4729,-1.446,-1.5268,-1.7912,-1.8142,-1.8951,-2.1391,-2.1584,-2.1276,-2.0563,-2.0429,-1.9773,-1.8224,-1.8467,-1.8503,-1.827,-1.8883,-1.9265,-1.942,-1.8869,-1.875,-1.8987,-1.81,-1.7615,-1.7459,-1.6644,-1.6302,-1.6368,-1.6102,-1.6328,-1.6856,-1.6641,-1.6934,-1.7552,-1.7552,-1.8335,-1.9557,-2.0032,-2.0405,-2.0735,-2.0893,-2.1212,-2.1611,-2.2473,-2.2539,-2.2485,-2.3531,-2.3832,0.0,0.0,0.0,0.0,0.0,0.0,0.0,0.0,0.0,0.0,0.0,0.0,0.0,0.0,0.0,0.0,0.0,0.0,0.0,-2.823,-2.902,-2.942,-2.881,-2.9204,-3.0093,-3.16,-3.1782,-3.2143,-3.3039,-3.3202,-3.335,-3.3671,-3.3698,-3.3671,-3.3587,-3.3587,-3.3484,-3.335,-3.3514,-3.3634,-3.3715,-3.3899,-3.4117,-3.4386,0.0,0.0,-3.434,-3.4141,-3.4165,-3.4381,-3.4386,-3.448,-3.467,-3.467,-3.467,-3.4694,-3.4959,-3.5081,-3.5081,-3.5081,-3.5073,-3.5074,-1.82,-1.7593,-1.7005,-1.6068,-1.5769,-1.5455,-1.4883,-1.4571,-1.5243,-1.7595,-1.7681,-1.8364,-2.0612,-2.0262,-1.9711,-1.9286,-1.9058,-1.885,-1.8655,-1.8742,-1.8746,-1.866,-1.8778,-1.8815,-1.8732,-1.8344,-1.8127,-1.8139,-1.7637,-1.7205,-1.6852,-1.6309,-1.5942,-1.5785,-1.5609,-1.5776,-1.6236,-1.6386,-1.6774,-1.7296,-1.7359,-1.7708,-1.837,-1.8965,-1.9419,-1.9778,-2.0039,-2.0436,-2.1039,-2.2053,-2.2353,-2.2517,-2.3641,-2.3932,-2.3876,0.0,0.0,0.0,0.0,0.0,0.0,0.0,0.0,0.0,0.0,0.0,0.0,0.0,0.0,-2.7148,0.0,0.0,-2.8157,-2.7975,-2.8384,-2.8524,-2.8086,-2.8118,-2.8657,-2.9851,-3.0143,-3.0658,-3.1731,-3.2033,-3.2434,-3.3093,-3.3142,-3.319,-3.3256,-3.3256,-3.3196,-3.3117,-3.319,-3.3332,-3.3514,-3.3542,-3.3707,-3.4012,-3.3831,-3.3823,-3.3947,-3.3823,-3.3823,-3.3947,-3.3947,-3.4074,-3.4245,-3.434,-3.4274,-3.4117,-3.4442,-3.4653,-3.4793,-3.4793,-3.4794,-3.4794,-1.9581,-1.8925,-1.8139,-1.7047,-1.6716,-1.6336,-1.5544,-1.5226,-1.5692,-1.7374,-1.7294,-1.7746,-1.9458,-1.8725,-1.8044,-1.7931,-1.77,-1.7935,-1.8755,-1.8706,-1.8729,-1.8992,-1.8555,-1.8193,-1.8084,-1.7755,-1.7545,-1.739,-1.7256,-1.6883,-1.6352,-1.6191,-1.5871,-1.5436,-1.5487,-1.5653,-1.5924,-1.6446,-1.698,-1.7434,-1.7449,-1.7483,-1.76,-1.818,-1.8613,-1.886,-1.9109,-1.9558,-2.0216,-2.1151,-2.1651,-2.2041,-2.3159,-2.3503,-2.3652,-2.4365,-2.4574,0.0,0.0,0.0,0.0,0.0,0.0,0.0,0.0,0.0,-2.6576,-2.6657,-2.6733,-2.6912,-2.7396,-2.7735,-2.7863,-2.772,-2.7816,-2.7809,-2.7492,-2.7508,-2.7737,-2.8157,-2.8753,-2.9547,-3.0589,-3.1046,-3.1649,-3.25,-3.2553,-3.2669,-3.283,-3.283,-3.283,-3.283,-3.2866,-3.3006,-3.3266,-3.3172,-3.3291,-3.3607,-3.3465,-3.3444,-3.3473,-3.3386,-3.3415,-3.3491,-3.353,-3.3625,-3.377,-3.391,-3.3787,-3.3524,-3.3787,-3.4062,-3.4321,-3.4454,-3.4495,-3.4495,-2.0375,-2.0281,-1.9707,-1.8047,-1.7748,-1.7641,-1.7331,-1.7221,-1.7339,-1.7892,-1.7855,-1.8026,-1.8679,-1.8577,-1.8332,-1.8029,-1.8128,-1.818,-1.8201,-1.9456,-1.9634,-1.8469,-1.8734,-1.8667,-1.8084,-1.7523,-1.7368,-1.7656,-1.7368,-1.7179,-1.7191,-1.6743,-1.6609,-1.6669,-1.635,-1.6559,-1.7151,-1.6768,-1.7279,-1.83,-1.7921,-1.7848,-1.8044,-1.8096,-1.8066,-1.8028,-1.8822,-1.9161,-1.9435,-2.0855,-2.1337,-2.1588,-2.2702,-2.3499,-2.4015,-2.4019,-2.4505,-2.5147,-2.5664,0.0,0.0,-2.6292,-2.6158,-2.5967,0.0,0.0,-2.6274,-2.622,-2.6087,-2.5998,-2.5985,-2.6315,-2.6523,-2.6257,-2.6902,-2.7206,-2.6632,-2.6863,-2.7121,-2.7148,-2.847,-2.9772,-3.0857,-3.1319,-3.1719,-3.2144,-3.2127,-3.2021,-3.1968,-3.1968,-3.1897,-3.186,-3.2197,-3.2386,-3.2437,-3.277,-3.3037,-3.3262,-3.288,-3.2848,-3.3037,-3.2654,-3.2669,-3.3086,-3.328,-3.335,-3.3379,-3.3207,-3.3112,-3.3051,-3.3112,-3.3141,-3.3259,-3.3917,-3.4124,-3.4074,-2.0504,-2.0503,-2.0275,-1.9545,-1.8995,-1.8462,-1.7851,-1.7639,-1.7596,-1.7709,-1.7619,-1.7596,-1.7702,-1.7119,-1.6431,-1.5791,-1.7019,-1.7747,-1.7534,-1.9003,-1.9542,-1.8734,-1.8488,-1.8307,-1.8073,-1.7854,-1.77,-1.7711,-1.7534,-1.749,-1.7479,-1.6383,-1.6084,-1.6459,-1.5626,-1.5633,-1.6306,-1.6654,-1.7155,-1.7724,-1.7739,-1.7874,-1.8096,-1.798,-1.8058,-1.8307,-1.9041,-1.9614,0.0,-2.1197,-2.1796,-2.22,-2.2709,-2.3302,-2.3943,-2.4492,-2.458,-2.4605,-2.4992,0.0,0.0,0.0,-2.5878,-2.6001,-2.5633,-2.5637,-2.5691,-2.5775,-2.5849,-2.5938,-2.6208,-2.6804,-2.7172,0.0,-2.7566,-2.7859,-2.7612,-2.7736,-2.7813,-2.7813,-2.8579,-2.9232,-2.9535,-2.9862,-3.0404,-3.1159,-3.1473,-3.164,-3.1733,-3.1733,-3.1733,-3.1677,-3.186,-3.1896,-3.1842,-3.2004,-3.2231,-3.2419,-3.2266,-3.2352,-3.2588,-3.2386,-3.242,-3.2621,-3.2862,-3.2939,-3.2939,-3.2996,-3.2854,-3.2681,-3.2872,-3.2809,-3.2648,-3.3248,-3.3421,-3.3439,-2.0493,-2.0492,-2.0503,-2.0503,-1.9979,-1.9345,-1.8718,-1.8277,-1.7927,-1.7655,-1.7277,-1.6918,-1.6533,-1.5668,-1.4855,-1.4293,-1.5996,-1.7068,-1.6928,-1.8525,-1.9307,-1.8918,-1.8384,-1.8042,-1.793,-1.7761,-1.7566,-1.7296,-1.7296,-1.7255,-1.7202,-1.6031,-1.5679,-1.5972,-1.5116,-1.5193,-1.5898,-1.6423,-1.698,-1.7497,-1.7743,-1.7971,-1.8272,-1.8235,-1.8516,-1.8953,-1.9237,-1.9705,-2.0376,-2.1162,-2.1859,-2.2469,-2.2675,-2.3008,-2.349,-2.4475,-2.4372,-2.4,-2.4416,0.0,0.0,-2.4819,-2.539,-2.5732,-2.5253,-2.5316,-2.5494,-2.5724,-2.581,-2.5977,-2.6385,-2.71,-2.7625,-2.7625,-2.8039,-2.8411,-2.8411,-2.8242,-2.8196,-2.8381,-2.8403,-2.8357,-2.8347,-2.8914,-2.9592,-3.0394,-3.0828,-3.1162,-3.1338,-3.1338,-3.1338,-3.1338,-3.1414,-3.1397,-3.1287,-3.1439,-3.1568,-3.1768,-3.1694,-3.1768,-3.1985,-3.2056,-3.2091,-3.2127,-3.2403,-3.247,-3.2401,-3.2482,-3.2281,-3.1968,-3.2213,-3.2127,-3.1932,-3.2195,-3.2577,-3.2947,-2.0497,-2.0492,-2.05,-2.05,-2.0488,-2.0448,-2.0426,-1.9643,-1.877,-1.7987,-1.704,-1.6055,-1.5068,-1.4592,-1.4391,-1.4568,-1.5536,-1.6262,-1.6502,-1.8347,-1.9195,-1.8738,-1.8638,-1.8239,-1.7447,-1.6867,-1.6495,-1.6362,-1.6362,-1.6232,-1.5969,-1.5909,-1.5764,-1.5527,-1.5471,-1.5968,-1.6733,-1.6235,-1.6872,-1.8244,-1.8124,-1.8326,-1.871,-1.9114,-1.9603,-1.9982,-1.9348,-1.913,-1.9307,-2.0362,-2.1186,-2.1829,-2.2514,-2.264,-2.2668,-2.3516,-2.366,-2.3616,0.0,0.0,-2.3294,-2.3838,-2.4269,-2.4629,-2.4629,-2.5359,-2.6054,-2.6082,-2.5974,-2.592,-2.5948,-2.6563,-2.7122,-2.7122,-2.781,-2.8411,-2.8411,-2.7842,-2.7673,-2.8319,-2.7636,-2.7291,0.0,-2.918,-2.9995,-3.0011,-3.0326,-3.051,-3.0551,-3.0485,-3.0443,-3.0443,-3.0699,-3.0845,-3.0828,-3.1206,-3.1397,-3.1397,-3.1223,-3.1123,-3.1162,-3.1452,-3.162,-3.1657,-3.1984,-3.193,-3.162,-3.1432,-3.1162,-3.0828,-3.0868,-3.0868,-3.0828,-3.0625,-3.1534,-3.2827,-2.136,-2.0899,-2.0675,-2.126,-2.0879,-2.0508,-2.0506,-1.9785,-1.8939,-1.8088,-1.7621,0.0,0.0,0.0,0.0,0.0,-1.5391,-1.5933,-1.585,-1.733,-1.8112,-1.7908,-1.8137,-1.813,-1.7801,-1.7437,-1.719,-1.7118,-1.671,-1.6529,-1.6604,-1.5656,-1.5489,-1.5935,-1.5277,-1.5536,-1.6532,-1.6738,-1.73,-1.8009,-1.7864,-1.8016,-1.8403,-1.9437,-1.9546,-1.933,0.0,-2.0828,-2.0798,-2.0744,-2.1156,-2.1665,-2.144,-2.1585,-2.1887,-2.2014,-2.2283,-2.2428,-2.216,0.0,-2.2884,-2.2964,-2.3974,-2.497,-2.4888,-2.5452,-2.5948,-2.5948,-2.6272,-2.6482,-2.6329,-2.707,-2.7705,-2.7584,-2.7659,-2.7734,-2.7734,-2.7534,-2.7473,-2.7703,-2.7695,0.0,0.0,0.0,0.0,-2.9393,-3.007,-3.0485,-3.0443,-3.0417,-3.0375,-3.0274,-3.0342,-3.0384,-3.0258,-3.0393,-3.0543,-3.0649,-3.0828,-3.0908,-3.0908,-3.1027,-3.1067,-3.1067,-3.1201,-3.1123,-3.0868,-3.0804,-3.0584,-3.0344,-3.0344,-3.0344,-3.0344,-3.026,-3.0542,-3.1026,0.0,-2.1815,-2.1506,-2.1766,-2.1366,0.0,0.0,0.0,0.0,0.0,0.0,0.0,0.0,0.0,0.0,0.0,0.0,-1.5762,-1.5645,-1.6694,-1.7345,-1.746,-1.777,-1.7882,-1.7682,-1.7243,-1.7103,-1.7206,-1.6491,-1.626,-1.6499,-1.5668,-1.5551,-1.6013,-1.5791,-1.6233,-1.7163,-1.7526,-1.8364,-1.9349,-1.8584,-1.8956,-2.002,-2.0385,-2.0408,0.0,-2.1383,-2.1844,-2.1874,-2.0737,-2.0744,-2.1207,-2.0735,-2.0841,-2.1012,-2.0689,-2.0675,-2.0686,-2.0184,-2.0616,-2.1211,-2.1476,-2.272,-2.3946,-2.4278,-2.4998,-2.5626,-2.5851,-2.6385,-2.6792,-2.6874,-2.7336,-2.7906,-2.8432,-2.8107,-2.7842,-2.8088,-2.7919,-2.7765,-2.7765,-2.7695,-2.7878,0.0,0.0,0.0,-2.9257,-2.9853,-3.0215,-3.0316,-3.0146,-3.006,-3.0103,-2.9913,-2.987,-2.9973,-2.9973,-3.0017,-3.0156,-3.0368,-3.0493,-3.0493,-3.0518,-3.0502,-3.0518,-3.0543,-3.0402,-3.0166,-3.0021,-2.9789,-2.9508,-2.9508,-2.9508,-2.9508,-2.9569,-2.9613,-2.9657,0.0,0.0,-2.2832,0.0,0.0,0.0,0.0,0.0,0.0,0.0,0.0,0.0,0.0,0.0,0.0,0.0,0.0,0.0,-1.5843,-1.6443,-1.6934,-1.7305,-1.753,-1.7469,-1.7088,-1.6382,-1.6213,-1.6655,-1.578,-1.5476,-1.5763,-1.5979,-1.599,-1.5876,-1.7055,-1.7964,-1.8575,-1.8686,-2.0047,-2.1976,-2.0122,-2.0898,-2.3009,-2.1713,-2.2015,-2.2978,-2.2018,-2.2054,-2.2248,-2.0408,-2.0161,-2.054,-2.0472,-2.0414,-2.0192,-1.9508,-1.893,-1.8535,-1.8385,-1.8359,-1.8576,-1.9498,-2.063,-2.1799,-2.2887,-2.4055,-2.5107,-2.5725,-2.6329,-2.6919,0.0,0.0,-2.7713,-2.9463,-2.8946,-2.8532,-2.9162,-2.8701,-2.8301,0.0,0.0,0.0,0.0,0.0,0.0,-2.9483,0.0,-2.9722,-3.0103,-2.956,-2.947,-2.9886,-2.9364,-2.9319,-2.9858,-2.9858,-2.9858,-2.9814,-2.9814,-2.9874,-2.9858,-2.9897,-2.9924,-2.9924,-2.9962,-2.9816,-2.948,-2.9057,-2.8717,-2.8415,-2.8415,-2.8415,-2.8463,-2.8574,-2.8637,-2.8764,0.0,0.0,0.0,0.0,0.0,0.0,0.0,0.0,0.0,0.0,0.0,0.0,0.0,0.0,0.0,0.0,0.0,0.0,-1.5276,-1.5901,-1.6249,-1.6135,-1.6767,-1.6991,-1.6735,-1.6338,-1.6154,-1.6184,-1.6092,-1.6158,-1.6398,-1.6822,-1.7142,-1.7376,-1.8297,-1.9058,-1.973,-2.0246,-2.0723,-2.1114,-2.0558,-2.0235,-2.0225,-2.1153,-2.0957,-2.0373,-2.1355,-2.1132,-2.0482,0.0,0.0,0.0,-2.0016,-1.9682,-1.943,-1.8244,-1.7829,-1.7688,-1.7642,-1.7955,-1.8316,-1.8542,-2.0064,-2.159,-2.1878,-2.3196,-2.4526,-2.5093,-2.5697,-2.6337,0.0,0.0,0.0,-2.8686,-2.7826,0.0,-2.7346,-2.7161,0.0,-2.7104,0.0,-2.7841,-2.8463,-2.7959,0.0,0.0,-2.8919,-2.8919,-2.8935,-2.8795,-2.8701,-2.8717,-2.8591,-2.8779,-2.9319,-2.9319,-2.9227,-2.9028,-2.9028,-2.909,-2.9305,-2.9305,-2.9182,-2.8873,-2.8904,-2.8575,-2.803,-2.7932,-2.77,-2.7479,-2.7479,-2.7479,-2.7464,-2.7479,-2.7745,-2.8073,0.0,0.0,0.0,0.0,0.0,0.0,0.0,0.0,0.0,0.0,0.0,0.0,0.0,0.0,0.0,0.0,0.0,0.0,0.0,-1.6064,-1.6052,-1.5546,-1.6305,-1.6661,-1.651,-1.6345,-1.6693,-1.7621,-1.6945,-1.7178,-1.8265,-1.8235,-1.836,-1.8604,-1.9521,-2.0101,-2.0462,-2.1093,-2.1794,0.0,0.0,-2.1461,-2.1903,-2.2037,-2.1528,-2.0926,-2.1926,-2.1814,0.0,0.0,0.0,-2.1082,-2.0061,-1.9516,-1.8979,-1.781,0.0,-1.702,-1.6737,-1.6943,-1.7328,-1.802,-1.933,-2.0644,-2.161,-2.2816,-2.3898,-2.4797,-2.5472,0.0,0.0,0.0,0.0,0.0,0.0,0.0,-2.7098,-2.699,-2.677,0.0,-2.6784,0.0,-2.7784,-2.7056,-2.6916,0.0,-2.8125,-2.8304,-2.84,-2.8207,-2.811,-2.8288,-2.8046,-2.8192,-2.867,-2.867,-2.8543,-2.8352,-2.8352,-2.8448,-2.8574,-2.8463,-2.8271,-2.8061,0.0,-2.7665,-2.7312,-2.7108,-2.6967,-2.6811,-2.6811,-2.6811,-2.6864,-2.7019,-2.7291,-2.7509,0.0,0.0,0.0,0.0,0.0,0.0,0.0,0.0,0.0,0.0,-1.7652,0.0,0.0,0.0,0.0,0.0,0.0,0.0,0.0,0.0,-1.6393,-1.5693,-1.6322,-1.6675,-1.6619,-1.6553,-1.7482,-1.9468,-1.7993,-1.8292,-2.0214,-1.9673,-1.9444,-1.9551,-2.059,-2.0991,-2.0907,-2.1507,-2.274,-2.4105,-2.2562,-2.3198,-2.4924,0.0,-2.272,-2.279,-2.2871,-2.3005,0.0,0.0,-2.2106,-2.1138,-2.0413,-1.9646,-1.8831,-1.7837,-1.7144,-1.6614,-1.6187,-1.6159,-1.6573,-1.7962,-1.8812,-1.9734,-2.1659,-2.2574,-2.3385,-2.4601,0.0,-2.6014,-2.7147,0.0,-2.6977,-2.8601,0.0,-2.6828,-2.7378,-2.7193,-2.6828,-2.619,-2.6026,-2.6133,-2.6573,-2.5823,-2.5797,-2.6779,-2.7188,-2.7565,-2.8061,-2.7665,-2.7615,-2.811,-2.77,-2.76,-2.7883,-2.7932,-2.7883,-2.775,-2.775,-2.7765,-2.7799,-2.755,-2.7414,-2.7363,-2.7122,-2.6967,-2.6916,-2.6563,-2.6404,-2.6404,-2.6404,-2.6404,-2.6457,-2.6811,-2.6901,-2.6901,0.0,0.0,0.0,0.0,0.0,0.0,0.0,0.0,0.0,0.0,-1.8727,-1.8525,0.0,0.0,0.0,0.0,0.0,0.0,0.0,0.0,0.0,-1.7536,-1.7676,-1.7733,-1.7713,-1.7716,-1.7874,-1.8216,-1.8556,-1.8918,-1.9252,-1.979,-2.004,-2.0098,-2.0938,-2.1321,-2.1339,-2.1941,-2.2275,-2.2469,-2.2517,-2.2593,-2.2586,-2.2303,0.0,0.0,-2.2319,0.0,0.0,-2.2193,-2.2338,-2.2291,-2.0579,-1.9634,-1.8916,-1.7715,-1.7293,-1.7313,-1.7612,-1.8067,-1.8559,-1.8937,-1.9758,-2.0598,-2.0959,-2.1834,0.0,0.0,0.0,-2.4869,-2.64,-2.6582,-2.6621,-2.7035,0.0,0.0,0.0,0.0,-2.5744,0.0,0.0,0.0,0.0,0.0,0.0,0.0,0.0,-2.5946,-2.7011,-2.6974,-2.6974,-2.7078,-2.7225,-2.7159,-2.6797,-2.7108,-2.7159,-2.693,-2.693,-2.7019,-2.7225,-2.7174,-2.7019,-2.6654,-2.6602,0.0,-2.6096,-2.6056,-2.5988,-2.5988,-2.5988,-2.5988,-2.6002,-2.6096,-2.6,-2.5849,0.0,0.0,0.0,0.0,0.0,0.0,0.0,-2.053,-2.1029,-2.2314,-2.1351,-2.0885,-2.177,-2.1519,-2.1438,0.0,0.0,0.0,0.0,0.0,0.0,0.0,0.0,0.0,-1.8007,-1.8002,0.0,0.0,0.0,-2.0283,-2.1125,0.0,0.0,-2.0996,-2.1268,-2.1664,-2.2151,-2.239,-2.264,-2.2882,-2.3459,-2.356,-2.3448,0.0,0.0,0.0,0.0,0.0,0.0,0.0,-2.2611,-2.2591,-2.1029,-2.0324,-1.979,-1.8559,-1.8222,-1.8313,-1.8582,-1.8824,-1.9224,-2.0213,-2.0785,-2.1299,-2.1863,0.0,0.0,0.0,0.0,-2.4535,-2.5923,0.0,0.0,0.0,0.0,0.0,0.0,0.0,0.0,0.0,0.0,0.0,0.0,0.0,0.0,0.0,0.0,-2.5189,-2.6727,-2.6779,-2.6765,-2.6645,-2.6811,-2.6707,-2.6312,-2.6472,-2.6472,-2.6258,-2.6258,-2.6351,-2.6457,-2.6457,-2.6351,-2.6204,-2.6204,-2.6096,-2.5893,-2.5893,-2.5729,-2.5453,-2.5453,-2.5203,-2.4894,-2.4894,-2.4824,-2.4797,0.0,0.0,0.0,0.0,0.0,0.0,0.0,-2.2209,-2.289,-2.4399,-2.4321,-2.3986,-2.3665,-2.3291,-2.3147,0.0,0.0,0.0,0.0,0.0,0.0,0.0,0.0,0.0,0.0,0.0,0.0,0.0,0.0,0.0,0.0,0.0,0.0,0.0,0.0,-2.2145,-2.2824,-2.2746,-2.3163,0.0,0.0,-2.4764,0.0,0.0,0.0,0.0,0.0,0.0,0.0,0.0,-2.3052,-2.295,-2.1835,-2.122,-2.0662,-1.9782,-1.948,-1.9493,-1.9781,-1.9876,-2.0247,-2.1627,-2.2019,-2.2265,-2.3084,-2.3143,0.0,0.0,-2.4154,-2.4498,-2.5669,0.0,-2.5743,0.0,0.0,0.0,0.0,0.0,0.0,0.0,0.0,0.0,0.0,0.0,0.0,0.0,0.0,0.0,-2.6433,-2.6553,-2.6539,-2.6457,-2.6404,-2.6312,-2.6111,-2.6056,-2.5948,-2.5729,-2.5729,-2.5605,-2.5481,-2.5481,-2.5481,-2.5481,-2.5481,-2.5481,-2.5481,-2.5481,-2.5203,-2.4765,-2.4765,-2.4452,-2.4021,-2.4021,-2.3962,-2.3975,0.0,0.0,0.0,0.0,0.0,0.0,0.0,-2.3645,-2.4495,-2.5449,-2.6829,-2.7121,-2.5543,-2.3965,-2.335,0.0,0.0,0.0,0.0,0.0,0.0,0.0,0.0,0.0,0.0,0.0,0.0,0.0,0.0,0.0,0.0,0.0,0.0,0.0,0.0,0.0,0.0,-2.2813,0.0,0.0,0.0,0.0,0.0,0.0,0.0,0.0,0.0,0.0,0.0,0.0,0.0,-2.4036,-2.339,-2.2175,-2.1004,-2.1221,0.0,0.0,-2.1787,-2.241,-2.2864,-2.3157,-2.3533,-2.3819,-2.3767,0.0,0.0,-2.4365,-2.4305,-2.4498,-2.5669,0.0,0.0,0.0,0.0,-2.5103,0.0,0.0,0.0,0.0,0.0,0.0,0.0,0.0,0.0,0.0,0.0,0.0,-2.5687,-2.5742,-2.592,-2.6326,-2.6218,-2.6111,-2.6111,-2.6002,-2.5619,-2.5061,-2.5061,-2.4751,-2.4195,-2.4195,-2.4195,-2.4195,-2.4195,-2.4195,0.0,-2.4195,-2.4137,-2.4092,-2.4092,-2.4021,-2.4021,-2.4021,-2.3859,-2.3577,0.0,0.0,0.0,0.0,0.0,0.0,-2.3645,-2.415,-2.508,-2.6955,-2.6877,-2.6971,-2.7842,-2.6392,-2.5286,-2.5135,0.0,0.0,0.0,0.0,0.0,0.0,0.0,0.0,0.0,0.0,0.0,-2.4666,0.0,0.0,0.0,0.0,0.0,0.0,0.0,0.0,0.0,0.0,0.0,0.0,0.0,0.0,0.0,0.0,0.0,0.0,0.0,0.0,0.0,0.0,0.0,0.0,-2.4021,-2.3501,0.0,0.0,-2.2861,-2.2833,-2.3275,-2.3513,-2.3736,-2.4199,-2.459,-2.4748,-2.4265,0.0,0.0,-2.4621,-2.4639,-2.4882,-2.5725,-2.5702,-2.5383,-2.5061,-2.4909,0.0,-2.4138,0.0,0.0,0.0,0.0,0.0,0.0,0.0,0.0,0.0,0.0,0.0,-2.4368,-2.5175,-2.5632,-2.5646,-2.5934,-2.5893,-2.5453,-2.5397,-2.5048,-2.4394,-2.4394,-2.4266,-2.4021,-2.4021,-2.4021,-2.4021,-2.3904,-2.3859,0.0,-2.3469,-2.3231,-2.3132,-2.2508,-2.2226,-2.2112,-2.2112,-2.2065,-2.2054,0.0,0.0,0.0,0.0,0.0,-2.3457,-2.4549,-2.4745,-2.5603,-2.7934,-2.7157,-2.7001,-2.8598,-2.7886,-2.6852,-2.574,-2.5888,0.0,0.0,0.0,0.0,0.0,0.0,0.0,0.0,0.0,-2.4778,-2.6004,-2.6004,0.0,0.0,0.0,0.0,0.0,0.0,0.0,0.0,0.0,0.0,0.0,0.0,0.0,0.0,0.0,0.0,0.0,0.0,0.0,0.0,0.0,0.0,0.0,0.0,-2.463,-2.463,0.0,-2.409,-2.4063,-2.4271,-2.4256,-2.4297,-2.4784,-2.5145,-2.5217,0.0,0.0,0.0,-2.4825,-2.4991,-2.5321,-2.5835,-2.5578,-2.5257,-2.5061,-2.4798,-2.4503,-2.4138,0.0,0.0,0.0,0.0,0.0,0.0,0.0,0.0,0.0,0.0,0.0,-2.3233,-2.431,-2.4881,-2.4824,-2.5245,-2.5258,-2.4694,-2.4694,-2.4394,-2.3728,-2.356,-2.3425,-2.3262,-2.3096,-2.3007,-2.3007,-2.2832,-2.2774,0.0,-2.2229,-2.1956,-2.1824,-2.1128,-2.0791,-2.0664,-2.0664,-2.0712,-2.0938,0.0,0.0,0.0,0.0,0.0,0.0,-2.5427,-2.5681,-2.6319,-2.8066,-2.8281,-2.7946,-2.7125,-2.779,-2.7595,-2.5856,-2.6425,0.0,0.0,0.0,0.0,0.0,0.0,0.0,0.0,0.0,-2.6663,-2.6691,-2.6691,-2.7108,-2.7883,-2.7883,0.0,0.0,0.0,0.0,0.0,0.0,0.0,0.0,0.0,0.0,0.0,0.0,0.0,0.0,0.0,0.0,0.0,0.0,0.0,0.0,0.0,-2.5378,-2.5486,-2.5036,-2.4614,-2.4369,-2.4784,-2.4902,-2.4902,-2.4902,-2.5107,-2.5256,0.0,0.0,0.0,-2.5106,-2.5363,-2.5658,-2.5875,-2.5397,-2.5005,-2.5005,-2.4983,-2.4766,-2.4191,-2.4596,0.0,0.0,0.0,0.0,0.0,0.0,0.0,0.0,0.0,0.0,-2.242,-2.298,-2.3551,-2.4021,-2.4021,-2.4021,-2.4021,-2.4021,-2.3728,-2.3075,-2.2594,-2.2005,-2.1392,-2.0875,-2.0622,-2.0644,-2.0483,-2.0437,0.0,-2.0263,-2.0217,-2.0217,-2.0205,-2.0205,-2.0217,-2.0217,-2.0367,-2.0586,0.0,0.0,0.0,0.0,0.0,0.0,0.0,-2.5696,-2.6106,-2.7258,-2.6882,-2.7079,-2.8551,-2.7891,-2.7351,-2.7405,-2.7136,0.0,0.0,0.0,0.0,0.0,0.0,0.0,0.0,-2.644,-2.7,-2.758,-2.8133,-2.8848,-2.966,-2.8974,-2.8364,-2.7855,0.0,0.0,0.0,0.0,0.0,0.0,0.0,0.0,0.0,0.0,0.0,0.0,0.0,0.0,0.0,0.0,0.0,0.0,0.0,0.0,0.0,-2.5513,-2.5323,-2.5201,-2.5355,-2.5394,-2.5394,-2.5394,-2.5686,-2.5807,-2.5156,0.0,0.0,-2.5195,-2.5313,-2.5569,-2.5631,-2.53,-2.4935,-2.4694,-2.4477,-2.4294,0.0,0.0,0.0,0.0,0.0,0.0,0.0,0.0,0.0,0.0,0.0,0.0,-2.1897,-2.1921,-2.2427,-2.3374,-2.3412,-2.3262,-2.2872,-2.249,-2.197,-2.1384,-2.1144,-2.0692,-2.0139,-2.0284,-1.9918,0.0,-1.9418,-1.9526,-1.9514,-1.8995,-1.8997,-1.9286,-1.8927,-1.858,-1.8313,-1.8661,-1.8844,-1.8946,0.0,0.0,0.0,0.0,0.0,0.0,0.0,-2.5418,-2.5646,-2.6832,-2.5947,-2.6181,-2.8732,-2.7752,-2.7246,-2.8122,-2.7748,0.0,0.0,0.0,0.0,0.0,0.0,0.0,-2.5804,-2.6313,-2.6977,-2.7764,-2.8662,-2.952,-3.0378,-3.0093,-2.9327,-2.8245,-2.8154,-2.7191,0.0,0.0,0.0,0.0,0.0,0.0,-2.8993,0.0,0.0,0.0,0.0,0.0,0.0,0.0,0.0,0.0,0.0,0.0,0.0,0.0,-2.5659,-2.5616,-2.5616,-2.5616,-2.5616,-2.5616,-2.5747,0.0,0.0,0.0,0.0,-2.5085,-2.5299,-2.5488,-2.5356,-2.5061,-2.4765,-2.4509,-2.4063,-2.3835,0.0,0.0,0.0,0.0,0.0,0.0,0.0,0.0,0.0,0.0,0.0,0.0,-2.1245,-2.1355,-2.1619,-2.2132,-2.2191,-2.2015,-2.1638,-2.1138,-2.0655,-2.0241,-1.971,-1.9297,-1.8946,-1.9034,-1.8672,0.0,-1.8154,-1.824,0.0,-1.7744,-1.7748,-1.8012,-1.7638,-1.7381,-1.7128,-1.745,-1.7638,-1.7898,0.0,0.0,0.0,0.0,0.0,0.0,0.0,-2.4926,-2.4973,-2.659,-2.5405,-2.5368,-2.792,-2.7413,-2.7277,-2.8212,0.0,0.0,0.0,0.0,0.0,0.0,0.0,0.0,-2.6209,-2.6378,-2.6757,-2.7395,-2.8455,-2.9388,-3.0223,-3.0968,-3.0371,-2.8713,-2.8842,-2.7963,-2.6479,0.0,0.0,0.0,0.0,-2.9935,0.0,0.0,0.0,0.0,0.0,0.0,0.0,0.0,0.0,0.0,0.0,0.0,0.0,0.0,0.0,0.0,0.0,-2.5616,-2.5616,-2.5616,-2.5464,-2.5256,-2.5045,-2.5356,0.0,-2.4794,-2.5206,-2.5563,-2.4996,-2.4667,-2.4496,-2.4399,-2.3721,0.0,0.0,-2.3379,0.0,0.0,0.0,0.0,0.0,0.0,0.0,0.0,0.0,0.0,-2.061,-2.1019,-2.1031,-2.0466,-2.0418,-2.043,-2.0502,-1.9949,-1.9593,-1.9392,-1.8394,-1.7867,-1.7753,-1.7255,-1.702,0.0,-1.679,-1.6753,0.0,-1.6616,-1.6577,-1.6577,-1.6612,-1.66,-1.6577,-1.6612,-1.6945,-1.7381,0.0,0.0,0.0,0.0,0.0,0.0,0.0,0.0,0.0,0.0,-2.465,-2.5368,-2.792,-2.7413,-2.753,0.0,0.0,0.0,0.0,0.0,0.0,0.0,0.0,0.0,-2.5309,-2.6488,-2.7191,-2.7395,-2.9017,-2.9947,-3.0185,-2.9737,-2.8927,-2.7875,-2.7908,-2.7651,-2.7239,-2.7513,0.0,0.0,-2.9364,-2.95,0.0,0.0,0.0,0.0,-2.8126,-2.8081,0.0,0.0,0.0,0.0,0.0,0.0,0.0,0.0,-2.5701,-2.568,-2.56,0.0,-2.5616,-2.5616,-2.5578,-2.5464,0.0,-2.5478,-2.5563,-2.4256,-2.4901,-2.5369,-2.4231,-2.43,-2.4262,-2.3598,-2.3358,-2.3162,-2.3135,0.0,0.0,0.0,0.0,0.0,0.0,0.0,0.0,0.0,0.0,-2.1174,-2.0033,-2.0093,-1.9732,-1.8794,-1.8641,-1.8833,-1.9372,-1.8713,-1.8195,-1.7752,-1.729,-1.6886,-1.6536,-1.6657,-1.6307,-1.558,-1.5961,-1.6097,-1.612,-1.6072,-1.6072,-1.6118,-1.6486,-1.6382,-1.6084,-1.6486,-1.6945,-1.7381,0.0,0.0,0.0,0.0,0.0,0.0,0.0,0.0,0.0,0.0,0.0,-2.5368,-2.792,-2.7784,0.0,0.0,0.0,0.0,0.0,0.0,0.0,0.0,0.0,-2.4845,-2.4681,-2.5997,-2.6865,-2.7207,-2.9152,-2.9937,-2.9603,-2.9499,-2.8574,-2.6985,-2.6597,-2.6593,-2.6948,-2.7645,-2.8215,-2.8744,-2.9739,0.0,0.0,0.0,0.0,0.0,-2.8126,-2.8154,0.0,-2.7654,-2.7286,-2.692,0.0,0.0,0.0,0.0,-2.5659,-2.5659,-2.5616,-2.5616,-2.5616,-2.5616,-2.5616,-2.5583,-2.5497,-2.574,-2.5687,-2.4655,-2.4991,-2.5053,-2.3712,-2.3923,-2.3971,0.0,-2.2998,0.0,0.0,0.0,0.0,0.0,0.0,0.0,0.0,0.0,0.0,0.0,0.0,-2.0517,-1.9371,-1.9311,-1.894,-1.8025,-1.7763,-1.7775,-1.8151,-1.7538,-1.7036,-1.6704,-1.6278,-1.5927,-1.5626,-1.5808,-1.5624,-1.5119,-1.5395,-1.5521,-1.5544,-1.5544,-1.5682,-1.5934,-1.6198,-1.6267,-1.6244,-1.652,-1.6945,-1.7381,0.0,0.0,0.0,0.0,0.0,0.0,0.0,0.0,0.0,0.0,0.0,0.0,0.0,0.0,0.0,0.0,0.0,0.0,0.0,0.0,0.0,0.0,-2.4804,-2.4636,-2.4336,-2.5379,-2.6214,-2.6819,-2.8869,-2.9516,-2.8907,-2.9455,-2.8413,-2.6078,-2.5473,-2.5655,-2.6508,-2.8048,-2.8723,-2.8904,-3.0189,0.0,0.0,0.0,0.0,0.0,0.0,0.0,0.0,-2.7444,-2.7098,-2.6855,-2.6282,0.0,0.0,0.0,0.0,0.0,-2.5616,-2.5605,-2.5615,-2.5594,-2.5578,-2.5571,-2.5733,-2.579,-2.5638,-2.4984,-2.4878,-2.456,-2.3408,-2.3563,0.0,0.0,0.0,0.0,-2.1809,-2.1481,0.0,0.0,0.0,0.0,0.0,0.0,0.0,0.0,0.0,-1.9841,-1.8727,-1.8679,-1.8277,-1.7459,-1.7149,-1.6879,-1.681,-1.6444,-1.6185,-1.5951,-1.5521,-1.521,-1.5108,-1.5108,-1.5108,-1.5108,0.0,0.0,-1.5108,-1.5108,-1.5418,-1.5911,-1.5911,-1.6244,-1.6738,-1.6738,-1.706,-1.7496,0.0,0.0,0.0,0.0,0.0,0.0,0.0,0.0,0.0,0.0,0.0,0.0,0.0,0.0,0.0,0.0,0.0,0.0,0.0,0.0,0.0,-2.4636,-2.457,-2.4524,-2.4459,-2.5134,-2.5652,-2.5997,-2.7834,-2.8771,-2.8789,-2.8194,-2.6925,-2.5221,-2.5782,-2.6489,-2.7361,-2.8313,-2.9044,-2.9621,-2.9813,0.0,0.0,0.0,0.0,0.0,0.0,0.0,0.0,-2.7068,-2.6808,-2.6641,-2.5977,0.0,0.0,0.0,0.0,0.0,-2.5616,-2.5632,-2.5677,-2.5593,-2.5448,-2.5217,-2.4748,-2.4768,-2.4552,-2.3413,-2.3442,-2.3589,-2.3286,-2.2923,-2.2554,0.0,0.0,0.0,0.0,0.0,0.0,0.0,0.0,0.0,0.0,0.0,0.0,0.0,0.0,-1.8861,-1.8156,-1.8096,-1.7443,-1.589,-1.6111,-1.5833,-1.4909,-1.574,-1.5905,-1.5428,-1.5199,-1.5108,-1.5108,-1.5108,-1.5108,-1.5108,0.0,-1.5108,-1.5108,-1.5108,-1.5418,-1.5911,-1.5911,-1.6463,-1.7266,-1.7266,-1.7588,-1.797,0.0,0.0,0.0,0.0,0.0,0.0,0.0,0.0,0.0,0.0,0.0,0.0,0.0,0.0,0.0,0.0,0.0,0.0,0.0,0.0,-2.6389,-2.5295,-2.5092,-2.4727,-2.4192,-2.5425,-2.6111,-2.6227,-2.8147,-2.9151,-2.9269,-2.8552,-2.7277,-2.5687,-2.6527,-2.7365,-2.8161,-2.854,-2.9103,-2.9738,0.0,0.0,0.0,0.0,0.0,0.0,0.0,0.0,0.0,0.0,-2.6758,-2.659,-2.603,0.0,0.0,0.0,0.0,0.0,-2.5114,-2.4995,-2.4874,-2.5113,-2.5352,-2.5497,-2.5469,-2.5453,-2.5096,-2.4089,-2.3865,-2.354,-2.2415,0.0,-2.2102,-2.1579,0.0,0.0,0.0,0.0,0.0,0.0,0.0,0.0,0.0,0.0,0.0,0.0,0.0,0.0,-1.6535,-1.6306,-1.5908,-1.5315,-1.5213,-1.5071,-1.4834,-1.5291,-1.5441,-1.521,-1.5108,-1.5108,-1.5108,-1.5108,-1.5108,-1.5108,0.0,-1.5108,-1.5131,-1.5418,-1.5843,-1.6325,-1.66,-1.7151,-1.7783,-1.7783,-1.7836,-1.7877,0.0,0.0,0.0,0.0,0.0,0.0,0.0,0.0,0.0,0.0,0.0,0.0,0.0,0.0,0.0,0.0,0.0,0.0,0.0,-2.6858,-2.6338,-2.5755,-2.5467,-2.5067,-2.4522,-2.581,-2.6606,-2.6872,-2.8608,-2.942,-2.9308,-2.9017,-2.8007,-2.6454,-2.7305,-2.8092,-2.8714,-2.8888,-2.9242,-2.9664,0.0,0.0,0.0,0.0,0.0,0.0,0.0,0.0,0.0,0.0,0.0,0.0,0.0,0.0,0.0,-2.554,-2.5224,-2.4808,-2.4672,-2.4364,-2.4157,-2.4536,-2.4912,-2.5348,-2.5916,-2.5619,-2.5099,-2.4515,-2.3904,-2.3044,0.0,-2.1406,0.0,-2.0572,0.0,0.0,0.0,0.0,0.0,0.0,0.0,0.0,0.0,0.0,0.0,0.0,0.0,0.0,-1.515,-1.48,-1.4654,-1.4752,-1.4512,-1.4512,-1.4743,-1.4971,-1.5108,-1.5108,-1.5108,-1.5108,-1.5108,-1.5108,-1.5108,-1.5108,-1.5108,-1.5177,-1.5326,-1.5728,-1.6256,-1.6841,-1.7232,-1.7691,-1.8084,-1.803,-1.7822,-1.759,0.0,0.0,0.0,0.0,0.0,0.0,0.0,0.0,0.0,0.0,0.0,0.0,0.0,0.0,0.0,0.0,0.0,0.0,0.0,-2.5249,-2.4922,-2.5252,-2.5168,-2.5497,-2.6295,-2.6267,-2.6704,-2.7614,-2.8584,-2.8713,-2.8142,-2.8847,-2.8407,-2.7056,-2.7955,-2.8472,-2.8733,-2.9427,-2.9698,-2.9664,-2.9353,0.0,0.0,0.0,0.0,0.0,0.0,0.0,0.0,0.0,0.0,0.0,0.0,0.0,-2.5578,-2.5371,-2.5036,-2.4672,-2.4471,-2.4217,-2.4022,-2.4065,-2.3881,-2.397,-2.4813,-2.3983,-2.3089,-2.3289,0.0,0.0,0.0,-2.0285,-1.9359,0.0,0.0,0.0,0.0,0.0,0.0,0.0,0.0,0.0,0.0,0.0,0.0,0.0,0.0,0.0,-1.4634,-1.462,-1.4321,-1.372,-1.4161,-1.4186,-1.3716,-1.464,-1.5108,-1.5108,-1.5108,-1.5108,-1.5108,-1.5108,-1.5108,-1.5108,-1.5108,-1.5395,-1.5854,-1.5854,-1.6489,-1.7324,-1.7358,-1.7691,-1.8084,-1.7822,-1.7534,-1.72,0.0,0.0,0.0,0.0,0.0,0.0,0.0,0.0,0.0,0.0,0.0,0.0,0.0,0.0,0.0,0.0,0.0,0.0,0.0,-2.5475,-2.5431,-2.6041,-2.58,-2.6302,-2.7652,-2.7608,-2.7759,-2.8197,-2.9752,-2.9886,-2.8769,-2.9606,-2.9165,-2.7699,-2.8556,-2.9007,-2.9083,-2.9343,-2.9355,-2.923,-2.8948,-2.8688,0.0,0.0,0.0,0.0,0.0,0.0,0.0,0.0,-2.5913,-2.6085,-2.5626,-2.5339,-2.5217,-2.5139,-2.4655,-2.3998,-2.3503,-2.3054,-2.2804,-2.2851,-2.2559,-2.2621,-2.4091,-2.3511,-2.2625,-2.2335,-2.1168,0.0,0.0,0.0,-1.7835,0.0,0.0,0.0,0.0,0.0,0.0,0.0,0.0,0.0,0.0,0.0,0.0,0.0,0.0,0.0,-1.3036,-1.3076,-1.3047,-1.3122,-1.36,-1.381,-1.3621,-1.4593,-1.4971,-1.4651,-1.4971,-1.5108,-1.5108,-1.5108,-1.5108,-1.5108,-1.5108,-1.5395,-1.59,-1.621,-1.675,-1.7404,-1.7512,-1.7587,-1.7523,-1.7423,-1.72,-1.692,0.0,0.0,0.0,0.0,0.0,0.0,0.0,0.0,0.0,0.0,0.0,0.0,0.0,0.0,0.0,0.0,0.0,0.0,-2.5634,-2.5279,-2.537,-2.6069,-2.5773,-2.6337,-2.7914,-2.8201,-2.8631,-2.9268,-3.1109,-3.1089,-2.9375,-3.0207,-2.9757,-2.8252,-2.8827,-2.9169,-2.9212,-2.9148,-2.906,-2.8948,-2.8688,-2.8456,0.0,0.0,0.0,0.0,0.0,0.0,0.0,0.0,-2.562,-2.5888,-2.5422,-2.5146,-2.4918,-2.4658,-2.4158,-2.3546,-2.2676,-2.2089,-2.1713,-2.1894,-2.1452,-2.1286,-2.2715,-2.2612,-2.2036,-2.1485,-2.0238,-1.8826,-1.7678,0.0,0.0,0.0,0.0,0.0,0.0,0.0,0.0,0.0,0.0,0.0,0.0,0.0,0.0,0.0,0.0,0.0,0.0,-1.2076,-1.2412,-1.3016,-1.3266,-1.342,-1.3621,-1.4269,-1.4455,-1.414,-1.4651,-1.4971,-1.5108,-1.5108,-1.5062,-1.4983,-1.5142,-1.5448,-1.5886,-1.6395,-1.6893,-1.7326,-1.7511,-1.7423,-1.719,-1.7078,-1.6976,-1.6818,0.0,0.0,0.0,0.0,0.0,0.0,0.0,0.0,-2.7182,-2.7977,-2.8039,0.0,0.0,0.0,0.0,0.0,0.0,0.0,-2.4615,-2.4284,-2.4365,-2.4986,-2.4813,-2.5426,-2.696,-2.7817,-2.9106,-3.0892,-3.2498,-3.2047,-2.9719,-3.0448,-3.0017,-2.87,-2.87,-2.8842,-2.9086,-2.8952,-2.8888,-2.8865,-2.8601,-2.8414,-2.8246,0.0,0.0,0.0,0.0,0.0,0.0,0.0,-2.5668,-2.5868,-2.5185,-2.5005,-2.4784,-2.3858,-2.3585,-2.3359,-2.2178,-2.1435,-2.1029,-2.1308,-2.0636,-2.0057,-2.0664,-2.1054,-2.1145,-2.0762,-1.9149,-1.739,-1.5891,0.0,0.0,0.0,0.0,0.0,0.0,0.0,0.0,0.0,0.0,0.0,0.0,0.0,0.0,0.0,0.0,0.0,0.0,-1.2076,-1.2559,-1.3573,-1.3064,-1.3064,-1.3563,-1.3621,-1.3621,-1.3621,-1.414,-1.4651,-1.5108,-1.5108,-1.4983,-1.4741,-1.5185,-1.5576,-1.5836,-1.6328,-1.6754,-1.719,-1.719,-1.719,-1.7134,-1.6864,-1.6807,-1.6761,0.0,0.0,0.0,0.0,0.0,0.0,0.0,0.0,-2.6267,-2.7083,-2.7098,0.0,0.0,0.0,0.0,0.0,0.0,0.0,-2.4753,-2.4528,-2.4635,-2.5186,-2.4964,-2.5512,-2.696,-2.8389,-2.9643,-3.0769,-3.1265,-3.0776,-2.9287,-2.9169,-2.8757,-2.8156,-2.8378,-2.8525,-2.8601,-2.8507,-2.8474,-2.8474,-2.8228,-2.8035,-2.7847,0.0,0.0,0.0,0.0,0.0,0.0,0.0,0.0,0.0,-2.4655,-2.4508,-2.4327,-2.3366,-2.2923,-2.2302,-2.0721,-2.0263,-2.0134,-1.9821,-1.9623,-1.9647,-2.0055,-1.9977,0.0,0.0,-1.7132,-1.6265,-1.504,0.0,0.0,0.0,0.0,0.0,0.0,0.0,0.0,0.0,0.0,0.0,0.0,0.0,0.0,0.0,0.0,0.0,0.0,-1.1877,-1.2224,-1.2559,-1.2725,-1.2677,-1.2412,-1.3563,-1.3695,-1.2764,-1.3997,-1.4763,-1.5119,-1.5253,-1.528,-1.5207,-1.5488,-1.5869,-1.6339,-1.6776,-1.6959,-1.692,-1.692,-1.6818,-1.6658,-1.6545,-1.6306,-1.6077,0.0,0.0,0.0,0.0,0.0,0.0,-2.753,-2.6787,-2.6276,-2.6734,-2.6718,-2.655,0.0,0.0,0.0,-2.5886,-2.5601,-2.5248,-2.4832,-2.461,-2.4744,-2.5271,-2.5078,-2.5589,-2.6986,-2.8621,-2.9543,-2.9722,-3.0084,-2.9844,-2.9048,-2.8548,-2.8063,-2.7636,-2.8119,-2.8067,-2.7673,-2.8021,-2.8013,-2.7718,-2.7826,-2.7777,-2.763,0.0,0.0,0.0,0.0,0.0,0.0,0.0,0.0,0.0,-2.4426,-2.4035,-2.362,-2.3046,-2.2441,-2.1657,-2.0245,-1.984,-1.9673,-1.9147,-1.8943,-1.8941,-1.9011,0.0,0.0,0.0,-1.6257,-1.5708,-1.4621,0.0,0.0,0.0,0.0,0.0,0.0,0.0,0.0,0.0,0.0,0.0,0.0,0.0,0.0,0.0,0.0,0.0,0.0,-1.1469,-1.1819,-1.1999,-1.2295,-1.2344,-1.2098,-1.3047,-1.3224,-1.2679,-1.375,-1.4437,-1.4774,-1.5088,-1.5217,-1.515,-1.5529,-1.5892,-1.6227,-1.669,-1.6694,-1.6363,-1.6591,-1.6545,-1.6384,-1.6384,-1.6202,-1.6029,0.0,0.0,0.0,0.0,0.0,0.0,-2.7,-2.6958,-2.6893,-2.6922,-2.6851,-2.6486,0.0,0.0,0.0,-2.5258,-2.5696,-2.5657,-2.4865,-2.4642,-2.4762,-2.5291,-2.523,-2.5749,-2.6986,-2.8495,-2.8941,-2.8182,-2.8979,-2.9216,-2.8853,-2.833,-2.7765,-2.7244,-2.7794,-2.7455,-2.6521,-2.736,-2.7293,-2.671,-2.7309,-2.7442,-2.7304,-2.7357,0.0,0.0,0.0,0.0,0.0,0.0,0.0,0.0,-2.4426,-2.3636,-2.2828,-2.2686,-2.1958,-2.1058,-2.0251,-1.9777,-1.9419,-1.8972,-1.848,-1.8081,-1.7788,-1.7957,-1.7833,-1.6626,0.0,-1.5487,0.0,0.0,0.0,0.0,0.0,0.0,0.0,0.0,0.0,0.0,0.0,0.0,0.0,0.0,0.0,0.0,0.0,0.0,0.0,-1.0846,-1.1351,-1.1715,-1.1751,-1.1968,-1.2382,-1.2326,-1.2482,-1.2969,-1.3399,-1.3803,-1.4214,-1.4745,-1.4933,-1.4899,-1.5393,-1.5644,-1.573,-1.6144,-1.6087,-1.573,-1.6202,-1.6384,-1.6384,-1.6384,-1.6384,-1.6316,0.0,0.0,0.0,0.0,0.0,0.0,-2.7814,-2.7282,-2.7052,-2.7724,-2.7225,-2.6684,-2.639,-2.5831,0.0,-2.5149,-2.5196,-2.5172,-2.4983,-2.4813,-2.4914,-2.5353,-2.6144,-2.6698,-2.6978,-2.7959,-2.836,-2.8182,-2.8388,-2.8301,-2.7988,-2.7467,-2.7236,-2.7195,-2.7023,-2.6626,-2.607,-2.5727,-2.5518,-2.5534,-2.6125,-2.6091,-2.5756,-2.6217,-2.635,0.0,0.0,0.0,0.0,0.0,0.0,0.0,-2.4343,-2.3523,-2.2431,-2.168,-2.0741,-1.9605,-1.8287,-1.835,-1.8584,-1.8124,-1.8181,-1.8218,-1.7461,-1.7309,-1.7016,-1.5762,-1.5256,0.0,0.0,0.0,0.0,0.0,0.0,0.0,0.0,0.0,0.0,0.0,0.0,0.0,0.0,0.0,0.0,0.0,0.0,0.0,-0.9681,-1.002,-1.0533,-1.0998,-1.1049,-1.1353,-1.2069,-1.2565,-1.2713,0.0,-1.3423,-1.3614,-1.3292,-1.4665,-1.5526,-1.6017,-1.5359,-1.5284,-1.574,-1.5798,-1.5798,-1.573,-1.6202,-1.6384,-1.6384,-1.6384,-1.6144,-1.5904,0.0,0.0,0.0,0.0,0.0,0.0,0.0,0.0,-2.8647,-2.7488,-2.7276,-2.7065,-2.6591,-2.6063,0.0,0.0,-2.5386,-2.5408,-2.5029,-2.4917,-2.5217,-2.5944,-2.6995,-2.7567,-2.7567,-2.7995,-2.8004,-2.7638,-2.7557,-2.7568,-2.7565,-2.6609,-2.6243,-2.6441,-2.6427,-2.5791,-2.4765,-2.4866,-2.4672,-2.4339,-2.4944,-2.5012,-2.4795,-2.5115,-2.5176,-2.4953,-2.4278,0.0,0.0,0.0,0.0,0.0,0.0,0.0,-2.2113,-2.1553,-2.0564,-1.9469,-1.8516,-1.8403,-1.8414,-1.7712,-1.7606,-1.7524,-1.7063,-1.6665,-1.6209,-1.5104,0.0,0.0,0.0,0.0,0.0,0.0,0.0,0.0,0.0,0.0,0.0,0.0,0.0,0.0,0.0,0.0,0.0,0.0,0.0,-0.9897,-0.8962,-0.9354,-0.9718,-0.9932,-1.0285,-1.0825,-1.1506,-1.2175,-1.2569,-1.268,-1.338,-1.3682,-1.3591,-1.4668,-1.531,-1.5662,-1.543,-1.5196,-1.502,-1.5196,-1.5313,-1.5371,-1.5846,-1.6202,-1.6384,-1.6384,-1.6192,-1.5894,0.0,0.0,0.0,0.0,0.0,0.0,0.0,0.0,0.0,-2.7289,-2.7382,-2.7501,-2.696,-2.6543,-2.6079,0.0,0.0,0.0,-2.5484,-2.5504,-2.5895,-2.6751,-2.7748,-2.8264,-2.8182,-2.8209,-2.7772,-2.697,-2.6685,-2.6827,-2.7313,-2.5911,-2.5391,-2.5688,-2.5708,-2.4837,-2.3342,-2.3879,-2.3731,-2.3165,-2.365,-2.3854,-2.3902,-2.4036,-2.3944,-2.3735,-2.3237,-2.3375,-2.3707,-2.3258,0.0,0.0,0.0,0.0,-2.1672,-2.1628,-2.0763,-1.9633,-1.9017,-1.8631,-1.8215,-1.7554,-1.7129,0.0,-1.6669,-1.6132,-1.5505,-1.4713,0.0,0.0,0.0,0.0,0.0,0.0,0.0,0.0,0.0,0.0,0.0,0.0,0.0,0.0,0.0,0.0,0.0,0.0,0.0,-0.9391,-0.8511,-0.8864,-0.9083,-0.903,-0.9738,-1.0419,-1.0974,-1.1668,-1.2287,-1.2898,-1.3305,-1.3692,-1.413,-1.4538,-1.4834,-1.4893,-1.5196,-1.4902,-1.4249,-1.4597,-1.4834,-1.4951,-1.5488,-1.5972,-1.6374,-1.6259,-1.6124,-1.6056,0.0,0.0,0.0,0.0,0.0,0.0,0.0,0.0,0.0,0.0,-2.8107,-2.7917,-2.8515,-2.7229,-2.6529,-2.7144,-2.7266,-2.7285,-2.7172,0.0,0.0,-2.7567,-2.8251,-2.851,-2.8209,-2.8191,-2.7754,-2.6819,-2.5985,-2.5991,0.0,0.0,-2.5627,-2.5966,-2.4521,-2.3528,-2.287,-2.1559,-2.1348,-2.1917,-2.2029,-2.2136,-2.235,-2.2881,-2.3021,-2.288,-2.2308,-2.2461,-2.2896,-2.2478,-2.2347,0.0,0.0,0.0,-2.0784,-2.1237,-2.0301,-1.8821,-1.7502,-1.7157,-1.7269,-1.749,-1.7455,-1.717,0.0,0.0,-1.5133,0.0,0.0,0.0,0.0,0.0,0.0,0.0,0.0,0.0,0.0,0.0,0.0,0.0,0.0,0.0,0.0,0.0,0.0,0.0,-0.9714,-0.9321,-0.8799,-0.8675,-0.8848,-0.9178,-0.9516,-1.0133,-1.0983,-1.167,-1.2162,-1.257,-1.3174,-1.3511,-1.3631,-1.4061,-1.4547,-1.4834,-1.4112,-1.3932,-1.4189,-1.4249,-1.4538,-1.4951,-1.5488,-1.5972,-1.6316,-1.5594,-1.5642,-1.5999,0.0,0.0,0.0,0.0,0.0,0.0,0.0,0.0,0.0,0.0,0.0,-2.7894,-2.8692,-2.7704,-2.712,-2.7475,-2.7494,-2.7464,-2.7384,-2.7811,-2.7985,-2.7859,-2.8401,-2.8543,-2.8246,-2.7772,-2.7023,-2.602,-2.555,-2.5485,0.0,-2.5373,-2.5333,0.0,0.0,-2.274,-2.1778,-2.0812,-2.0355,-2.0286,-2.014,-2.0837,-2.1889,-2.0965,-2.1198,-2.1885,-2.0494,-2.0545,-2.1337,-2.1519,-2.201,-2.2561,-2.2506,0.0,0.0,0.0,-2.0175,-1.9257,-1.7913,-1.7256,-1.6951,-1.6772,-1.7102,-1.7097,-1.6044,0.0,-1.5062,0.0,0.0,0.0,0.0,0.0,0.0,0.0,0.0,0.0,0.0,0.0,0.0,0.0,0.0,0.0,0.0,0.0,0.0,0.0,-0.9525,-0.9269,-0.8398,-0.8558,-0.8737,-0.8909,-0.9172,-0.9727,-1.0509,-1.1284,-1.1996,-1.2512,-1.2818,-1.2948,-1.2948,-1.3571,-1.3932,-1.4112,-1.3941,-1.3881,-1.3821,-1.3821,-1.4231,-1.4893,-1.5137,-1.573,-1.6316,-1.5884,-1.5575,-1.5391,0.0,0.0,0.0,0.0,0.0,0.0,0.0,0.0,0.0,0.0,0.0,-2.7631,-2.8866,0.0,0.0,0.0,-2.8074,-2.8026,-2.7857,-2.8184,-2.8339,-2.8294,-2.8557,-2.8576,-2.83,-2.7388,-2.6375,-2.532,-2.5018,0.0,-2.516,-2.4827,-2.4885,0.0,-2.3795,-2.2417,0.0,0.0,0.0,-1.9364,-1.951,-2.0511,-2.1813,-2.0684,-2.1098,-2.1962,-1.9914,-1.9762,-2.0548,-2.0533,-2.1235,-2.2079,-2.1674,-2.1456,0.0,0.0,0.0,-1.8907,-1.7985,-1.7268,-1.6701,-1.622,-1.66,-1.6821,0.0,0.0,0.0,0.0,0.0,0.0,0.0,0.0,0.0,0.0,0.0,0.0,0.0,0.0,0.0,0.0,0.0,0.0,0.0,0.0,0.0,0.0,-0.9174,-0.9053,-0.8127,-0.8598,-0.8842,-0.8777,-0.9034,-0.9414,-0.9962,-1.0788,-1.1578,-1.2258,-1.2443,-1.2512,-1.2512,-1.3191,-1.3511,-1.3511,-1.3881,-1.3821,-1.3511,-1.3631,-1.4172,-1.4893,-1.5001,-1.5604,-1.6316,-1.57,-1.5264,-1.4914,0.0,0.0,0.0,0.0,0.0,0.0,0.0,0.0,0.0,0.0,0.0,-2.7176,-2.9566,-2.8446,-2.8092,-2.9561,-2.9676,-2.9605,-2.94,-2.9399,-2.9316,-2.9056,-2.8814,0.0,-2.83,-2.7189,-2.6135,-2.5125,-2.4285,-2.4303,-2.5097,-2.4201,-2.4406,-2.553,-2.3894,-2.2672,-2.1681,0.0,0.0,-1.9877,-2.114,-2.1724,-2.1992,-2.3639,-2.4259,-2.3983,-2.1848,0.0,-2.1431,-1.9612,-1.9376,-1.9907,-1.9982,-1.9691,-1.9252,0.0,0.0,0.0,-1.6729,-1.6584,0.0,-1.6228,-1.6211,-1.6184,0.0,0.0,0.0,0.0,0.0,0.0,0.0,0.0,0.0,0.0,0.0,0.0,0.0,0.0,0.0,0.0,0.0,0.0,0.0,0.0,0.0,0.0,-0.8635,-0.869,-0.8365,-0.8997,-0.9248,-0.9108,-0.9316,-0.9524,-0.9524,-1.0225,-1.0912,-1.1578,-1.2197,-1.2512,-1.2512,-1.3191,-1.3511,-1.3511,-1.3511,-1.3511,-1.3511,-1.4001,-1.4419,-1.4951,-1.5235,-1.5768,-1.6192,-1.4433,-1.4305,-1.4669,0.0,0.0,0.0,0.0,0.0,0.0,0.0,0.0,0.0,0.0,0.0,0.0,0.0,-2.933,-2.9183,-2.9681,-2.9664,-2.9345,-2.8764,-2.9172,-2.9045,-2.8187,-2.8492,-2.8478,-2.7989,-2.6539,-2.5397,-2.4641,-2.3311,-2.2929,-2.3486,-2.3157,-2.3245,-2.3632,-2.2849,-2.1924,-2.0842,-1.9292,0.0,0.0,0.0,-2.0618,-2.228,-2.2331,0.0,0.0,0.0,0.0,0.0,-2.0618,-1.9983,-1.9284,-1.9806,-1.9568,-1.9016,0.0,0.0,-1.622,0.0,0.0,0.0,-1.571,-1.5766,-1.5644,-1.53,0.0,0.0,0.0,0.0,0.0,0.0,0.0,0.0,0.0,0.0,0.0,0.0,0.0,0.0,0.0,0.0,0.0,0.0,0.0,0.0,0.0,0.0,-0.862,-0.7973,-0.8885,-0.9403,-0.9334,-0.943,-0.9734,-1.011,-0.9919,-1.0415,-1.1516,-1.1757,-1.2074,-1.2512,-1.3191,-1.3511,-1.3511,-1.3511,-1.3511,-1.3511,-1.3459,-1.3941,-1.4775,-1.4697,-1.4982,-1.5342,-1.4628,-1.4034,-1.3545,0.0,0.0,0.0,0.0,0.0,0.0,0.0,0.0,0.0,-2.8353,0.0,0.0,0.0,0.0,-2.9345,-2.9608,-2.9531,-2.9116,-2.8296,-2.8602,-2.8452,-2.7597,-2.7822,-2.7932,-2.78,-2.6324,-2.5148,-2.4365,-2.2807,-2.2086,-2.2243,-2.1997,-2.1951,-2.2036,-2.1404,-2.0829,0.0,0.0,0.0,-1.7241,0.0,0.0,-2.1507,0.0,0.0,0.0,0.0,0.0,0.0,0.0,0.0,0.0,0.0,0.0,0.0,0.0,0.0,0.0,-1.5728,0.0,0.0,0.0,0.0,-1.507,-1.5068,0.0,0.0,0.0,0.0,0.0,0.0,0.0,0.0,0.0,0.0,0.0,0.0,0.0,0.0,0.0,0.0,0.0,0.0,0.0,0.0,0.0,0.0,0.0,-0.7312,-0.8236,-0.8894,-0.9151,-0.9414,-0.9734,-1.0174,-0.9734,-1.004,-1.1149,-1.1142,-1.1454,-1.2135,-1.2512,-1.2818,-1.3078,-1.3078,-1.326,-1.3511,-1.3338,-1.3812,-1.4647,-1.446,-1.4569,-1.4855,-1.446,-1.3683,-1.2887,0.0,0.0,0.0,0.0,0.0,0.0,0.0,0.0,-2.6722,-2.8071,0.0,0.0,0.0,0.0,0.0,-2.9323,-2.9373,-2.8957,-2.8042,-2.7779,-2.757,-2.7383,-2.6843,-2.6947,-2.7736,-2.6576,-2.5391,-2.4271,-2.2778,-2.1836,-2.1413,0.0,-2.0608,-2.0879,-1.968,-1.9409,-1.9812,0.0,-1.92,-1.7577,0.0,-2.1639,-1.9811,0.0,0.0,0.0,-2.2022,-2.1794,0.0,0.0,0.0,0.0,0.0,0.0,0.0,0.0,0.0,0.0,0.0,0.0,0.0,0.0,0.0,0.0,0.0,0.0,0.0,0.0,0.0,0.0,0.0,0.0,0.0,0.0,0.0,0.0,0.0,0.0,0.0,0.0,0.0,0.0,0.0,0.0,0.0,0.0,-0.6539,-0.6793,-0.6465,-0.7055,-0.7777,-0.849,-0.9151,-0.9484,-0.9484,-0.9484,-0.9798,-1.0485,-1.0345,-1.0647,-1.1267,-1.108,-1.1454,-1.2266,-1.2266,-1.2704,-1.345,-1.3563,-1.4052,-1.4647,-1.4647,-1.4688,-1.4728,-1.3795,-1.3199,-1.2765,0.0,0.0,0.0,0.0,0.0,-2.9544,-2.857,-2.7483,-2.6873,0.0,0.0,0.0,-2.7896,-2.7776,-2.7607,-2.7301,-2.7772,-2.7233,-2.521,-2.6078,-2.5991,-2.4391,-2.5268,-2.6016,-2.6476,-2.5605,-2.4678,-2.377,-2.1782,-2.0485,-1.9892,-1.9155,-1.8874,0.0,-1.8624,-1.7986,-1.7184,-1.7985,0.0,0.0,-1.97,-2.0686,0.0,0.0,0.0,0.0,0.0,-2.3319,0.0,0.0,-2.0371,-1.8118,0.0,0.0,0.0,0.0,0.0,0.0,-1.3663,0.0,0.0,0.0,0.0,0.0,0.0,0.0,0.0,0.0,0.0,0.0,0.0,0.0,0.0,0.0,0.0,0.0,0.0,0.0,0.0,0.0,0.0,0.0,0.0,0.0,0.0,0.0,-0.6999,-0.7521,-0.712,-0.8236,-0.8759,-0.849,-0.8683,-0.9017,-0.9484,-0.9017,-0.9332,-1.0485,-1.0345,-1.0647,-1.1267,-1.108,-1.1205,-1.1578,-1.1392,-1.1633,-1.2074,-1.2343,-1.2704,-1.3053,-1.287,-1.2931,-1.3114,-1.2879,-1.2696,-1.2634,0.0,0.0,-3.4167,-3.2164,-3.0885,-2.9926,-2.9306,-2.7867,-2.7137,0.0,0.0,0.0,-2.7159,-2.7014,-2.6832,-2.6447,-2.6786,-2.6122,-2.4003,-2.4581,-2.43,-2.2682,-2.3701,-2.4656,-2.5476,-2.4974,-2.4334,-2.3603,-2.1401,-1.9824,-1.8808,-1.7823,-1.7332,-1.7317,-1.7041,-1.6664,-1.6276,0.0,0.0,0.0,-1.9446,0.0,0.0,-2.2004,-2.2691,0.0,0.0,0.0,-2.0302,-2.165,-1.9973,0.0,0.0,0.0,0.0,0.0,0.0,0.0,0.0,0.0,0.0,0.0,0.0,0.0,0.0,0.0,0.0,0.0,0.0,0.0,0.0,0.0,0.0,0.0,0.0,0.0,0.0,0.0,0.0,0.0,0.0,0.0,0.0,-0.642,-0.6288,-0.5954,-0.6933,-0.7386,-0.699,-0.7777,-0.7972,-0.7512,-0.7837,-0.8361,-0.8958,-0.8619,-0.9198,-1.0485,-0.9964,-1.0085,-1.0773,-1.0205,-1.0205,-1.0647,-1.0521,-1.064,-1.0892,-1.1094,-1.171,-1.2512,-1.2258,-1.232,-1.2512,-1.2512,-1.2512,-1.2573,0.0,0.0,-3.3711,-3.1374,-3.0728,-3.0445,-3.0219,-2.8241,-2.7402,0.0,-2.7634,-2.6317,-2.6219,-2.6099,-2.608,-2.6194,-2.6068,-2.5253,-2.3548,-2.328,-2.2706,-2.1663,-2.2237,-2.323,-2.4496,-2.4475,-2.4106,-2.3455,-2.1254,-1.9505,-1.8176,-1.6824,-1.612,-1.5958,-1.5335,-1.5465,-1.6126,-1.5564,0.0,-1.5596,-1.9878,-2.024,0.0,0.0,-2.0934,0.0,-2.0803,-2.0051,-1.8725,-2.0737,-1.9619,0.0,0.0,0.0,0.0,0.0,-1.3059,0.0,0.0,0.0,0.0,0.0,0.0,0.0,0.0,0.0,0.0,0.0,0.0,0.0,0.0,0.0,0.0,0.0,0.0,0.0,0.0,0.0,0.0,0.0,0.0,0.0,0.0,-0.6416,-0.6218,-0.5954,-0.6474,-0.6728,-0.64,-0.6465,-0.64,-0.6079,-0.6863,-0.7582,-0.8166,-0.8296,-0.9069,-1.0358,-0.9332,-0.9198,-0.9697,-0.8823,-0.8823,-0.9582,-0.9646,-0.9773,-0.9894,-0.9894,-1.0829,-1.2266,-1.2266,-1.2328,-1.2389,-1.2389,-1.2512,-1.2634,-3.0862,-3.1654,-3.2014,-3.0874,-3.0413,-2.9738,-2.8296,-2.7624,-2.7097,-2.6623,-2.6742,-2.6849,-2.6841,-2.6203,-2.5536,-2.492,-2.4768,-2.3689,-2.1387,-2.2317,-2.1986,-1.9837,-2.1567,-2.2679,-2.2875,-2.3139,-2.3088,-2.2638,-2.0157,-1.8683,-1.8176,-1.6722,-1.5778,-1.5285,-1.4878,-1.4426,-1.406,0.0,0.0,-1.6764,-1.8415,0.0,-1.9682,-2.1278,-2.189,-2.1971,-2.2669,-2.2349,-2.1378,0.0,-1.9226,-1.7726,0.0,0.0,0.0,0.0,0.0,0.0,0.0,0.0,0.0,0.0,0.0,0.0,0.0,0.0,0.0,0.0,0.0,0.0,0.0,0.0,0.0,0.0,0.0,0.0,0.0,0.0,0.0,0.0,0.0,0.0,0.0,-0.6671,-0.6148,-0.5888,-0.6272,-0.6465,-0.64,-0.6924,-0.6863,-0.6141,-0.64,-0.712,-0.8166,-0.7842,-0.8231,-0.9524,-0.8613,-0.8156,-0.8156,-0.7847,-0.7847,-0.8161,-0.8565,-0.8888,-0.9204,-0.9396,-0.997,-1.073,-1.073,-1.1178,-1.1802,-1.1802,-1.2413,-1.3321,-3.0246,-3.104,-3.1444,-3.0498,-3.0088,-2.9712,-2.921,-2.8041,-2.742,-2.8049,-2.778,-2.7059,-2.5885,-2.5295,-2.4847,-2.4398,-2.3884,-2.3065,-2.1774,-2.1655,-2.1039,-1.9696,-2.0396,-2.1206,-2.2073,-2.1945,-2.1946,-2.2146,-1.9812,-1.8482,-1.8099,-1.6386,-1.59,-1.6453,-1.4443,-1.4126,0.0,0.0,-1.422,-1.5389,-1.8121,0.0,-2.1168,-2.1924,-2.2339,-2.2481,-2.2512,-2.2268,-2.1732,-2.028,-1.9095,0.0,0.0,-1.7149,-1.6572,0.0,-1.4386,-1.4328,0.0,0.0,0.0,-1.1272,0.0,0.0,0.0,0.0,0.0,0.0,0.0,0.0,0.0,0.0,0.0,0.0,0.0,0.0,0.0,0.0,0.0,0.0,0.0,0.0,0.0,-0.6806,-0.6346,-0.6408,-0.6079,-0.6075,-0.64,-0.6334,-0.6009,-0.5488,-0.555,-0.6075,-0.7051,-0.6793,-0.7181,-0.8226,-0.7637,-0.7307,-0.7181,-0.7386,-0.7521,-0.7647,-0.8247,-0.8576,-0.8765,-0.8829,-0.928,-0.9849,-1.0034,-1.0415,-1.085,-1.1115,-1.2027,-1.3053,-2.9394,-3.0305,-3.083,-2.9948,-2.9842,-2.9935,-3.0232,-2.8801,-2.8245,-2.9822,-2.8805,-2.7214,0.0,0.0,0.0,0.0,0.0,-2.3154,-2.2781,-2.1548,-2.0668,-2.0348,-1.9585,-1.9916,-2.1562,-2.0755,-2.0641,-2.129,-1.9326,-1.8204,-1.7868,-1.589,-1.5742,-1.6997,0.0,0.0,0.0,0.0,0.0,-1.4755,0.0,-2.0055,-2.0787,-2.1736,-2.197,-2.1744,-2.1929,-2.1844,-2.1481,-2.0338,0.0,-1.8581,-1.8907,-1.8182,0.0,0.0,0.0,0.0,0.0,0.0,0.0,0.0,0.0,-1.0258,0.0,0.0,0.0,0.0,0.0,0.0,0.0,0.0,0.0,0.0,0.0,0.0,0.0,0.0,0.0,0.0,0.0,0.0,0.0,-0.6967,-0.6502,-0.6662,-0.5982,-0.5716,-0.6203,-0.5481,-0.5024,-0.4831,-0.4831,-0.5156,-0.5807,-0.5873,-0.633,-0.7111,-0.6519,-0.6322,-0.6457,-0.6724,-0.6924,-0.7125,-0.7787,-0.8117,-0.8117,-0.8117,-0.8371,-0.8812,-0.9576,-0.9894,-1.0078,-1.0604,-1.1524,-1.248,-2.9193,-2.9076,-2.89,-2.8714,-2.9637,-2.9969,-2.8701,-2.9405,-2.965,-2.8433,-2.797,0.0,0.0,0.0,0.0,0.0,0.0,0.0,-2.2735,0.0,-2.1969,-2.1121,-2.0211,-2.0087,-2.0905,-1.9625,-1.8969,-1.9069,-1.779,-1.7196,-1.7181,-1.5326,-1.4317,-1.4028,-1.4446,0.0,0.0,0.0,-1.5788,0.0,-1.8002,-1.6608,0.0,-1.8977,-1.9965,-1.9724,-2.2071,-2.2636,-2.2046,0.0,-2.015,-1.9208,0.0,-1.7909,-1.9194,0.0,0.0,0.0,0.0,0.0,0.0,0.0,-1.0894,0.0,0.0,0.0,0.0,0.0,0.0,0.0,0.0,0.0,0.0,0.0,0.0,0.0,0.0,0.0,0.0,0.0,0.0,0.0,0.0,0.0,-0.6421,-0.58,-0.5997,-0.5913,-0.555,-0.5223,-0.5024,-0.4831,-0.4831,-0.509,-0.5613,-0.5807,-0.6199,-0.6719,-0.5391,-0.4998,-0.5474,-0.4938,-0.5005,-0.5606,-0.633,-0.6662,-0.6662,-0.6662,-0.6662,-0.692,-0.8678,-0.9646,-1.0078,-1.0604,-1.1288,-1.195,-2.8779,-2.8276,-2.794,-2.8264,-2.88,-2.9062,-2.8763,-2.9219,-2.9189,-2.8156,0.0,0.0,0.0,0.0,0.0,0.0,0.0,-2.419,0.0,0.0,-2.2228,-2.158,-1.9944,-1.9415,-2.0208,-1.8792,-1.8165,-1.8346,-1.747,-1.6757,-1.6128,-1.4591,-1.4242,-1.4869,-1.4499,0.0,-1.588,0.0,0.0,0.0,0.0,0.0,0.0,-1.9725,-2.1662,-2.15,-2.2664,-2.2987,-2.2723,0.0,-2.0878,0.0,0.0,0.0,0.0,0.0,0.0,0.0,0.0,0.0,0.0,0.0,0.0,0.0,-0.8952,0.0,-0.8288,0.0,0.0,0.0,0.0,0.0,0.0,0.0,0.0,0.0,0.0,0.0,0.0,0.0,0.0,0.0,0.0,0.0,0.0,0.0,0.0,-0.5645,-0.5418,-0.5093,-0.4894,-0.4831,-0.4631,-0.4495,-0.435,-0.4348,-0.4276,-0.4207,-0.3473,-0.3476,-0.4079,-0.4209,-0.4674,-0.5342,-0.6067,-0.64,-0.64,-0.64,-0.64,-0.6461,-0.7312,-0.8027,-0.8678,-0.9582,-1.0332,-1.0871,-2.8756,-2.7749,-2.7176,-2.8058,-2.8154,-2.8507,-2.9518,-2.9026,-2.8579,0.0,0.0,0.0,-2.7075,-2.5218,0.0,0.0,-2.5343,-2.4785,0.0,0.0,-2.2659,-2.2659,-1.9838,0.0,-2.0067,-1.8195,-1.7306,-1.7548,-1.6939,-1.6233,-1.5448,-1.3919,-1.3838,-1.4889,-1.429,-1.5283,-1.7306,0.0,0.0,-1.5967,-1.5734,-1.5756,-1.6366,-2.0561,-2.2539,-2.3078,-2.3078,-2.3078,-2.3088,-2.2786,-2.1355,0.0,-2.1638,0.0,0.0,0.0,0.0,0.0,-1.3215,0.0,0.0,0.0,0.0,0.0,0.0,0.0,0.0,0.0,0.0,0.0,0.0,0.0,0.0,0.0,0.0,0.0,0.0,0.0,0.0,0.0,0.0,0.0,0.0,0.0,0.0,0.0,0.0,0.0,-0.5418,-0.503,-0.4697,-0.4561,-0.4161,-0.3692,-0.3151,-0.295,-0.2681,-0.2281,-0.2013,-0.2213,-0.2882,-0.3278,-0.3808,-0.4475,-0.5005,-0.52,-0.5266,-0.5467,-0.5536,-0.5536,-0.5935,-0.64,-0.7055,-0.8484,-0.9308,-0.9666,-2.9369,-2.746,-2.6354,-2.7914,-2.8099,-2.8718,-3.0806,-2.9085,0.0,0.0,0.0,0.0,0.0,0.0,0.0,0.0,0.0,-2.6627,-2.5737,0.0,-2.3564,0.0,0.0,-1.8643,0.0,-1.777,-1.6141,-1.6157,-1.5698,-1.5433,-1.5359,-1.3431,-1.2523,-1.2557,-1.3744,-1.4294,-1.4461,-1.6451,-1.8553,-2.0454,-1.9836,-2.0903,-2.2552,0.0,-2.1255,-2.3078,-2.3078,0.0,0.0,-2.1895,-2.1481,0.0,0.0,0.0,0.0,0.0,0.0,0.0,0.0,0.0,0.0,-0.9689,0.0,0.0,0.0,0.0,-0.7349,0.0,0.0,0.0,0.0,0.0,0.0,0.0,0.0,0.0,0.0,0.0,0.0,0.0,0.0,0.0,0.0,0.0,0.0,0.0,0.0,0.0,-0.5411,-0.503,-0.4495,-0.3825,-0.342,-0.2882,-0.2147,-0.2147,-0.2147,-0.208,-0.1478,-0.1478,-0.2147,-0.1478,-0.1544,-0.2213,-0.2213,-0.2213,-0.228,-0.3015,-0.3282,-0.3416,-0.4809,-0.5342,-0.5602,-0.7558,-0.8275,-0.8398,-3.0136,-2.8014,-2.6425,-2.7156,-2.7558,-2.817,-2.933,-2.8268,0.0,0.0,0.0,0.0,0.0,-2.6413,-2.6055,0.0,0.0,-2.6041,-2.5363,-2.4327,0.0,0.0,0.0,-1.9249,0.0,0.0,0.0,-1.5624,-1.5255,-1.4738,-1.403,-1.2935,-1.2283,-1.2059,0.0,-1.4651,0.0,0.0,0.0,0.0,0.0,-2.0489,-2.1543,0.0,0.0,-2.3078,-2.3078,-2.3078,0.0,-2.2711,-2.1788,-2.0834,-2.1083,-1.9698,-1.8019,-1.8052,-1.6953,0.0,0.0,0.0,-1.2465,-1.0375,0.0,0.0,0.0,0.0,0.0,0.0,0.0,0.0,0.0,0.0,0.0,0.0,0.0,0.0,0.0,0.0,0.0,0.0,0.0,0.0,0.0,0.0,0.0,0.0,0.0,0.0,0.0,-0.4628,-0.4025,-0.3825,-0.295,-0.2147,-0.1478,-0.1411,-0.121,-0.074,-0.0471,-0.074,-0.1411,-0.121,-0.1478,-0.208,-0.208,-0.208,-0.2147,-0.2347,-0.248,-0.2547,-0.3013,-0.348,-0.4146,-0.6252,-0.6981,-0.7046,-3.0536,-2.8728,-2.7373,-2.7818,-2.8219,-2.8727,0.0,0.0,0.0,0.0,-2.7267,0.0,-2.6826,0.0,-2.5578,0.0,-2.6101,-2.5564,-2.4942,-2.431,0.0,-2.3138,-2.1252,0.0,0.0,0.0,0.0,0.0,0.0,-1.4736,-1.3707,-1.2914,-1.241,-1.2147,0.0,-1.4664,-1.7375,0.0,-1.8618,0.0,0.0,-2.0859,0.0,0.0,-2.2344,-2.2334,0.0,-2.2944,-2.2689,-2.2689,-2.1691,-2.058,-2.1175,-1.9568,-1.7508,-1.7843,-1.6638,-1.4985,-1.4109,-1.3418,0.0,-1.0743,-1.024,0.0,-0.8049,0.0,0.0,0.0,0.0,0.0,0.0,0.0,0.0,0.0,0.0,0.0,0.0,0.0,0.0,0.0,0.0,0.0,0.0,0.0,0.0,0.0,0.0,0.0,0.0,0.0,-0.3556,-0.2948,-0.2147,-0.1411,-0.074,-0.074,-0.0337,0.0404,0.0135,-0.0135,-0.0336,-0.0336,-0.0537,-0.0939,-0.0939,-0.0939,-0.1006,-0.1544,-0.1745,-0.1745,-0.2013,-0.2414,-0.3013,-0.4935,-0.5997,-0.633,-3.0657,-2.9629,-2.9083,-2.9642,-2.9828,0.0,0.0,0.0,-2.7959,0.0,-2.769,-2.6081,-2.6733,-2.6208,-2.5762,-2.5684,-2.5701,0.0,-2.4583,-2.3973,0.0,0.0,-2.1865,-2.0976,-2.1149,0.0,0.0,0.0,0.0,0.0,-1.4336,-1.3263,-1.2742,-1.2679,-1.2494,0.0,-1.7368,-1.7872,-2.0007,-2.2944,-2.2298,-2.1992,-2.1882,-2.1279,-2.0902,-2.0824,-2.2418,-2.2506,-2.1877,-2.1877,-2.129,-2.0526,-2.0268,-1.9695,-1.893,-1.8093,-1.7288,-1.6219,-1.39,-1.3051,-1.2474,-1.0733,0.0,0.0,0.0,0.0,-0.7928,0.0,0.0,0.0,0.0,0.0,0.0,0.0,0.0,0.0,0.0,0.0,0.0,0.0,0.0,0.0,0.0,0.0,0.0,0.0,0.0,0.0,0.0,0.0,-0.2947,-0.134,-0.1141,-0.074,0.0,0.0067,0.0404,0.1076,0.0404,0.0471,0.1143,0.1143,0.1143,0.1143,0.1143,0.1143,0.1008,-0.0403,-0.1008,-0.1075,-0.1678,-0.2014,-0.2218,-0.3682,-0.5017,-0.6024,-3.1179,-3.061,-2.9836,0.0,-2.8843,-2.9309,0.0,0.0,0.0,0.0,-2.6836,-2.5754,-2.5663,-2.5707,-2.5668,-2.5556,-2.5519,0.0,0.0,0.0,0.0,-2.3308,-2.1589,-2.0579,-2.0542,-1.9039,0.0,-1.7406,0.0,0.0,-1.5148,-1.3051,-1.2293,-1.2666,0.0,0.0,-1.6618,-1.6798,-1.8717,-2.1565,-2.1439,-2.0618,0.0,0.0,-2.0099,-1.9228,-2.1014,-2.1365,-2.1078,-2.1078,-2.0771,-2.0193,-1.9104,-1.8496,-1.7948,-1.6688,-1.572,-1.4969,-1.4094,-1.3218,-1.2265,-1.0955,-1.0244,-0.9737,0.0,0.0,0.0,0.0,0.0,0.0,0.0,0.0,0.0,0.0,0.0,0.0,0.0,0.0,0.0,0.0,0.0,0.0,0.0,0.0,0.0,0.0,0.0,0.0,0.0,0.0,0.0,-0.1339,-0.0605,-0.0202,0.0,0.0539,0.0942,0.1076,0.1411,0.1678,0.1812,0.1812,0.1812,0.1812,0.1344,0.1411,0.1745,0.0873,0.0538,0.0538,0.0336,-0.0408,-0.1454,-0.2351,-0.2868,-0.3128,-3.1314,0.0,0.0,-2.9897,0.0,0.0,-2.9718,0.0,0.0,-2.7195,-2.5958,0.0,-2.4775,-2.4879,-2.4918,-2.4863,-2.4592,0.0,-2.3703,0.0,0.0,-2.2395,-2.1639,-2.1058,-2.0775,-1.9905,0.0,-1.7874,0.0,0.0,-1.468,-1.318,-1.2551,-1.2583,0.0,-1.3164,0.0,-1.7078,-1.8619,-2.0254,-2.0482,0.0,0.0,-1.9147,-1.857,-1.7632,-1.8647,-1.952,-2.0117,-2.0117,-1.9748,-1.909,-1.7988,-1.7298,-1.6642,-1.5392,-1.4449,-1.3823,-1.3408,-1.2782,-1.2074,-1.1316,-1.0785,-1.0301,-0.9552,-0.9279,-0.9192,0.0,0.0,0.0,0.0,0.0,0.0,0.0,0.0,0.0,0.0,0.0,0.0,0.0,0.0,0.0,0.0,0.0,0.0,0.0,0.0,0.0,0.0,0.0,0.0,-0.0738,0.0,0.0266,0.0,0.0996,0.1525,0.1545,0.1946,0.228,0.2547,0.2547,0.2547,0.2547,0.2414,0.248,0.2547,0.2079,0.1757,0.1644,0.1663,0.1194,0.0356,0.0,-0.0723,-0.145,-3.103,0.0,0.0,0.0,0.0,0.0,0.0,-2.733,0.0,-2.6373,0.0,-2.4082,-2.4082,-2.3982,-2.3882,-2.3882,0.0,-2.2834,-2.2249,-2.2198,-2.1935,-2.1324,-2.1709,-2.1718,-2.1326,-2.1197,0.0,0.0,0.0,0.0,-1.3908,-1.357,0.0,0.0,0.0,0.0,0.0,-1.7785,-1.892,-1.9101,-1.9392,-1.9145,-1.8429,-1.7522,-1.6853,-1.6237,-1.6228,-1.7394,-1.889,-1.889,-1.8375,-1.7579,-1.6793,-1.6053,-1.532,-1.4234,-1.3446,-1.2877,-1.2344,-1.2123,-1.1906,-1.1661,-1.1322,-1.0802,-1.0287,-0.998,-0.98,-0.98,-0.9392,-0.9325,0.0,0.0,0.0,0.0,0.0,0.0,0.0,0.0,0.0,0.0,0.0,0.0,0.0,0.0,0.0,0.0,0.0,0.0,0.0,0.0,0.0,0.0135,0.0722,0.0,0.0268,0.0,0.2286,0.2333,0.2542,0.2948,0.3549,0.3549,0.3549,0.3549,0.3949,0.3882,0.3551,0.3293,0.301,0.2745,0.282,0.2775,0.2637,0.2926,0.1714,0.0073,0.0,0.0,0.0,0.0,0.0,-2.6842,-2.5745,-2.5086,-2.4595,-2.4119,-2.3658,-2.3363,-2.3363,-2.3363,-2.3363,-2.3363,-2.2815,0.0,0.0,0.0,0.0,-2.1404,-2.1113,-2.0885,-2.0799,-2.024,-1.9517,0.0,0.0,0.0,-1.4925,-1.3881,0.0,0.0,0.0,0.0,-1.569,-1.6853,0.0,-1.8788,-1.8285,-1.7891,-1.7531,-1.6627,-1.6149,-1.6009,-1.5877,-1.6149,-1.6549,-1.6549,-1.6358,-1.5956,-1.5242,-1.4755,-1.4226,-1.3429,-1.288,-1.2533,-1.2145,-1.1927,-1.1731,-1.1283,-1.1051,-1.0792,-1.0564,-1.0504,-1.047,-1.047,-1.0389,-1.0167,-0.9886,0.0,0.0,0.0,0.0,0.0,0.0,0.0,0.0,0.0,0.0,0.0,0.0,0.0,0.0,0.0,0.0,0.0,0.0,0.0,0.0,0.0,0.0,0.0,0.0,0.0,0.3619,0.3489,0.4698,0.5286,0.5422,0.5422,0.5422,0.5418,0.4872,0.4942,0.5362,0.4931,0.4769,0.4893,0.5023,0.4625,0.4192,0.5603,0.5402,0.4222,0.0,0.0,0.0,0.0,0.0,0.0,0.0,-2.3068,0.0,-2.2955,-2.2836,-2.2725,-2.2725,-2.268,-2.262,-2.262,-2.2128,-2.1827,-2.1827,-2.1313,-2.1033,-2.1033,-2.0799,0.0,-2.0612,-2.0252,-1.9633,-1.8719,0.0,0.0,-1.435,-1.346,0.0,-1.1989,0.0,-1.3203,0.0,0.0,0.0,-1.7021,-1.6878,-1.6507,-1.6009,-1.5517,-1.5029,-1.4681,-1.4617,-1.4617,-1.4824,-1.5596,-1.5807,-1.5604,-1.4816,-1.4482,-1.4143,-1.3048,-1.2643,-1.2349,-1.179,-1.1532,-1.1376,-1.1031,-1.0807,-1.0681,-1.0624,-1.0624,-1.0624,-1.0624,-1.0624,-1.0443,-0.9793,-0.915,0.0,0.0,0.0,0.0,0.0,0.0,0.0,0.0,0.0,0.0,0.0,0.0,0.0,0.0,0.0,0.0,0.0,0.0,0.0,0.0,0.0,0.0,0.0,0.0,0.0,0.4316,0.538,0.5888,0.5888,0.5888,0.5888,0.5888,0.5807,0.5855,0.603,0.5987,0.5936,0.5957,0.619,0.5999,0.5722,0.6565,0.6626,0.6143,0.0,-2.9103,0.0,0.0,-2.4822,0.0,-2.2446,-2.1379,-2.1019,-2.2002,-2.2095,-2.2095,-2.2095,-2.2002,-2.1955,-2.1955,-2.1506,-2.1229,-2.1229,-2.0898,-2.0649,-2.0485,-2.0599,-2.0498,-2.008,-2.0195,-1.9659,0.0,0.0,0.0,0.0,-1.3182,-1.2442,0.0,0.0,0.0,0.0,0.0,-1.5442,-1.5569,-1.5711,-1.5384,-1.4832,-1.4466,-1.3977,-1.3492,-1.3492,-1.3492,-1.371,-1.4832,-1.5251,-1.5108,-1.4537,-1.4347,-1.4026,-1.2824,-1.2475,-1.2225,-1.1524,-1.1247,-1.1059,-1.087,-1.0744,-1.0618,-1.0428,-1.0364,-1.0364,-1.0364,-1.0491,-1.0381,-0.9734,-0.9293,0.0,0.0,0.0,0.0,0.0,0.0,0.0,0.0,0.0,0.0,0.0,0.0,0.0,0.0,0.0,0.0,0.0,0.0,0.0,0.0,0.0,0.4094,0.4024,0.0,0.5664,0.5153,0.5924,0.6214,0.6214,0.6214,0.6214,0.6284,0.6675,0.6802,0.6618,0.6933,0.7004,0.7017,0.7215,0.7239,0.7127,0.7271,0.7246,0.7302,0.0,0.0,0.0,0.0,0.0,0.0,-2.1446,-2.0371,-1.9875,-2.0736,-2.1229,-2.1458,-2.1458,-2.1458,-2.1471,-2.1471,-2.1033,-2.0749,-2.0749,-2.0699,-2.0385,-1.9722,-2.0321,-2.0067,-1.8738,-1.9214,-1.8818,0.0,0.0,-1.5946,0.0,-1.3864,-1.3406,0.0,0.0,0.0,0.0,-1.5374,-1.5606,-1.5922,-1.528,-1.4824,-1.4537,-1.384,-1.3564,-1.3492,-1.3492,-1.3492,-1.3492,-1.3637,-1.371,-1.3702,-1.363,-1.3359,-1.305,-1.2628,-1.2306,-1.1934,-1.1459,-1.1303,-1.1178,-1.087,-1.08,-1.0548,-0.9779,-0.9582,-0.9582,-0.9582,-1.0104,-1.0319,-0.9387,-0.9589,-0.9497,0.0,0.0,0.0,0.0,0.0,0.0,0.0,0.0,0.0,0.0,0.0,0.0,0.0,0.0,0.0,0.0,0.0,0.0,0.3336,0.0,0.5115,0.4979,0.6085,0.6505,0.635,0.7044,0.7326,0.7326,0.7326,0.7326,0.7326,0.7391,0.7616,0.7924,0.8157,0.8347,0.8495,0.8533,0.8537,0.8523,0.8542,0.8546,0.8546,0.0,0.0,0.0,0.0,0.0,0.0,0.0,-2.0324,-2.0202,-2.0736,-2.0487,-2.0271,-2.056,-2.0547,-2.0804,-2.1425,-2.1056,-2.0821,-2.0927,-2.0682,-2.0287,-1.9821,-2.0043,-1.9889,-1.9227,-1.9453,-1.9083,0.0,0.0,0.0,0.0,-1.3752,-1.3036,0.0,0.0,-1.3925,-1.4666,-1.4835,-1.5034,-1.51,-1.4338,-1.3985,-1.3912,-1.3637,-1.3492,-1.3492,-1.3492,-1.3492,-1.3492,-1.3492,-1.3492,-1.3492,-1.3492,-1.3404,-1.3199,-1.2542,-1.2296,-1.202,-1.1383,-1.1122,-1.0863,-1.0351,-1.0098,-0.9837,-0.9069,-0.8877,-0.8877,-0.8877,-0.9396,-0.9724,-0.9321,-0.9383,-0.9265,0.0,0.0,0.0,0.0,0.0,0.0,0.0,0.0,0.0,0.0,0.0,0.0,0.0,0.0,0.0,0.0,0.0,0.0,0.4282,0.0,0.6732,0.6763,0.7824,0.8372,0.8281,0.8184,0.8102,0.8102,0.7717,0.7521,0.7536,0.7721,0.7924,0.8108,0.8444,0.8628,0.8703,0.8703,0.8703,0.8703,0.8703,0.8703,0.8775,-2.5859,0.0,-2.2624,0.0,-2.0791,-2.0058,-2.0065,-1.996,-2.0018,-2.0342,-1.9777,-1.9552,-2.017,-2.0263,-2.0492,-2.111,-2.0878,-2.0699,-2.0718,-2.0469,-2.0053,-1.9574,-1.9808,0.0,-1.9134,-1.9301,-1.9129,-1.8526,-1.7296,0.0,0.0,-1.3685,-1.2877,0.0,-1.3646,-1.4072,-1.4296,-1.4501,-1.4466,-1.4258,-1.3702,-1.3492,-1.3492,-1.3492,-1.3492,-1.3499,-1.3273,-1.3193,-1.3039,-1.3119,-1.2893,-1.2739,-1.3266,-1.3346,-1.3143,-1.2158,-1.2044,-1.1984,-1.0964,-1.0611,-1.0351,-0.9837,-0.9454,-0.9005,-0.8361,-0.8231,-0.8166,-0.8102,-0.8624,-0.9011,-0.8882,-0.885,-0.867,-0.8179,0.0,0.0,0.0,0.0,0.0,0.0,0.0,0.0,0.0,0.0,0.0,0.0,0.0,0.0,0.0,0.0,0.0,0.0,0.0,0.0,0.0,0.8754,0.9198,0.9198,0.8941,0.8812,0.8748,0.8296,0.8012,0.79,0.827,0.8326,0.8203,0.8557,0.8703,0.8703,0.8703,0.8703,0.8703,0.8703,0.8851,0.916,-2.3851,-2.2184,-2.0697,-2.0227,-1.9291,-1.8747,-1.916,-1.8906,-1.8747,-1.916,-1.9123,-1.9538,-2.0742,-2.0913,-2.0754,-2.0411,-2.0411,-2.0296,-1.9925,-1.9925,-1.9574,0.0,0.0,-1.9231,-1.7729,-1.8412,-1.8689,-1.8425,0.0,0.0,-1.6233,-1.3972,-1.3365,-1.4141,-1.4059,-1.4297,-1.4887,-1.4673,-1.4186,-1.3492,-1.3492,-1.3492,-1.3492,-1.3492,-1.3492,-1.3419,-1.2826,-1.2365,-1.205,-1.2224,-1.1545,-1.0864,-1.2666,-1.3046,-1.2629,-1.1299,-1.141,-1.1708,-1.018,-0.9837,-0.9773,-0.9582,-0.9005,-0.8361,-0.7652,-0.7521,-0.7461,-0.7265,-0.7912,-0.8361,-0.7837,-0.7892,-0.7746,-0.6838,0.0,0.0,0.0,0.0,0.0,0.0,-0.1434,-0.091,-0.0488,0.0,0.0,0.0,0.0,0.0,0.0,0.0,0.0,0.6245,0.6598,0.0,0.7898,0.8316,0.849,0.8554,0.9198,0.9518,0.9518,0.9454,0.9213,0.8794,0.9029,0.8837,0.8415,0.8618,0.8703,0.8703,0.8703,0.8703,0.8703,0.8703,0.9236,0.9916,-2.1849,-2.0831,-1.9928,-1.9282,-1.8587,-1.8228,-1.8369,-1.8273,-1.8338,-1.8687,-1.8687,-1.8826,-1.9212,-1.9998,-2.0509,0.0,-2.0211,-1.9862,0.0,-1.9019,-1.8589,-1.8479,-1.8664,-1.8609,-1.8117,-1.8359,-1.8233,-1.7716,0.0,0.0,0.0,-1.3671,-1.3441,-1.3708,-1.3646,-1.376,-1.392,-1.3912,-1.3702,-1.3492,-1.3492,-1.3492,-1.3492,-1.3492,-1.3273,-1.282,-1.2358,-1.1835,-1.1323,-1.1168,-1.0714,-1.0415,-1.0938,-1.1168,-1.1058,-1.0178,-1.0101,-1.0057,-0.9142,-0.8935,-0.8812,-0.8296,-0.7972,-0.7652,-0.6937,-0.6675,-0.6605,-0.6539,-0.6933,-0.706,-0.6388,-0.6645,-0.6473,-0.5267,-0.481,0.0,0.0,0.0,0.0,0.0,0.0,-0.1004,0.0,-0.0183,0.0,0.0,0.0,0.0,0.0,0.0,0.0,0.0,0.7804,0.0,0.8721,0.9865,1.0598,1.0975,1.0338,0.9894,0.9709,0.9709,0.9663,0.96,0.9851,0.9961,1.0075,1.0256,0.9986,0.9539,1.0132,0.9986,0.9614,1.0132,1.0513,1.0738,-2.075,-2.0109,-1.9439,-1.8966,-1.8363,-1.7963,-1.7975,-1.7871,-1.7833,-1.8085,-1.821,-1.8277,-1.8104,-1.902,0.0,-1.9687,-1.9276,-1.8963,-1.8736,-1.8094,-1.7842,-1.793,-1.793,-1.793,-1.793,-1.793,0.0,-1.7226,-1.5886,-1.4833,-1.4026,-1.3699,-1.352,-1.3492,-1.3492,-1.3492,-1.3492,-1.3492,-1.3492,-1.3492,-1.3492,-1.3346,-1.3193,-1.3193,-1.2826,-1.215,-1.1545,-1.095,-1.0501,-1.0196,-0.9664,-0.9216,-0.9518,-0.9518,-0.935,-0.9056,-0.9206,-0.9237,-0.8356,-0.8102,-0.8037,-0.7587,-0.7265,-0.6937,-0.6416,-0.628,-0.6079,-0.5745,-0.5811,-0.5741,-0.4938,-0.5067,-0.4998,-0.3941,-0.3611,-0.3209,-0.241,0.0,0.0,0.0,0.0,0.0,0.0,0.0126,0.0,0.0,0.0,0.0,0.0,0.0,0.0,0.6447,0.8364,0.0,0.9386,1.0595,1.1358,1.1663,1.1226,1.085,1.0661,1.0661,1.069,1.0747,1.0853,1.093,1.1004,1.1175,1.0881,1.0363,1.0887,1.0812,1.0443,1.0887,1.126,1.1558,-2.0343,-1.9678,-1.9116,0.0,-1.8414,0.0,-1.7915,-1.7567,-1.7304,-1.7304,-1.7638,-1.7706,-1.7314,-1.7901,-1.8172,-1.7901,0.0,0.0,0.0,-1.7314,-1.7314,-1.7304,-1.7304,-1.7304,-1.7304,-1.7304,-1.7088,-1.6724,-1.5463,-1.4832,-1.476,-1.3848,-1.3419,-1.3419,-1.3419,-1.3346,-1.3346,-1.3346,-1.3346,-1.3346,-1.3346,-1.3046,-1.2526,-1.2526,-1.2077,-1.1403,-1.0438,-0.983,-0.9448,-0.9221,-0.8466,-0.7638,-0.8399,-0.8093,-0.7563,-0.7992,-0.8574,-0.8821,-0.7702,-0.7391,-0.7391,-0.7391,-0.6872,-0.6284,-0.6148,-0.6148,-0.5815,-0.4948,-0.4749,-0.4414,-0.3551,-0.342,-0.3284,-0.2813,-0.2616,-0.2214,-0.1274,0.0,0.0,0.0,0.0,0.0,0.0,0.0682,0.1455,0.0,0.0,0.0,0.0,0.0,0.6039,0.7683,0.8415,0.9122,0.9837,1.0647,1.108,1.108,1.1794,1.2135,1.2158,1.2158,1.2069,1.2004,1.2004,1.1834,1.1601,1.1601,1.1465,1.126,1.126,1.126,1.1186,1.126,1.1781,1.2378,0.0,0.0,-1.8206,-1.7978,-1.7462,-1.7051,-1.6826,-1.6457,-1.6149,-1.6149,-1.6281,-1.6281,-1.6211,-1.6351,-1.6412,-1.6351,-1.695,-1.7148,-1.6811,-1.6412,-1.6342,-1.6751,-1.6821,-1.6673,-1.6324,-1.6324,-1.5833,-1.476,-1.441,-1.4129,-1.3848,-1.3119,-1.2826,-1.2826,-1.2305,-1.2157,-1.2157,-1.2157,-1.2157,-1.2157,-1.2157,-1.1855,-1.1484,-1.1484,-1.0881,-1.0051,-0.9453,-0.8927,-0.8399,-0.8016,-0.771,-0.7561,-0.771,-0.7633,-0.7487,-0.7343,-0.738,-0.7364,-0.6847,-0.6679,-0.6544,-0.6141,-0.5818,-0.5624,-0.5624,-0.5289,-0.4891,-0.4688,-0.4087,-0.3349,-0.2547,-0.2415,-0.2214,-0.1412,-0.1144,-0.074,0.0201,0.047,0.0602,0.0,0.1251,0.1382,0.0857,0.1448,0.2078,0.0,0.0,0.0,0.0,0.7113,0.7814,0.7902,0.9314,1.0135,1.0332,1.1163,1.1608,1.1608,1.2182,1.2516,1.2639,1.2639,1.2813,1.3177,1.3177,1.3323,1.3455,1.3455,1.3091,1.2498,1.3171,1.2886,1.2298,1.29,1.32,1.3193,-1.8201,-1.8121,-1.7971,-1.7766,-1.7278,-1.685,-1.6644,-1.6148,-1.5805,-1.5805,-1.5805,-1.5805,-1.5805,-1.5805,-1.5805,-1.5805,-1.6202,-1.6403,-1.6272,-1.5938,-1.5938,-1.6202,-1.6053,-1.5754,-1.5251,-1.5037,-1.4537,-1.3688,-1.347,-1.3331,-1.3046,-1.2452,-1.2157,-1.215,-1.1855,-1.1632,-1.1409,-1.1409,-1.1329,-1.1174,-1.1174,-1.0875,-1.0426,-1.0426,-0.99,-0.915,-0.8699,-0.8403,-0.8025,-0.7638,-0.733,-0.7099,-0.7099,-0.7099,-0.6973,-0.6419,-0.6436,-0.6514,-0.6175,-0.5749,-0.5352,-0.4878,-0.4683,-0.4619,-0.4556,-0.4289,-0.3954,-0.3553,-0.3084,-0.248,-0.1745,-0.1612,-0.1344,-0.0336,-0.0135,0.0269,0.1276,0.1477,0.1544,0.1544,0.1879,0.1946,0.1612,0.2213,0.2847,0.3334,0.4644,0.0,0.6685,0.8549,0.9344,0.8849,1.0329,1.1175,1.1314,1.2037,1.2343,1.2182,1.2436,1.2742,1.2956,1.2956,1.3267,1.3847,1.3847,1.3971,1.4209,1.4209,1.3912,1.3462,1.3912,1.3768,1.3331,1.3775,1.3783,1.3645,-1.804,-1.804,-1.804,-1.804,-1.7259,-1.6758,-1.6758,-1.5976,-1.5434,-1.5434,-1.5434,-1.5434,-1.5434,-1.5434,-1.5459,-1.5438,-1.5438,-1.5564,-1.5805,-1.5655,-1.5647,-1.5647,-1.5133,-1.4609,-1.4099,-1.3593,-1.3237,-1.2945,-1.2666,-1.2452,-1.2452,-1.1855,-1.1558,-1.1558,-1.1409,-1.1186,-1.0812,-1.0738,-1.0576,-1.0265,-1.0265,-0.989,-0.9372,-0.9372,-0.8998,-0.8475,-0.8097,-0.7949,-0.7795,-0.7484,-0.6945,-0.6483,-0.6483,-0.6483,-0.6297,-0.5544,-0.5549,-0.5806,-0.5525,-0.4767,-0.4018,-0.368,-0.3544,-0.3549,-0.3418,-0.3353,-0.3084,-0.2281,-0.2013,-0.1745,-0.1075,-0.0941,-0.0536,0.0399,0.0668,0.1071,0.2056,0.2268,0.228,0.228,0.2347,0.242,0.2294,0.2958,0.3629,0.4198,0.5841,0.7086,0.7674,0.9737,1.0673,1.0227,1.1313,1.2123,1.2423,1.2848,1.2861,1.2621,1.2621,1.2774,1.3171,1.3171,1.3537,1.4188,1.4188,1.4292,1.4425,1.4425,1.4353,1.4201,1.4201,1.4129,1.4129,1.4129,1.4,1.3797,-1.804,-1.804,-1.804,-1.804,-1.6843,-1.588,-1.588,-1.4766,-1.3825,-1.3825,-1.3825,-1.3825,-1.3825,-1.3825,-1.3857,-1.3895,-1.3843,-1.4405,-1.5672,-1.5125,-1.4752,-1.4752,-1.3962,-1.331,-1.2886,-1.2291,-1.1996,-1.1929,-1.1855,-1.1855,-1.1855,-1.1186,-1.0962,-1.0887,-1.0067,-0.962,-0.9544,-0.9236,-0.9003,-0.9003,-0.9003,-0.8699,-0.8327,-0.8327,-0.8097,-0.7714,-0.7638,-0.7253,-0.6795,-0.6795,-0.6325,-0.5777,-0.5777,-0.5777,-0.5597,-0.5005,-0.4515,-0.4324,-0.4546,-0.3886,-0.308,-0.3011,-0.2948,-0.2818,-0.2818,-0.2549,-0.2281,-0.2147,-0.1679,-0.1075,-0.0538,-0.0134,0.0265,0.0818,0.1366,0.1913,0.27,0.2927,0.3015,0.3015,0.3556,0.3727,0.3255,0.3743,0.4447,0.5281,0.6248,0.7211,0.8229,1.049,1.1898,1.206,1.2427,1.2719,1.297,1.2759,1.2677,1.2621,1.2621,1.2893,1.3505,1.3505,1.3894,1.4482,1.4482,1.4522,1.4569,1.4569,1.4569,1.4497,1.4497,1.4425,1.4353,1.4353,1.4145,1.379,-1.804,-1.804,-1.787,-1.7367,-1.6516,-1.5779,-1.5293,-1.4513,-1.3914,-1.3914,-1.3914,-1.3914,-1.3755,-1.3748,-1.3653,-1.3558,-1.3565,-1.3899,-1.4591,-1.4268,-1.4118,-1.4193,-1.3358,-1.2526,-1.1639,-1.1476,-1.1332,-1.1186,-1.1186,-1.1186,-1.1186,-1.0368,-0.9992,-0.9997,-0.9316,-0.8861,-0.8637,-0.8479,-0.825,-0.8093,-0.8093,-0.7944,-0.7791,-0.7791,-0.7638,-0.7484,-0.7099,-0.6868,-0.6563,-0.617,-0.5625,-0.5085,-0.4846,-0.4768,-0.46,-0.3782,-0.3487,-0.3323,-0.2962,-0.2575,-0.2147,-0.1946,-0.1879,-0.1813,-0.1813,-0.1679,-0.1545,-0.1412,-0.0807,-0.0269,0.0067,0.0604,0.1263,0.1942,0.2306,0.279,0.3563,0.3762,0.3845,0.3898,0.4455,0.4783,0.4621,0.5145,0.5794,0.6429,0.7371,0.8203,0.9026,1.1206,1.2532,1.2748,1.3207,1.3341,1.3092,1.2933,1.275,1.2629,1.2758,1.3108,1.3584,1.3783,1.4148,1.4569,1.4569,1.4856,1.5275,1.5275,1.548,1.5824,1.5409,1.5204,1.5133,1.4641,1.4361,1.4175,-1.7708,-1.7708,-1.7456,-1.678,-1.609,-1.5305,-1.4662,-1.4085,-1.3653,-1.3653,-1.3653,-1.3488,-1.3324,-1.3245,-1.3193,-1.3101,-1.3101,-1.3054,-1.3126,-1.3126,-1.3227,-1.356,-1.2713,-1.1704,-1.0686,-1.087,-1.0847,-1.0588,-1.0588,-1.0588,-1.0594,-0.9695,-0.9322,-0.9246,-0.8784,-0.8403,-0.8102,-0.8025,-0.7791,-0.7484,-0.7484,-0.7484,-0.7484,-0.733,-0.7253,-0.7176,-0.656,-0.6251,-0.6096,-0.5547,-0.5007,-0.4387,-0.3992,-0.3837,-0.368,-0.2666,-0.2464,-0.2451,-0.1764,-0.1547,-0.1412,-0.1008,-0.0941,-0.0874,-0.0739,-0.0739,-0.0672,-0.0539,-0.0067,0.047,0.0739,0.1342,0.207,0.2963,0.3191,0.3538,0.409,0.4287,0.4439,0.4668,0.5123,0.555,0.5833,0.6255,0.6769,0.7351,0.8248,0.9134,0.9851,1.1806,1.3046,1.3258,1.38,1.3823,1.3211,1.3132,1.2957,1.2687,1.2957,1.3306,1.3711,1.3989,1.4307,1.4569,1.4569,1.5062,1.5833,1.5833,1.6245,1.6862,1.6245,1.6035,1.5965,1.5196,1.4832,1.48,-1.6944,-1.678,-1.678,-1.6698,-1.5116,-1.3865,-1.3784,-1.265,-1.176,-1.176,-1.1594,-1.1433,-1.1433,-1.1433,-1.1445,-1.1432,-1.1449,-1.155,-1.1798,-1.1638,-1.1758,-1.2466,-1.1564,-1.0817,-1.035,-1.0361,-1.0247,-0.9997,-0.9997,-0.9997,-0.9992,-0.9473,-0.9322,-0.9246,-0.8484,-0.8102,-0.8102,-0.7714,-0.7561,-0.7484,-0.7484,-0.7484,-0.7407,-0.6868,-0.6641,-0.656,-0.5935,-0.5315,-0.4854,-0.4776,-0.4387,-0.3763,-0.3295,-0.3141,-0.2982,-0.2195,-0.1665,-0.1365,-0.1569,-0.1345,-0.1008,-0.047,-0.0336,-0.0202,0.0269,0.0403,0.0403,0.0403,0.047,0.0739,0.161,0.2079,0.2573,0.3252,0.3831,0.4156,0.3931,0.4246,0.4668,0.5237,0.5486,0.5837,0.6578,0.6538,0.6868,0.7715,0.8407,0.9348,1.0622,1.207,1.3404,1.4425,1.4229,1.3934,1.3553,1.3243,1.3076,1.3052,1.3076,1.3441,1.4069,1.4101,1.4307,1.4569,1.4569,1.5062,1.5833,1.5833,1.6245,1.6862,1.6862,1.6793,1.6724,1.5974,1.5762,1.5846,-1.5966,-1.5884,-1.5711,-1.5123,-1.4282,-1.3554,-1.2968,-1.2308,-1.1836,-1.1836,-1.1752,-1.1668,-1.15,-1.15,-1.1449,-1.1288,-1.1294,-1.1337,-1.1435,-1.1354,-1.1368,-1.1512,-1.1322,-1.0979,-1.0514,-1.0649,-1.0606,-1.0363,-1.0223,-0.9993,-0.9751,-0.9224,-0.8616,-0.8034,-0.7964,-0.7715,-0.7412,-0.7247,-0.7167,-0.7167,-0.6683,-0.6468,-0.6383,-0.6228,-0.6015,-0.5857,-0.524,-0.4696,-0.4226,-0.3843,-0.3372,-0.2902,-0.251,-0.2353,-0.2268,-0.1618,-0.1123,-0.0723,-0.0766,-0.0681,-0.0538,-0.0336,-0.0067,0.0269,0.047,0.047,0.0605,0.0941,0.1344,0.1879,0.2547,0.3153,0.3668,0.3918,0.4175,0.44,0.4619,0.4876,0.5269,0.592,0.6493,0.695,0.7354,0.7917,0.8529,0.92,0.9963,1.0769,1.1681,1.2806,1.384,1.4569,1.4506,1.4268,1.391,1.337,1.3195,1.3394,1.3852,1.4305,1.4788,1.5498,1.5896,1.6035,1.6035,1.6175,1.6524,1.7001,1.7345,1.7579,1.7916,1.8021,1.798,1.7451,1.7342,1.7282,-1.505,-1.5028,-1.4775,-1.4005,-1.3515,-1.2954,-1.2369,-1.2037,-1.1871,-1.1871,-1.1871,-1.1699,-1.1613,-1.1613,-1.1527,-1.1354,-1.1262,-1.1262,-1.1262,-1.1262,-1.1273,-1.1106,-1.1262,-1.116,-1.0756,-1.0902,-1.0869,-1.0638,-1.0317,-1.0,-0.9751,-0.8806,-0.8023,-0.7423,-0.727,-0.7008,-0.6692,-0.6692,-0.6692,-0.6609,-0.6114,-0.5894,-0.581,-0.5647,-0.5347,-0.5113,-0.4482,-0.4004,-0.3519,-0.3102,-0.2777,-0.2456,-0.2044,-0.1647,-0.1327,-0.0991,-0.052,-0.0072,0.0,0.0069,0.0202,0.0202,0.047,0.0806,0.1141,0.1209,0.1344,0.1814,0.2284,0.2818,0.3284,0.3825,0.4164,0.43,0.4465,0.4757,0.5158,0.5527,0.604,0.6725,0.7327,0.7789,0.8228,0.8861,0.9544,1.0051,1.0881,1.1774,1.2718,1.3608,1.4201,1.4569,1.4856,1.4925,1.4787,1.4261,1.4081,1.4318,1.505,1.5516,1.5771,1.6528,1.6932,1.6932,1.6932,1.7001,1.7276,1.7755,1.8251,1.8624,1.8924,1.9124,1.9213,1.8695,1.8665,1.8667,-1.4361,-1.4128,-1.4041,-1.3767,-1.2793,-1.1957,-1.1957,-1.1871,-1.1699,-1.1699,-1.144,-1.1262,-1.1262,-1.1262,-1.1262,-1.1262,-1.1262,-1.1262,-1.1262,-1.1262,-1.1262,-1.1262,-1.1262,-1.1235,-1.0993,-1.0988,-1.0875,-1.0557,-1.0151,-0.9907,-0.9826,-0.8345,-0.7604,-0.7522,-0.6363,-0.5865,-0.5868,-0.5868,-0.5868,-0.5868,-0.5868,-0.5868,-0.5782,-0.5196,-0.4613,-0.4112,-0.3526,-0.3025,-0.2599,-0.2623,-0.2602,-0.251,-0.2055,-0.1177,-0.0313,-0.0305,0.0149,0.058,0.0635,0.0961,0.1277,0.1277,0.1277,0.1546,0.2485,0.2686,0.282,0.3159,0.3226,0.336,0.3758,0.3825,0.3894,0.4233,0.4944,0.5375,0.5448,0.6194,0.6908,0.7573,0.7744,0.8169,0.9246,0.9322,0.9473,0.9846,1.0887,1.2144,1.3688,1.4274,1.4569,1.4641,1.5417,1.6014,1.6392,1.6076,1.5895,1.5833,1.6645,1.6991,1.6941,1.6932,1.6932,1.6932,1.6932,1.7345,1.7969,1.8037,1.8713,1.9758,1.9768,2.0038,2.0278,1.962,1.9541,1.9847,-1.3483,-1.3285,-1.3099,-1.3009,-1.2454,-1.2031,-1.2031,-1.163,-1.144,-1.144,-1.1354,-1.1262,-1.1262,-1.1262,-1.1262,-1.1262,-1.1262,-1.1262,-1.1262,-1.1262,-1.0997,-1.0386,-1.0916,-1.123,-1.1241,-1.0545,-1.0167,-1.0103,-0.9017,-0.8275,-0.8018,-0.7231,-0.6489,-0.5829,-0.5999,-0.5878,-0.5531,-0.5531,-0.5354,-0.4913,-0.448,-0.4008,-0.3612,-0.344,-0.3238,-0.3025,-0.2859,-0.2522,-0.2184,-0.2169,-0.1998,-0.1582,-0.099,-0.0571,-0.0241,0.0239,0.0764,0.1237,0.1442,0.1741,0.1817,0.1412,0.1614,0.2084,0.2552,0.2686,0.2887,0.3491,0.3892,0.4292,0.4622,0.5024,0.5292,0.5425,0.5755,0.6062,0.6478,0.6985,0.7647,0.846,0.8726,0.9089,0.9695,0.9992,1.0368,1.0887,1.2285,1.3462,1.4346,1.4489,1.4961,1.585,1.6076,1.6823,1.8094,1.7125,1.6781,1.6991,1.7536,1.7745,1.7687,1.824,1.8452,1.8452,1.8452,1.824,1.8037,1.8586,1.8667,1.8634,1.9766,2.0307,2.0432,2.0923,2.109,2.1136,-1.3044,-1.2842,-1.2716,-1.2517,-1.2125,-1.1844,-1.1751,-1.144,-1.1262,-1.1262,-1.1262,-1.1262,-1.1262,-1.1262,-1.1262,-1.1262,-1.1262,-1.1262,-1.1262,-1.0911,-1.0472,-0.9946,-1.012,-1.0207,-1.0207,-0.9598,-0.9331,-0.924,-0.817,-0.7512,-0.7163,-0.6389,-0.5798,-0.5267,-0.5349,-0.53,-0.4924,-0.4924,-0.4654,-0.4206,-0.3764,-0.3293,-0.2816,-0.2816,-0.2444,-0.2072,-0.2331,-0.1985,-0.1379,-0.1367,-0.0932,-0.0421,0.0,0.025,0.0494,0.0988,0.1429,0.1901,0.2106,0.2331,0.2388,0.1992,0.2169,0.2554,0.3288,0.3422,0.3687,0.4489,0.4891,0.5176,0.5497,0.578,0.6075,0.6139,0.6495,0.6958,0.739,0.7943,0.851,0.9257,0.9461,0.9695,1.0067,1.0594,1.1254,1.2291,1.3244,1.4049,1.4569,1.4569,1.5145,1.6375,1.6674,1.7633,1.9288,1.8822,1.8475,1.8203,1.8734,1.8783,1.8442,1.8931,1.9075,1.9075,1.9075,1.8865,1.8462,1.9127,1.9233,1.9043,2.0196,2.0803,2.1041,2.16,2.1807,2.1721,-1.2869,-1.2825,-1.2653,-1.2216,-1.1887,-1.1655,-1.1418,-1.1278,-1.1262,-1.1262,-1.1262,-1.1262,-1.1262,-1.1262,-1.1262,-1.1262,-1.1262,-1.1262,-1.1176,-1.0386,-0.9859,-0.968,-0.8807,-0.8281,-0.8189,-0.8281,-0.8277,-0.8002,-0.7482,-0.7129,-0.6861,-0.5808,-0.5282,-0.5282,-0.4567,-0.43,-0.43,-0.43,-0.4032,-0.3497,-0.3497,-0.3227,-0.2777,-0.2777,-0.2061,-0.1166,-0.1794,-0.1256,-0.0268,-0.0263,0.0258,0.076,0.0845,0.1266,0.1686,0.177,0.2155,0.2589,0.2684,0.2852,0.3065,0.3128,0.3031,0.3307,0.4361,0.4634,0.4909,0.5778,0.5988,0.6112,0.6257,0.6356,0.6406,0.6639,0.724,0.7799,0.8171,0.8876,0.9549,0.9922,1.0067,1.0218,1.0663,1.1186,1.2144,1.3688,1.3833,1.4065,1.4609,1.4689,1.5355,1.6551,1.7352,1.8521,2.0167,2.0754,2.051,1.933,2.0063,1.9944,1.9075,1.9075,1.9075,1.9075,1.9075,1.9075,1.9106,1.964,2.0006,2.041,2.0917,2.1373,2.1745,2.1787,2.1807,2.1807,-1.308,-1.2882,-1.271,-1.2377,-1.2134,-1.1892,-1.1661,-1.1467,-1.1262,-1.1262,-1.1262,-1.1262,-1.1262,-1.1262,-1.1262,-1.1262,-1.1262,-1.1003,-1.0207,-1.0033,-0.9244,-0.7753,-0.7397,-0.6779,-0.608,-0.6782,-0.7037,-0.6766,-0.5805,-0.528,-0.5188,-0.4746,-0.4567,-0.4567,-0.4387,-0.43,-0.43,-0.43,-0.3851,-0.3047,-0.3047,-0.251,-0.1704,-0.1704,-0.1256,-0.0538,-0.0718,-0.0269,0.0448,0.0446,0.0622,0.0796,0.1416,0.1662,0.1812,0.2417,0.2603,0.2829,0.3704,0.3844,0.4043,0.5215,0.5364,0.5145,0.4736,0.5042,0.5597,0.6075,0.6594,0.6983,0.702,0.7381,0.7676,0.7721,0.8042,0.8249,0.8328,0.9175,0.9992,1.0519,1.1186,1.1781,1.2305,1.2526,1.2893,1.376,1.3833,1.4172,1.5054,1.5698,1.672,1.8252,1.9014,2.0098,2.1415,2.1215,2.0813,2.0135,2.0349,1.9944,1.9075,1.9075,1.9075,1.9075,1.9075,1.9075,1.9106,1.964,1.982,1.9986,2.0803,2.1176,2.1311,2.1673,2.1807,2.1807,-1.2958,-1.2861,-1.2657,-1.2301,-1.2134,-1.193,-1.1585,-1.1429,-1.1262,-1.1262,-1.1262,-1.1262,-1.1262,-1.1262,-1.1089,-1.0646,-1.0646,-1.0207,-0.9331,-0.8715,-0.8009,-0.6959,-0.6337,-0.563,-0.5104,-0.5544,-0.5719,-0.5628,-0.5013,-0.4659,-0.448,-0.4389,-0.43,-0.43,-0.43,-0.43,-0.43,-0.43,-0.3762,-0.2867,-0.2867,-0.2151,-0.0897,-0.0897,-0.0269,0.0628,0.0269,0.0628,0.1256,0.1256,0.1436,0.1794,0.2243,0.2316,0.2384,0.2738,0.2954,0.3308,0.4222,0.4646,0.5121,0.6169,0.6656,0.666,0.6051,0.6183,0.6592,0.7011,0.7443,0.7686,0.7785,0.8092,0.8264,0.8359,0.8768,0.9219,0.9511,1.0358,1.1111,1.1706,1.215,1.2673,1.3258,1.3331,1.3616,1.444,1.4798,1.5316,1.5997,1.6807,1.7888,1.9345,1.9742,2.0562,2.1807,2.1342,2.0886,2.042,2.0213,1.9748,1.9075,1.9075,1.9075,1.9075,1.9075,1.9199,1.9505,1.9893,2.0203,2.0472,2.1176,2.1445,2.1476,2.1714,2.1807,2.1807,-1.2764,-1.2732,-1.2565,-1.2124,-1.2016,-1.1844,-1.1326,-1.1262,-1.1262,-1.1262,-1.1262,-1.1262,-1.1262,-1.1176,-1.0738,-0.9946,-0.9772,-0.9244,-0.8281,-0.7309,-0.6691,-0.6602,-0.5542,-0.4835,-0.4661,-0.4661,-0.4659,-0.4659,-0.4659,-0.448,-0.43,-0.43,-0.43,-0.43,-0.43,-0.43,-0.43,-0.43,-0.3673,-0.2688,-0.2688,-0.1702,-0.0179,-0.0179,0.0628,0.1705,0.1076,0.1345,0.1974,0.1974,0.2424,0.2875,0.2875,0.2875,0.2875,0.2963,0.3409,0.3924,0.4701,0.5537,0.6339,0.6975,0.7596,0.7953,0.7712,0.759,0.7695,0.8159,0.824,0.8297,0.8477,0.8481,0.8505,0.8675,0.9236,0.9927,1.0645,1.1471,1.2243,1.3047,1.3276,1.3572,1.4071,1.4144,1.4421,1.5245,1.6054,1.665,1.7046,1.8024,1.8957,2.0066,2.0236,2.0803,2.1807,2.1342,2.0886,2.042,1.9975,1.9588,1.9075,1.9075,1.9075,1.9075,1.9075,1.9292,1.9754,2.0203,2.0648,2.1052,2.159,2.1807,2.1807,2.1807,2.1807,2.1807,-1.2764,-1.2603,-1.2371,-1.2097,-1.1881,-1.1655,-1.1392,-1.1262,-1.1262,-1.1262,-1.1262,-1.1262,-1.1262,-1.0564,-1.0033,-0.9946,-0.9157,-0.8281,-0.7316,-0.6956,-0.6428,-0.5636,-0.5015,-0.475,-0.4661,-0.448,-0.4389,-0.4389,-0.4389,-0.43,-0.43,-0.43,-0.43,-0.43,-0.43,-0.43,-0.43,-0.43,-0.3401,-0.197,-0.197,-0.0985,0.0538,0.0538,0.1076,0.1794,0.1705,0.2154,0.2784,0.2784,0.2784,0.2875,0.2875,0.2875,0.2963,0.3409,0.3941,0.4714,0.5907,0.6905,0.7801,0.8522,0.8855,0.9062,0.9006,0.8801,0.8595,0.8855,0.8897,0.8907,0.8935,0.8789,0.867,0.8699,0.878,0.9296,1.0561,1.1431,1.2446,1.3874,1.4766,1.5378,1.5454,1.5454,1.5478,1.561,1.6439,1.7054,1.7415,1.8891,1.9924,2.0439,2.1161,2.1659,2.1807,2.1342,2.0886,2.042,1.9975,1.9588,1.9075,1.9075,1.9075,1.9075,1.9075,1.9106,1.923,2.0079,2.0462,2.0607,2.1466,2.1807,2.1807,2.1807,2.1807,2.1807,-1.2764,-1.2576,-1.2339,-1.2183,-1.1855,-1.1623,-1.13,-1.1262,-1.1262,-1.1262,-1.0824,-1.0559,-1.0559,-0.9685,-0.8894,-0.8368,-0.7837,-0.7132,-0.6254,-0.5811,-0.5455,-0.5015,-0.4659,-0.448,-0.448,-0.4389,-0.43,-0.43,-0.43,-0.43,-0.43,-0.43,-0.43,-0.4297,-0.3762,-0.3494,-0.3494,-0.2953,-0.2058,-0.0986,-0.0986,-0.009,0.1345,0.1345,0.1794,0.2424,0.2424,0.2604,0.2875,0.2875,0.2875,0.2875,0.2875,0.2875,0.3053,0.3941,0.4561,0.5435,0.7041,0.7982,0.8664,0.9356,0.9503,0.953,0.9649,0.9445,0.9223,0.9195,0.919,0.919,0.919,0.9115,0.9048,0.9048,0.9439,1.0168,1.1522,1.2408,1.3402,1.4879,1.5443,1.5674,1.5674,1.5674,1.5984,1.6635,1.7508,1.8366,1.9136,2.033,2.105,2.1242,2.1568,2.1807,2.1807,2.1342,2.0886,2.042,1.9975,1.9588,1.9075,1.9075,1.9075,1.9075,1.9075,1.9287,1.951,2.0151,2.0576,2.0876,2.1549,2.1807,2.1807,2.1807,2.1807,2.1807]},{"header":{"parameterUnit":"m.s-1","parameterCategory":1,"la1":30.6,"la2":28.766,"lo1":-90.7593,"lo2":-88.6598,"dx":0.0162,"dy":0.0183,"nx":116,"ny":114,"refTime":"2023-01-09T06:00:00:Z","depth":0,"parameterNumber":3,"parameterNumberName":"V-component_of_WINDS"},"data":[0.0,0.0,0.0,0.0,0.0,0.0,0.0,0.0,0.0,0.0,0.0,0.0,0.0,0.0,0.0,0.0,0.0,0.0,0.0,0.0,0.0,0.0,0.0,0.0,0.0,0.0,0.0,0.0,0.0,0.0,0.0,0.0,0.0,0.0,0.0,0.0,0.0,0.0,0.0,0.0,0.0,0.0,0.0,0.0,0.0,0.0,0.0,0.0,0.0,0.0,0.0,0.0,0.0,0.0,0.0,0.0,0.0,0.0,0.0,0.0,0.0,0.0,0.0,0.0,0.0,0.0,0.0,0.0,0.0,0.0,0.0,0.0,0.0,0.0,0.0,0.0,0.0,0.0,0.0,0.0,0.0,0.0,0.0,0.0,0.0,0.0,0.0,0.0,0.0,0.0,0.0,0.0,0.0,0.0,0.0,0.0,0.0,0.0,0.0,0.0,0.0,0.0,0.0,0.0,0.0,0.0,0.0,0.0,0.0,0.0,0.0,0.0,0.0,0.0,0.0,0.0,0.0,0.0,0.0,0.0,0.0,0.0,0.0,0.0,0.0,0.0,0.0,0.0,0.0,0.0,0.0,0.0,0.0,0.0,0.0,0.0,0.0,0.0,0.0,0.0,0.0,0.0,0.0,0.0,0.0,0.0,0.0,0.0,0.0,0.0,0.0,0.0,0.0,0.0,0.0,0.0,0.0,0.0,0.0,0.0,0.0,0.0,0.0,0.0,0.0,0.0,0.0,0.0,0.0,0.0,0.0,0.0,0.0,0.0,0.0,0.0,0.0,0.0,0.0,0.0,0.0,0.0,0.0,0.0,0.0,0.0,0.0,0.0,0.0,0.0,0.0,0.0,0.0,0.0,0.0,0.0,0.0,0.0,0.0,0.0,0.0,0.0,0.0,0.0,0.0,0.0,0.0,0.0,0.0,0.0,0.0,0.0,0.0,0.0,0.0,0.0,0.0,0.0,0.0,0.0,0.0,0.0,0.0,0.0,0.0,0.0,0.0,0.0,0.0,0.0,0.0,0.0,0.0,0.0,0.0,0.0,0.0,0.0,0.0,0.0,0.0,0.0,0.0,0.0,0.0,0.0,0.0,0.0,0.0,0.0,0.0,0.0,0.0,0.0,0.0,0.0,0.0,0.0,0.0,0.0,0.0,0.0,0.0,0.0,0.0,0.0,0.0,0.0,0.0,0.0,0.0,0.0,0.0,0.0,0.0,0.0,0.0,0.0,0.0,0.0,0.0,0.0,0.0,0.0,0.0,0.0,0.0,0.0,0.0,0.0,0.0,0.0,0.0,0.0,0.0,0.0,0.0,0.0,0.0,0.0,0.0,0.0,0.0,0.0,0.0,0.0,0.0,0.0,0.0,0.0,0.0,0.0,0.0,0.0,0.0,0.0,0.0,0.0,0.0,0.0,0.0,0.0,0.0,0.0,0.0,0.0,0.0,0.0,0.0,0.0,0.0,0.0,0.0,0.0,0.0,0.0,0.0,0.0,0.0,0.0,0.0,0.0,0.0,0.0,0.0,0.0,0.0,0.0,0.0,0.0,0.0,0.0,0.0,0.0,0.0,0.0,0.0,0.0,0.0,0.0,0.0,0.0,0.0,0.0,0.0,0.0,0.0,0.0,0.0,0.0,0.0,0.0,0.0,0.0,0.0,0.0,0.0,0.0,0.0,0.0,0.0,0.0,0.0,0.0,0.0,0.0,0.0,0.0,0.0,0.0,0.0,0.0,0.0,0.0,0.0,0.0,0.0,0.0,0.0,0.0,0.0,0.0,0.0,0.0,0.0,0.0,0.0,0.0,0.0,0.0,0.0,0.0,0.0,0.0,0.0,0.0,0.0,0.0,0.0,0.0,0.0,0.0,0.0,0.0,0.0,0.0,0.0,0.0,0.0,0.0,0.0,0.0,0.0,0.0,0.0,0.0,0.0,0.0,0.0,0.0,0.0,0.0,0.0,0.0,0.0,0.0,0.0,0.0,0.0,0.0,0.0,0.0,0.0,0.0,0.0,0.0,0.0,0.0,0.0,0.0,0.0,0.0,0.0,0.0,0.0,0.0,0.0,0.0,0.0,0.0,0.0,0.0,0.0,0.0,0.0,0.0,0.0,0.0,0.0,0.0,0.0,0.0,0.0,0.0,0.0,0.0,0.0,0.0,0.0,0.0,0.0,0.0,0.0,0.0,0.0,0.0,0.0,0.0,0.0,0.0,0.0,0.0,0.0,0.0,0.0,0.0,0.0,0.0,0.0,0.0,0.0,0.0,0.0,0.0,0.0,0.0,0.0,0.0,0.0,0.0,0.0,0.0,0.0,0.0,0.0,0.0,0.0,0.0,0.0,0.0,0.0,0.0,0.0,0.0,0.0,0.0,0.0,0.0,0.0,0.0,0.0,0.0,0.0,0.0,0.0,0.0,0.0,0.0,0.0,0.0,0.0,0.0,0.0,0.0,0.0,0.0,0.0,0.0,0.0,0.0,0.0,0.0,0.0,0.0,0.0,0.0,0.0,0.0,0.0,0.0,0.0,0.0,0.0,0.0,0.0,0.0,0.0,0.0,0.0,0.0,0.0,0.0,0.0,0.0,0.0,0.0,0.0,0.0,0.0,0.0,0.0,0.0,0.0,0.0,0.0,0.0,0.0,0.0,0.0,0.0,0.0,0.0,0.0,0.0,0.0,0.0,0.0,0.0,0.0,0.0,0.0,0.0,0.0,0.0,0.0,0.0,0.0,0.0,0.0,0.0,0.0,0.0,0.0,0.0,0.0,0.0,0.0,0.0,0.0,0.0,0.0,0.0,0.0,0.0,0.0,0.0,0.0,0.0,0.0,0.0,0.0,0.0,0.0,0.0,0.0,0.0,0.0,0.0,0.0,0.0,0.0,0.0,0.0,0.0,0.0,0.0,0.0,0.0,0.0,0.0,0.0,0.0,0.0,0.0,0.0,0.0,0.0,0.0,0.0,0.0,0.0,0.0,0.0,0.0,0.0,0.0,0.0,0.0,0.0,0.0,0.0,0.0,0.0,0.0,0.0,0.0,0.0,0.0,0.0,0.0,0.0,0.0,0.0,0.0,0.0,0.0,0.0,0.0,0.0,0.0,0.0,0.0,0.0,0.0,0.0,0.0,0.0,0.0,0.0,0.0,0.0,0.0,0.0,0.0,0.0,0.0,0.0,0.0,0.0,0.0,0.0,0.0,0.0,0.0,0.0,0.0,0.0,0.0,0.0,0.0,0.0,0.0,0.0,0.0,0.0,0.0,0.0,0.0,0.0,0.0,0.0,0.0,0.0,0.0,0.0,0.0,0.0,0.0,0.0,0.0,0.0,0.0,0.0,0.0,0.0,0.0,0.0,0.0,0.0,0.0,0.0,0.0,0.0,0.0,0.0,0.0,0.0,0.0,0.0,0.0,0.0,0.0,0.0,0.0,0.0,0.0,0.0,0.0,0.0,0.0,0.0,0.0,0.0,0.0,0.0,0.0,0.0,0.0,0.0,0.0,0.0,0.0,0.0,0.0,0.0,0.0,0.0,0.0,0.0,0.0,0.0,0.0,0.0,0.0,0.0,0.0,0.0,0.0,0.0,0.0,0.0,0.0,0.0,0.0,0.0,0.0,0.0,0.0,0.0,0.0,0.0,0.0,0.0,0.0,0.0,0.0,0.0,0.0,0.0,0.0,0.0,0.0,0.0,0.0,0.0,0.0,0.0,0.0,0.0,0.0,0.0,0.0,0.0,0.0,0.0,0.0,0.0,0.0,0.0,0.0,0.0,0.0,0.0,0.0,0.0,0.0,0.0,0.0,0.0,0.0,0.0,0.0,0.0,0.0,0.0,0.0,0.0,0.0,0.0,0.0,0.0,0.0,0.0,0.0,0.0,0.0,0.0,0.0,0.0,0.0,0.0,0.0,0.0,0.0,0.0,0.0,0.0,0.0,0.0,0.0,0.0,0.0,0.0,0.0,0.0,0.0,0.0,0.0,0.0,0.0,0.0,0.0,0.0,0.0,0.0,0.0,0.0,0.0,0.0,0.0,0.0,0.0,0.0,0.0,0.0,0.0,0.0,0.0,0.0,0.0,0.0,0.0,0.0,0.0,0.0,0.0,0.0,0.0,0.0,0.0,0.0,0.0,0.0,0.0,0.0,0.0,0.0,0.0,0.0,0.0,0.0,0.0,0.0,0.0,0.0,0.0,0.0,0.0,0.0,0.0,0.0,0.0,0.0,0.0,0.0,0.0,0.0,0.0,0.0,0.0,0.0,0.0,0.0,0.0,0.0,0.0,0.0,0.0,0.0,0.0,0.0,0.0,0.0,0.0,0.0,0.0,0.0,0.0,0.0,0.0,0.0,0.0,0.0,0.0,0.0,0.0,0.0,0.0,0.0,0.0,0.0,0.0,0.0,0.0,0.0,0.0,0.0,0.0,0.0,0.0,0.0,0.0,0.0,0.0,0.0,0.0,0.0,0.0,0.0,0.0,0.0,0.0,0.0,0.0,0.0,0.0,0.0,0.0,0.0,0.0,0.0,0.0,0.0,0.0,0.0,0.0,0.0,0.0,0.0,0.0,0.0,0.0,0.0,0.0,0.0,0.0,0.0,0.0,0.0,0.0,0.0,0.0,0.0,0.0,0.0,0.0,0.0,0.0,0.0,0.0,0.0,0.0,0.0,0.0,0.0,0.0,0.0,0.0,0.0,0.0,0.0,0.0,0.0,0.0,0.0,0.0,0.0,0.0,0.0,0.0,0.0,0.0,0.0,0.0,0.0,0.0,0.0,0.0,0.0,0.0,0.0,0.0,0.0,0.0,0.0,0.0,0.0,0.0,0.0,0.0,0.0,0.0,0.0,0.0,0.0,0.0,0.0,0.0,0.0,0.0,0.0,0.0,0.0,0.0,0.0,0.0,0.0,0.0,0.0,0.0,0.0,0.0,0.0,0.0,0.0,0.0,0.0,0.0,0.0,0.0,0.0,0.0,0.0,0.0,0.0,0.0,0.0,0.0,0.0,0.0,0.0,0.0,0.0,0.0,0.0,0.0,0.0,0.0,0.0,0.0,0.0,0.0,0.0,0.0,0.0,0.0,0.0,0.0,0.0,0.0,0.0,0.0,0.0,0.0,0.0,0.0,0.0,0.0,0.0,0.0,0.0,0.0,0.0,0.0,0.0,0.0,0.0,0.0,0.0,0.0,0.0,0.0,0.0,0.0,0.0,0.0,0.0,0.0,0.0,0.0,0.0,0.0,0.0,0.0,0.0,0.0,0.0,0.0,0.0,0.0,0.0,0.0,0.0,0.0,0.0,0.0,0.0,0.0,0.0,0.0,0.0,0.0,0.0,0.0,0.0,0.0,0.0,0.0,0.0,0.0,0.0,0.0,0.0,0.0,0.0,0.0,0.0,0.0,0.0,0.0,0.0,0.0,0.0,0.0,0.0,0.0,0.0,0.0,0.0,0.0,0.0,0.0,0.0,0.0,0.0,0.0,0.0,0.0,0.0,0.0,0.0,0.0,0.0,0.0,0.0,0.0,0.0,0.0,0.0,0.0,0.0,0.0,0.0,0.0,0.0,0.0,0.0,0.0,0.0,0.0,0.0,0.0,0.0,0.0,0.0,0.0,0.0,0.0,0.0,0.0,0.0,0.0,0.0,0.0,0.0,0.0,0.0,0.0,0.0,0.0,0.0,0.0,0.0,0.0,0.0,0.0,0.0,0.0,0.0,0.0,0.0,0.0,0.0,0.0,0.0,0.0,0.0,0.0,0.0,0.0,0.0,0.0,0.0,0.0,0.0,0.0,0.0,0.0,0.0,0.0,0.0,0.0,0.0,0.0,0.0,0.0,0.0,0.0,0.0,0.0,0.0,0.0,0.0,0.0,0.0,0.0,0.0,0.0,0.0,0.0,0.0,0.0,0.0,0.0,0.0,0.0,0.0,0.0,0.0,0.0,0.0,0.0,0.0,0.0,0.0,0.0,0.0,0.0,0.0,0.0,0.0,0.0,0.0,0.0,0.0,0.0,0.0,0.0,0.0,0.0,0.0,0.0,0.0,0.0,0.0,0.0,0.0,0.0,0.0,0.0,0.0,0.0,0.0,0.0,0.0,0.0,0.0,0.0,0.0,0.0,-1.0208,0.0,0.0,0.0,0.0,0.0,0.0,0.0,0.0,0.0,0.0,0.0,0.0,0.0,0.0,0.0,0.0,0.0,0.0,0.0,0.0,0.0,0.0,0.0,0.0,0.0,0.0,0.0,0.0,0.0,0.0,0.0,0.0,0.0,0.0,0.0,0.0,0.0,0.3978,0.3942,0.3869,0.3746,0.357,0.284,0.1869,0.0744,0.0,0.0,0.0,0.0,0.0,0.0,0.0,0.0,0.0,0.0,0.0,0.0,0.0,0.0,0.0,0.0,0.0,0.0,0.0,0.0,0.0,0.0,0.0,0.0,0.0,0.0,0.0,0.0,0.0,0.0,0.0,0.0,0.0,0.0,0.0,0.0,0.0,0.0,0.0,0.0,0.0,0.0,0.0,0.0,0.0,0.0,0.0,0.0,0.0,0.0,0.0,0.0,0.0,0.0,0.0,0.0,0.0,0.0,0.0,0.0,0.0,0.0,0.0,0.0,0.0,0.0,0.0,0.0,0.0,0.0,0.0,-0.9179,0.0,0.0,0.0,0.0,0.0,0.0,0.0,0.0,0.0,0.0,0.0,0.0,0.0,0.0,0.0,0.0,0.0,0.0,0.0,0.0,0.0,0.0,0.0,0.3436,0.3806,0.4539,0.4661,0.4961,0.0,0.0,0.0,0.0,0.0,0.0,0.0,0.4403,0.4576,0.4863,0.5316,0.5337,0.4958,0.4781,0.3831,0.2156,0.1045,0.0,0.0,0.0,0.0,0.0,0.0,0.0,0.0,0.0,0.0,0.0,0.0,0.0,0.0,0.0,0.0,0.0,0.0,0.0,0.0,0.0,0.0,0.0,0.0,0.0,0.0,0.0,0.0,0.0,0.0,0.0,0.0,0.0,0.0,0.0,0.0,0.0,0.0,0.0,0.0,0.0,0.0,0.0,0.0,0.0,0.0,0.0,0.0,0.0,0.0,0.0,0.0,0.0,0.0,0.0,0.0,0.0,0.0,0.0,0.0,0.0,0.0,0.0,-0.4362,-0.4901,-0.5561,-0.5633,-0.593,-0.6367,-0.6913,-0.7835,-0.8887,-0.8697,0.0,0.0,0.0,0.0,0.0,0.0,0.0,0.0,0.0,0.0,0.0,0.0,0.0,0.0,0.0,0.0,0.0,0.0,0.0,0.0,0.0,0.374,0.4156,0.4582,0.4961,0.5604,0.6537,0.0,0.0,0.0,0.0,0.0,0.599,0.6044,0.6304,0.6736,0.756,0.7779,0.7497,0.6742,0.618,0.5666,0.2815,0.1399,0.1228,0.0,0.0,0.0,0.0,0.0,0.0,0.0,0.0,0.0,0.0,0.0,0.0,0.0,0.0,0.0,0.0,0.0,0.0,0.0,0.0,0.0,0.0,0.0,0.0,0.0,0.0,0.0,0.0,0.0,0.0,0.0,0.0,0.0,0.0,0.0,0.0,0.0,0.0,0.0,0.0,0.0,0.0222,-0.0582,0.0,0.0,0.0,0.0,0.0,0.0,0.0,0.0,0.0,0.0,0.0,0.0,0.0,-0.11,-0.1103,-0.1488,-0.1718,-0.1718,-0.264,-0.3098,-0.3253,-0.3784,-0.409,-0.4162,-0.4817,0.0,-0.7275,-0.7875,0.0,0.0,0.0,0.0,0.0,0.0,0.0,0.0,0.0,0.0,0.0,0.0,0.0,0.0,0.0,0.0,0.0,0.0,0.0,0.0,0.0,0.4568,0.5096,0.5765,0.6457,0.702,0.7492,0.6894,0.0,0.0,0.0,0.6068,0.6413,0.6909,0.7839,0.9116,0.9366,0.9533,0.9486,0.887,0.8267,0.7641,0.5611,0.3928,0.2621,0.1954,0.0,0.0,0.0,0.0,0.0,0.0,0.0,0.0,0.0,0.0,0.0,0.0,0.0,0.0,0.0,0.0,0.0,0.0,0.0,0.0,0.0,0.0,0.0,0.0,0.0,0.0,0.0,0.0,0.0,0.0,0.0,0.0,0.0,0.0,0.0,0.0,0.0,0.0,0.0,0.1265,0.0677,0.0372,-0.0375,-0.0835,0.0,0.0,0.0,0.0,0.0,0.0,0.0,0.0,0.0,0.0548,0.094,0.0862,0.0235,0.0314,-0.0078,-0.0943,-0.1255,-0.1724,-0.2271,-0.2582,-0.2969,-0.3352,-0.3705,-0.4199,-0.49,-0.6215,-0.6881,-0.7229,0.0,0.0,0.0,0.0,-0.7914,-0.7233,0.0,0.0,0.0,0.0,0.0,0.0,0.0,0.0,0.0,0.0,0.0,0.0,0.4999,0.5624,0.6331,0.7108,0.7934,0.8502,0.8591,0.8206,0.792,0.7727,0.7036,0.673,0.6841,0.8072,0.9608,1.1464,1.1499,1.1585,1.1719,1.1251,1.049,0.9621,0.8443,0.663,0.4312,0.3522,0.2825,0.2225,0.0,0.0,0.0,0.0,0.0,0.0,0.0,0.0,0.0,0.0,0.0,0.0,0.0,0.0,0.0,0.0,0.0,0.0,0.0,0.0,0.0,0.0,0.0,0.0,0.0,0.0,0.0,0.0,0.0,0.0,0.0,0.0,0.0,0.0,0.0,0.0,0.0,0.2024,0.1516,0.169,0.0918,0.046,0.0,0.0,0.0,0.0,0.0,0.0,0.1955,0.211,0.2188,0.2344,0.2579,0.2268,0.1487,0.1567,0.1098,0.0,0.0,-0.0471,-0.1255,-0.1255,-0.1566,-0.2188,-0.2344,-0.2422,-0.2571,-0.435,-0.5292,-0.5758,-0.5899,-0.623,-0.6549,-0.6659,-0.6183,-0.5482,0.0,0.0,0.0,0.0,0.0,0.0,0.0,0.0,0.0,0.0,0.0,0.5248,0.5699,0.6917,0.7785,0.8103,0.9082,0.9779,0.9888,0.8813,0.8327,0.8618,0.7816,0.7492,0.783,1.0067,1.1977,1.3564,1.4279,1.4633,1.4496,1.3971,1.3154,1.215,1.1039,0.8978,0.6385,0.5186,0.469,0.4534,0.3741,0.0,0.0,0.0,0.0,0.0,0.0,0.0,0.0,0.0,0.0,0.0,0.0,0.0,0.0,0.0,0.0,0.0,0.0,0.0,0.0,0.0,0.0,0.0,0.0,0.0,0.0,0.0,0.0,0.0,0.0,0.0,0.0,0.0,0.0,0.0,0.0,0.0,0.0,0.3704,0.3091,0.0,0.0,0.0,0.0,0.1877,0.2033,0.2189,0.2189,0.2578,0.2733,0.2733,0.2968,0.3046,0.2968,0.2271,0.1882,0.1725,0.0942,0.055,0.0471,0.0471,0.0471,0.0392,-0.0392,-0.0705,-0.0861,-0.2571,-0.3147,-0.316,-0.3819,-0.3618,-0.3052,-0.3634,-0.3371,-0.2792,0.0,0.0,0.0,0.2655,0.329,0.3751,0.3817,0.4339,0.476,0.4889,0.5832,0.6654,0.6999,0.8313,0.9394,1.0004,1.0945,1.15,1.1611,1.0665,1.024,1.05,0.9308,0.9637,1.1789,1.2687,1.4216,1.6394,1.6021,1.5811,1.5736,1.5554,1.4866,1.3747,1.333,1.2302,1.0772,0.8417,0.7104,0.6482,0.5825,0.5033,0.0,0.0,0.0,0.0,0.0,0.0,0.0,0.0,0.0,0.0,0.0,0.0,0.0,0.0,0.0,0.0,0.0,0.0,0.0,0.0,0.0,0.0,0.0,0.0,0.0,0.0,0.0,0.0,0.0,0.0,0.0,0.0,0.0,0.0,0.0,0.0,0.0,0.5361,0.4711,0.0,0.46,0.3906,0.3597,0.3906,0.3986,0.4142,0.453,0.4686,0.4919,0.5229,0.5306,0.5074,0.4525,0.4373,0.3906,0.3046,0.289,0.2503,0.1802,0.1802,0.1412,0.0786,0.0471,0.0314,0.0157,-0.047,-0.1324,-0.2316,-0.2543,-0.2452,-0.221,-0.2456,-0.2389,-0.2164,0.0,0.0,0.0,0.2888,0.366,0.416,0.4101,0.4692,0.5345,0.5841,0.6898,0.7911,0.8758,0.9985,1.1027,1.1762,1.256,1.2926,1.2702,1.2029,1.1593,1.1552,1.1095,1.2246,1.5216,1.5311,1.6448,1.8699,1.7762,1.7315,1.7254,1.711,1.6408,1.5229,1.5084,1.4667,1.385,1.1728,1.0116,0.8824,0.8201,0.7205,0.6019,0.0,0.0,0.0,0.0,0.0,0.0,0.0,0.0,0.0,0.0,0.0,0.0,0.0,0.0,0.0,0.0,0.0,0.0,0.0,0.0,0.0,0.0,0.0,0.0,0.0,0.0,0.0,0.0,0.0,0.0,0.0,0.0,0.0,0.0,0.0,0.6492,0.6828,0.6416,0.6157,0.6454,0.5922,0.5696,0.5774,0.5774,0.5931,0.6096,0.617,0.6402,0.6714,0.6795,0.656,0.5928,0.5851,0.5378,0.4516,0.4443,0.4057,0.3359,0.3281,0.2891,0.2192,0.2115,0.1803,0.1412,0.1412,0.0705,-0.0469,-0.0783,-0.0861,-0.0783,-0.0783,-0.0704,-0.0704,0.0,0.0,0.2416,0.3141,0.3896,0.4409,0.4494,0.5074,0.6043,0.7515,0.8039,0.897,1.0891,1.189,1.2686,1.3307,1.3888,1.3947,1.3195,1.2731,1.223,1.1735,1.3198,1.5265,1.7827,1.7895,1.8652,2.0248,1.9573,1.9221,1.9194,1.8618,1.7781,1.6709,1.6361,1.5884,1.5351,1.4949,1.3611,1.1675,1.0824,0.9675,0.8325,0.0,0.0,0.0,0.0,0.0,0.0,0.0,0.0,0.0,0.0,0.0,0.0,0.0,0.0,0.0,0.0,0.0,0.0,0.0,0.0,0.0,0.0,0.0,0.0,0.0,0.0,0.0,0.0,0.0,0.0,0.0,0.0,0.0,0.903,0.8361,0.808,0.8221,0.819,0.8156,0.8156,0.8156,0.7927,0.7314,0.7464,0.7314,0.6714,0.6865,0.7015,0.7015,0.7176,0.7257,0.7257,0.6619,0.6224,0.6224,0.5455,0.5068,0.5065,0.483,0.475,0.4675,0.4525,0.3906,0.3132,0.3132,0.2899,0.251,0.1413,0.11,0.1414,0.1571,0.165,0.1572,0.1729,0.2003,0.2279,0.2786,0.3756,0.4468,0.4494,0.539,0.6465,0.7492,0.8635,0.9944,1.1441,1.2596,1.3637,1.4514,1.4846,1.4898,1.463,1.4079,1.3896,1.4122,1.6169,1.8044,1.967,1.9699,2.0352,2.1638,2.0574,1.9876,1.9503,1.9252,1.8578,1.7517,1.7832,1.761,1.7037,1.6925,1.6243,1.5133,1.3336,1.1959,1.0892,0.0,0.0,0.0,0.0,0.0,0.0,0.0,0.0,0.0,0.0,0.0,0.0,0.0,0.0,0.0,0.0,0.0,0.0,0.0,0.0,0.0,0.0,0.0,0.0,0.0,0.0,0.0,0.0,0.0,0.0,0.0,0.0,1.1137,0.9631,0.9516,0.9702,1.0052,0.9706,0.9513,0.9809,0.9291,0.8917,0.8765,0.8765,0.8836,0.8988,0.9059,0.921,0.9508,0.8988,0.8694,0.8694,0.7936,0.7553,0.7553,0.7322,0.6934,0.6391,0.6314,0.5841,0.5137,0.5063,0.483,0.4448,0.4448,0.4523,0.4365,0.2741,0.2275,0.2585,0.2665,0.251,0.2276,0.1616,0.1809,0.207,0.2639,0.3584,0.436,0.4526,0.5421,0.6658,0.8211,0.9305,1.0753,1.2769,1.382,1.4674,1.5468,1.5635,1.5531,1.5219,1.5415,1.6121,1.7497,1.9137,2.0635,2.1885,2.1975,2.2394,2.3068,2.212,2.1327,2.0819,2.0326,1.9684,1.8817,1.8917,1.8717,1.8341,1.8027,1.7679,1.7179,1.583,1.4351,1.2858,1.2015,1.1186,1.0463,0.9909,0.9393,0.8913,0.8638,0.0,0.0,0.0,0.0,0.0,0.0,0.0,0.0,0.0,0.0,0.0,0.0,0.0,0.0,0.0,0.0,0.0,0.0,0.0,0.0,0.0,0.0,0.0,0.0,1.1997,1.2054,1.1141,1.1493,1.1896,1.2198,1.1675,1.1378,1.1668,1.1013,1.0426,1.0201,1.0201,1.0201,1.0115,1.0115,1.0265,1.0484,1.019,0.982,0.9448,0.9306,0.9013,0.8637,0.8784,0.8627,0.8161,0.8089,0.7693,0.7065,0.6984,0.6754,0.6294,0.6294,0.6213,0.0,0.0,0.0,0.0,0.0,0.3984,0.3673,0.1544,0.1608,0.1854,0.2603,0.3384,0.4065,0.4532,0.5264,0.6669,0.9154,0.9884,1.1287,1.4258,1.4926,1.5445,1.6057,1.61,1.5939,1.5518,1.6822,1.863,2.098,2.1794,2.2778,2.3952,2.4219,2.4302,2.4302,2.3634,2.3088,2.2618,2.1541,2.0809,2.0281,1.9681,1.9427,1.945,1.8712,1.838,1.8361,1.7962,1.6515,1.4541,1.4128,1.3559,1.2949,1.2553,1.202,1.1463,1.0621,0.0,0.0,0.0,0.0,0.0,0.0,0.0,0.0,0.0,0.0,0.0,0.0,0.0,0.0,0.0,0.0,0.0,0.0,0.0,0.0,0.0,0.0,0.0,0.0,1.2395,1.2878,1.3439,1.3984,1.4332,1.4308,1.375,1.3411,1.3448,1.2879,1.2224,1.1632,1.1558,1.1329,1.0864,0.0,0.0,0.0,0.0,1.0858,0.9965,1.0576,1.0438,0.9473,0.9916,1.0067,0.9997,0.9916,0.9771,0.9695,0.9528,0.9064,0.8291,0.8291,0.8058,0.7516,0.6136,0.5758,0.5915,0.5915,0.5758,0.552,0.1187,0.1515,0.1798,0.2153,0.2893,0.3681,0.4398,0.5156,0.652,0.9028,0.9646,1.0886,1.3497,1.3884,1.4351,1.5355,1.5534,1.6083,1.737,1.8957,2.037,2.1486,2.2705,2.358,2.3982,2.4369,2.4436,2.4302,2.3802,2.3483,2.338,2.2087,2.1341,2.1044,2.0334,2.0254,2.063,1.9921,1.9827,2.0015,1.907,1.7706,1.6193,1.5792,1.5306,1.4722,1.4359,1.3776,1.3179,1.2715,1.1984,1.1149,1.0724,1.0673,0.0,0.0,0.0,0.0,0.0,0.0,0.0,0.0,0.0,0.0,0.0,0.0,0.0,0.0,0.0,0.0,0.0,0.0,0.0,1.501,1.5187,1.5643,1.6466,1.6523,1.5917,1.4401,1.4234,1.4143,1.3939,1.3753,1.339,1.2673,1.2599,1.2673,1.2893,1.2893,1.3105,1.339,1.2865,1.2492,1.2271,1.1755,1.1168,1.0513,0.0,0.0,1.0663,1.1093,1.1019,1.0594,1.0513,1.0132,0.9533,0.9533,0.9533,0.9296,0.8071,0.7617,0.7617,0.7617,0.7375,0.6977,0.0357,0.0922,0.1488,0.1831,0.2568,0.3285,0.3918,0.477,0.612,0.8205,0.9009,1.0179,1.2263,1.2723,1.3108,1.3693,1.469,1.6242,1.8412,2.0098,2.1565,2.2838,2.382,2.441,2.4523,2.4791,2.495,2.4966,2.4726,2.4457,2.4179,2.351,2.298,2.2543,2.2189,2.2118,2.2244,2.1646,2.147,2.1455,2.0235,1.9325,1.8531,1.7378,1.6659,1.6232,1.594,1.533,1.4663,1.4736,1.4241,1.353,1.3307,1.3266,1.3167,0.0,0.0,0.0,0.0,0.0,0.0,0.0,0.0,0.0,0.0,0.0,0.0,0.0,0.0,1.5674,0.0,0.0,1.6503,1.6809,1.6887,1.7223,1.7892,1.7913,1.7304,1.5956,1.5525,1.5286,1.5135,1.4768,1.4356,1.3962,1.3897,1.3833,1.3775,1.3775,1.392,1.4057,1.3833,1.3382,1.2865,1.2792,1.2352,1.1545,1.2063,1.2144,1.1855,1.2144,1.2144,1.1855,1.1855,1.1484,1.0962,1.0663,1.0807,1.1168,1.0121,0.9448,0.8998,0.8998,0.8836,0.8675,-0.0598,0.0165,0.0951,0.1454,0.2164,0.2844,0.3339,0.4223,0.548,0.7152,0.8064,0.914,1.062,1.1195,1.1662,1.2151,1.4142,1.6362,1.8755,2.0503,2.2222,2.3876,2.4511,2.4926,2.5005,2.524,2.541,2.554,2.5584,2.5387,2.4942,2.4814,2.4439,2.3883,2.3734,2.3648,2.3608,2.3056,2.2739,2.2516,2.1356,2.0744,2.0336,1.8826,1.7896,1.7434,1.7131,1.6557,1.5937,1.623,1.6021,1.5649,1.5401,1.5483,1.5433,1.4281,1.4116,0.0,0.0,0.0,0.0,0.0,0.0,0.0,0.0,0.0,1.6366,1.7477,1.761,1.7728,1.8306,1.8184,1.8094,1.8348,1.8237,1.8319,1.8895,1.8906,1.8533,1.7852,1.7106,1.6632,1.6522,1.5904,1.5351,1.5155,1.518,1.4974,1.4617,1.4617,1.4617,1.4617,1.4633,1.4266,1.344,1.3825,1.3535,1.2565,1.3098,1.3258,1.3185,1.3404,1.3331,1.3193,1.3039,1.2739,1.2291,1.1842,1.2131,1.2785,1.2131,1.1397,1.0657,1.0288,1.0218,1.0218,-0.1202,-0.0708,-0.0043,0.0827,0.1514,0.2166,0.2939,0.3621,0.4565,0.5987,0.6676,0.7467,0.8513,0.896,0.9953,1.1933,1.442,1.6586,1.8121,2.0147,2.1902,2.3218,2.3979,2.4549,2.5005,2.5378,2.5508,2.5333,2.5508,2.5589,2.5486,2.4822,2.4394,2.414,2.3458,2.3431,2.3824,2.3185,2.293,2.2903,2.213,2.1177,2.0127,1.9922,1.9205,1.8266,1.7475,1.7102,1.6969,1.6514,1.6372,1.6268,1.6268,1.653,1.6815,1.674,1.7,1.7445,1.8137,0.0,0.0,1.7986,1.8146,1.8351,0.0,0.0,1.9979,2.0211,2.0382,2.0495,2.0669,2.0375,2.0169,2.0514,1.9726,1.9406,2.0251,1.9878,1.9524,1.9454,1.8665,1.8066,1.7726,1.7182,1.66,1.5939,1.6018,1.6228,1.6289,1.6289,1.6428,1.6585,1.5965,1.5621,1.5471,1.4848,1.4194,1.3608,1.4553,1.4625,1.4194,1.5054,1.4974,1.4129,1.3615,1.339,1.3317,1.3585,1.3715,1.386,1.3715,1.3643,1.3353,1.1761,1.1335,1.1484,-0.1839,-0.1344,-0.0841,-0.0469,0.058,0.1412,0.168,0.2479,0.3341,0.4129,0.4803,0.5506,0.6356,0.7004,0.8147,0.9964,1.2593,1.4826,1.6422,1.9169,2.1326,2.2727,2.3452,2.4184,2.4989,2.5146,2.5278,2.5294,2.5394,2.5448,2.5432,2.5108,2.4767,2.4401,2.3947,2.3731,2.3726,2.3674,2.329,2.2686,2.2201,2.1207,1.9922,1.9366,1.87,1.8069,1.8069,1.7738,0.0,1.7396,1.765,1.7897,1.7822,1.8205,1.8622,1.8709,1.8691,1.8625,1.8663,0.0,0.0,0.0,1.95,1.9951,2.039,2.0853,2.1462,2.2209,2.2273,2.2349,2.2783,2.2293,2.1905,0.0,2.144,2.1089,2.1476,2.1283,2.115,2.115,2.0574,1.981,1.8997,1.8479,1.7999,1.7629,1.7267,1.7001,1.6784,1.6784,1.6784,1.6932,1.6585,1.6515,1.6576,1.6219,1.5807,1.5463,1.5824,1.5692,1.5196,1.5621,1.5551,1.5125,1.4545,1.4322,1.4322,1.4091,1.4371,1.4807,1.4378,1.4522,1.4879,1.3433,1.2997,1.3004,-0.2154,-0.1748,-0.1344,-0.1344,-0.0262,0.0633,0.0695,0.1519,0.2241,0.2639,0.3241,0.3906,0.4624,0.5548,0.6731,0.8252,1.0688,1.292,1.4911,1.7733,1.9993,2.1571,2.2104,2.2784,2.3686,2.3569,2.3739,2.4249,2.4249,2.4302,2.434,2.4335,2.4028,2.3458,2.3276,2.3063,2.2916,2.3024,2.2739,2.2194,2.162,2.0764,1.9681,1.8883,1.8275,1.7907,1.8175,1.7899,1.7403,1.7836,1.8342,1.877,1.8858,1.9221,1.971,2.0176,2.036,2.0408,2.0216,0.0,0.0,2.1104,2.1305,2.1687,2.2244,2.2496,2.2854,2.3675,2.3755,2.3804,2.4284,2.3662,2.3078,2.3078,2.2604,2.2197,2.2197,2.2065,2.2029,2.2173,2.1794,2.1272,2.0595,1.9687,1.9125,1.8992,1.8432,1.7901,1.755,1.755,1.755,1.755,1.7413,1.7404,1.7522,1.7248,1.7051,1.6802,1.6941,1.6802,1.6385,1.6245,1.6175,1.6105,1.5542,1.5401,1.5455,1.5147,1.557,1.6289,1.5711,1.593,1.6446,1.5703,1.4846,1.4155,-0.2109,-0.1748,-0.1389,-0.1389,-0.0895,-0.0223,0.0401,0.0986,0.1477,0.189,0.2395,0.2976,0.3583,0.4706,0.6035,0.7503,0.9335,1.144,1.397,1.5809,1.7589,1.9319,1.947,1.9818,2.0519,2.0012,2.037,2.1615,2.1615,2.1737,2.1979,2.1998,2.15,2.0605,2.0624,2.081,2.113,2.0502,2.0743,2.1456,2.0396,1.9738,1.9374,1.8948,1.8441,1.7913,1.7421,1.7225,1.7232,1.739,1.7777,1.8317,1.8808,1.9082,1.9532,2.1081,2.2452,2.3616,0.0,0.0,2.4016,2.4577,2.4482,2.4203,2.4203,2.4489,2.4724,2.4751,2.4865,2.4921,2.4948,2.4234,2.3577,2.3577,2.2823,2.2197,2.2197,2.1753,2.162,2.2125,2.1982,2.21,0.0,2.091,1.9759,1.977,1.932,1.9065,1.8998,1.9142,1.9208,1.9208,1.8721,1.8442,1.8432,1.7745,1.7404,1.7404,1.7755,1.7969,1.7901,1.7345,1.7079,1.701,1.6473,1.6533,1.7079,1.7423,1.7901,1.8432,1.8365,1.8365,1.8432,1.8767,1.7033,1.453,-0.1681,-0.1553,-0.14,-0.144,-0.1277,-0.0895,-0.0268,0.0129,0.0496,0.079,0.1619,0.0,0.0,0.0,0.0,0.0,0.7383,0.8923,1.0342,1.2533,1.4472,1.5984,1.6547,1.7355,1.8514,1.8617,1.8925,1.9434,1.9914,2.014,2.0053,2.0039,1.9648,1.8907,1.8616,1.868,1.8935,1.917,1.9299,1.9312,1.9073,1.8333,1.7464,1.8047,1.7522,1.6583,0.0,1.7867,1.7842,1.7483,1.7752,1.8179,1.799,1.8273,1.8942,2.0439,2.1518,2.2428,2.3048,0.0,2.4326,2.4626,2.4934,2.5189,2.5326,2.5121,2.4948,2.4948,2.526,2.5351,2.466,2.4374,2.3978,2.3248,2.2298,2.1668,2.1668,2.1512,2.1464,2.1644,2.2128,0.0,0.0,0.0,0.0,2.0677,1.9715,1.9142,1.9208,1.9285,1.9351,1.9473,1.933,1.9264,1.9462,1.9177,1.89,1.869,1.8432,1.8297,1.8297,1.8094,1.8027,1.8027,1.7833,1.7969,1.8365,1.8509,1.8834,1.9145,1.9145,1.9145,1.9145,1.9278,1.8716,1.7823,0.0,-0.1334,-0.1268,-0.1474,-0.1307,0.0,0.0,0.0,0.0,0.0,0.0,0.0,0.0,0.0,0.0,0.0,0.0,0.6853,0.7928,0.9834,1.1481,1.2686,1.3089,1.3784,1.4903,1.5055,1.5535,1.6399,1.6928,1.7285,1.7462,1.7325,1.6823,1.6083,1.5586,1.5608,1.6075,1.6487,1.705,1.7652,1.733,1.7068,1.6948,1.7333,1.7124,0.0,1.7784,1.8329,1.8355,1.74,1.7483,1.7874,1.7554,1.8358,1.9594,2.0243,2.1223,2.2183,2.2615,2.3302,2.408,2.4705,2.4904,2.5123,2.5696,2.5217,2.4747,2.4964,2.548,2.5648,2.4734,2.4398,2.4045,2.3542,2.2457,2.1753,2.1945,2.1813,2.1692,2.1692,2.2128,2.2274,0.0,0.0,0.0,2.0869,2.0042,1.9528,1.9407,1.9671,1.9802,1.9736,1.9987,2.0053,1.9933,1.9933,1.9868,1.9584,1.9253,1.9054,1.9054,1.8977,1.8967,1.8977,1.89,1.909,1.9497,1.9683,1.9998,2.0375,2.0375,2.0375,2.0375,2.0322,2.0257,2.0193,0.0,0.0,-0.0947,0.0,0.0,0.0,0.0,0.0,0.0,0.0,0.0,0.0,0.0,0.0,0.0,0.0,0.0,0.0,0.6562,0.7624,0.8582,0.9347,0.9174,0.9289,0.9816,0.9554,1.0429,1.2494,1.2665,1.3276,1.4193,1.383,1.3181,1.2292,1.1667,1.189,1.2766,1.2604,1.4037,1.6336,1.5163,1.582,1.7497,1.6812,1.7123,1.7953,1.8151,1.8505,1.8668,1.7124,1.6992,1.7543,1.7562,1.9204,2.1092,2.0557,2.1586,2.2889,2.301,2.3081,2.3458,2.4844,2.4477,2.4105,2.5307,2.4801,2.4245,2.4842,2.5426,2.5657,0.0,0.0,2.3879,2.4288,2.3128,2.2392,2.2886,2.2525,2.2211,0.0,0.0,0.0,0.0,0.0,0.0,2.0549,0.0,2.0237,1.9736,2.0506,2.0635,2.0064,2.0752,2.0816,2.014,2.014,2.014,2.0205,2.0205,2.0151,2.014,1.9977,1.9901,1.9901,1.9738,1.9922,2.0451,2.1014,2.1542,2.2002,2.2002,2.2002,2.1939,2.1827,2.1776,2.1577,0.0,0.0,0.0,0.0,0.0,0.0,0.0,0.0,0.0,0.0,0.0,0.0,0.0,0.0,0.0,0.0,0.0,0.0,0.3282,0.4038,0.4698,0.5204,0.5407,0.5726,0.6215,0.6642,0.7319,0.8246,0.9197,0.9853,1.0246,1.0563,1.0453,0.9982,0.9935,1.0294,1.0937,1.1455,1.2268,1.3129,1.3097,1.352,1.4293,1.551,1.5936,1.5989,1.7604,1.7811,1.7339,0.0,0.0,0.0,1.8341,1.8841,1.9515,2.0262,2.0783,2.1362,2.2279,2.2878,2.3339,2.3733,2.3805,2.3873,2.4192,2.3811,2.3581,2.4232,2.4815,2.4993,0.0,0.0,0.0,2.2921,2.2433,0.0,2.2342,2.229,0.0,2.2145,0.0,2.2445,2.1939,2.2641,0.0,0.0,2.1302,2.1302,2.1313,2.1502,2.1628,2.1542,2.1741,2.1491,2.0816,2.0816,2.0944,2.1187,2.1187,2.1135,2.0903,2.0903,2.1008,2.1365,2.129,2.1729,2.2396,2.2518,2.2834,2.316,2.316,2.316,2.3148,2.316,2.2871,2.2531,0.0,0.0,0.0,0.0,0.0,0.0,0.0,0.0,0.0,0.0,0.0,0.0,0.0,0.0,0.0,0.0,0.0,0.0,0.0,0.1866,0.2399,0.2601,0.2912,0.3239,0.3585,0.4037,0.4708,0.5556,0.6378,0.7116,0.7706,0.8071,0.8031,0.7706,0.7837,0.8121,0.8528,0.9336,1.0337,0.0,0.0,1.2516,1.382,1.4795,1.5427,1.5913,1.7676,1.8304,0.0,0.0,0.0,1.8734,1.9037,1.9347,1.9739,2.0308,0.0,2.0925,2.1326,2.1686,2.2079,2.2452,2.2532,2.2727,2.3378,2.3117,2.3078,2.3947,2.4598,0.0,0.0,0.0,0.0,0.0,0.0,0.0,2.3246,2.3462,2.3476,0.0,2.3489,0.0,2.2701,2.3623,2.3813,0.0,2.2372,2.2113,2.199,2.2237,2.2359,2.2101,2.2408,2.2224,2.1604,2.1604,2.1803,2.2051,2.2051,2.1928,2.1827,2.1939,2.2187,2.2421,0.0,2.2907,2.3327,2.3564,2.3754,2.393,2.393,2.393,2.3872,2.3695,2.3412,2.3185,0.0,0.0,0.0,0.0,0.0,0.0,0.0,0.0,0.0,0.0,-0.0385,0.0,0.0,0.0,0.0,0.0,0.0,0.0,0.0,0.0,0.1039,0.096,0.1213,0.1459,0.1637,0.1886,0.2613,0.374,0.4113,0.4858,0.5892,0.6062,0.5944,0.5652,0.571,0.5871,0.6094,0.6936,0.8446,1.0294,1.0401,1.1948,1.4173,0.0,1.5038,1.6482,1.7869,1.9133,0.0,0.0,1.9904,1.9285,1.9799,2.0344,2.0732,2.0519,2.0798,2.1075,2.0441,2.0314,2.0558,2.1311,2.117,2.1255,2.2527,2.2476,2.2485,2.3757,0.0,2.4794,2.4985,0.0,2.4505,2.4972,0.0,2.4262,2.476,2.5137,2.5127,2.4637,2.4697,2.4584,2.4137,2.4937,2.5021,2.4112,2.3531,2.3027,2.2421,2.2907,2.2967,2.2359,2.2834,2.2955,2.2579,2.2518,2.2579,2.2774,2.2774,2.2786,2.2713,2.3015,2.3207,2.3267,2.3577,2.3754,2.3813,2.4234,2.4408,2.4408,2.4408,2.4408,2.435,2.393,2.38,2.38,0.0,0.0,0.0,0.0,0.0,0.0,0.0,0.0,0.0,0.0,-0.1268,-0.1052,0.0,0.0,0.0,0.0,0.0,0.0,0.0,0.0,0.0,-0.0306,0.0039,0.0193,0.0232,0.0812,0.1407,0.1955,0.2402,0.3039,0.3829,0.4026,0.4168,0.4272,0.4451,0.4532,0.4633,0.5725,0.6704,0.7573,0.8757,1.0,1.1384,1.2618,0.0,0.0,1.7049,0.0,0.0,1.9895,2.0113,2.0426,2.1125,2.1055,2.0734,2.065,2.07,2.0632,2.0171,2.0421,2.0793,2.0848,2.0912,2.1052,2.1328,2.1363,0.0,0.0,0.0,2.3703,2.4297,2.4358,2.4287,2.4236,0.0,0.0,0.0,0.0,2.5298,0.0,0.0,0.0,0.0,0.0,0.0,0.0,0.0,2.4838,2.3793,2.3865,2.3865,2.3747,2.3458,2.3505,2.3917,2.3564,2.3505,2.3826,2.3826,2.3695,2.3458,2.3518,2.3695,2.4105,2.4163,0.0,2.4765,2.4835,2.4878,2.4878,2.4878,2.4878,2.4892,2.4765,2.4781,2.4854,0.0,0.0,0.0,0.0,0.0,0.0,0.0,-0.1977,-0.1886,-0.2198,-0.2009,-0.1735,-0.1427,-0.1363,-0.1405,0.0,0.0,0.0,0.0,0.0,0.0,0.0,0.0,0.0,0.0157,0.0471,0.0,0.0,0.0,0.2087,0.2641,0.0,0.0,0.3278,0.3894,0.4113,0.4056,0.4759,0.5592,0.6507,0.7566,0.8985,1.0624,0.0,0.0,0.0,0.0,0.0,0.0,0.0,2.0539,2.0792,2.1121,2.1046,2.0854,2.0793,2.0778,2.0699,2.0457,2.0633,2.0796,2.039,2.0425,2.0568,2.0657,0.0,0.0,0.0,0.0,2.3487,2.4493,0.0,0.0,0.0,0.0,0.0,0.0,0.0,0.0,0.0,0.0,0.0,0.0,0.0,0.0,0.0,0.0,2.5632,2.4171,2.4112,2.4099,2.4203,2.393,2.4047,2.4536,2.4363,2.4363,2.4593,2.4593,2.4465,2.435,2.435,2.4465,2.465,2.465,2.4765,2.5005,2.5005,2.5174,2.5453,2.5453,2.5646,2.5892,2.5892,2.5932,2.5903,0.0,0.0,0.0,0.0,0.0,0.0,0.0,-0.1845,-0.1902,-0.2349,-0.2342,-0.2151,-0.1759,-0.1782,-0.1873,0.0,0.0,0.0,0.0,0.0,0.0,0.0,0.0,0.0,0.0,0.0,0.0,0.0,0.0,0.0,0.0,0.0,0.0,0.0,0.0,0.3755,0.3717,0.4062,0.4976,0.0,0.0,0.8467,0.0,0.0,0.0,0.0,0.0,0.0,0.0,0.0,2.0575,2.0484,2.063,2.0762,2.0935,2.0755,2.0798,2.0812,2.0484,2.0583,2.0603,2.008,1.9913,1.996,2.0155,2.0295,0.0,0.0,2.3122,2.3554,2.4788,0.0,2.5188,0.0,0.0,0.0,0.0,0.0,0.0,0.0,0.0,0.0,0.0,0.0,0.0,0.0,0.0,0.0,2.4434,2.4332,2.4319,2.435,2.4408,2.4536,2.4778,2.4835,2.4948,2.5174,2.5174,2.5272,2.537,2.537,2.537,2.537,2.537,2.537,2.537,2.537,2.5646,2.6096,2.6096,2.6336,2.6678,2.6678,2.673,2.6745,0.0,0.0,0.0,0.0,0.0,0.0,0.0,-0.1136,-0.1337,-0.1724,-0.1876,-0.1896,-0.1786,-0.1939,-0.1786,0.0,0.0,0.0,0.0,0.0,0.0,0.0,0.0,0.0,0.0,0.0,0.0,0.0,0.0,0.0,0.0,0.0,0.0,0.0,0.0,0.0,0.0,0.3664,0.0,0.0,0.0,0.0,0.0,0.0,0.0,0.0,0.0,0.0,0.0,0.0,0.0,1.9291,1.9889,2.0408,2.0731,2.0226,0.0,0.0,1.9703,1.9827,2.0228,2.0041,1.9659,1.9374,1.9592,0.0,0.0,2.2326,2.2964,2.3554,2.4788,0.0,0.0,0.0,0.0,2.7038,0.0,0.0,0.0,0.0,0.0,0.0,0.0,0.0,0.0,0.0,0.0,0.0,2.5133,2.5077,2.4921,2.4549,2.4664,2.4778,2.4778,2.4892,2.5286,2.5839,2.5839,2.6082,2.652,2.652,2.652,2.652,2.652,2.652,0.0,2.652,2.6573,2.664,2.664,2.6678,2.6678,2.6678,2.6849,2.7122,0.0,0.0,0.0,0.0,0.0,0.0,-0.0568,-0.0685,-0.0931,-0.1413,-0.1409,-0.1473,-0.1642,-0.1325,-0.1159,-0.1427,0.0,0.0,0.0,0.0,0.0,0.0,0.0,0.0,0.0,0.0,0.0,0.1725,0.0,0.0,0.0,0.0,0.0,0.0,0.0,0.0,0.0,0.0,0.0,0.0,0.0,0.0,0.0,0.0,0.0,0.0,0.0,0.0,0.0,0.0,0.0,0.0,1.9279,1.9545,0.0,0.0,1.9786,1.9848,1.9358,1.9469,1.9567,1.8992,1.9126,1.9336,1.9129,0.0,0.0,2.2364,2.3178,2.4028,2.4842,2.5257,2.5605,2.5839,2.6363,0.0,2.6808,0.0,0.0,0.0,0.0,0.0,0.0,0.0,0.0,0.0,0.0,0.0,2.6361,2.5618,2.5189,2.5203,2.4935,2.5005,2.5453,2.5508,2.5825,2.639,2.639,2.6481,2.6678,2.6678,2.6678,2.6678,2.6782,2.6849,0.0,2.6411,2.6724,2.7324,2.647,2.6606,2.7306,2.7306,2.737,2.7479,0.0,0.0,0.0,0.0,0.0,-0.0051,-0.0268,-0.0216,-0.0335,-0.0914,-0.077,-0.0766,-0.0936,-0.0487,-0.041,-0.1068,-0.0734,0.0,0.0,0.0,0.0,0.0,0.0,0.0,0.0,0.0,0.2277,0.2389,0.2389,0.0,0.0,0.0,0.0,0.0,0.0,0.0,0.0,0.0,0.0,0.0,0.0,0.0,0.0,0.0,0.0,0.0,0.0,0.0,0.0,0.0,0.0,0.0,0.0,1.856,1.856,0.0,1.9162,1.9226,1.8963,1.8951,1.8898,1.8255,1.8522,1.8916,0.0,0.0,0.0,2.2255,2.3203,2.4134,2.484,2.5355,2.5702,2.5839,2.6361,2.6741,2.6808,0.0,0.0,0.0,0.0,0.0,0.0,0.0,0.0,0.0,0.0,0.0,2.7444,2.6414,2.5877,2.5932,2.5577,2.5591,2.6136,2.6136,2.639,2.6938,2.6748,2.6711,2.6878,2.6686,2.6583,2.6583,2.6733,2.6783,0.0,2.6374,2.6753,2.7437,2.6443,2.6611,2.7422,2.7422,2.7361,2.7287,0.0,0.0,0.0,0.0,0.0,0.0,-0.0333,0.0392,0.0689,-0.0122,0.0123,0.0427,0.0473,0.0424,0.0361,0.0395,0.0231,0.0,0.0,0.0,0.0,0.0,0.0,0.0,0.0,0.0,0.3807,0.3751,0.3751,0.387,0.4105,0.4105,0.0,0.0,0.0,0.0,0.0,0.0,0.0,0.0,0.0,0.0,0.0,0.0,0.0,0.0,0.0,0.0,0.0,0.0,0.0,0.0,0.0,1.7523,1.7434,1.7941,1.8548,1.8869,1.8255,1.8093,1.8093,1.8093,1.7909,1.7767,0.0,0.0,0.0,2.1728,2.2737,2.3718,2.477,2.5508,2.5893,2.5893,2.6909,2.7505,2.6866,2.7316,0.0,0.0,0.0,0.0,0.0,0.0,0.0,0.0,0.0,0.0,2.8186,2.763,2.7093,2.6678,2.6678,2.6678,2.6678,2.6678,2.6938,2.75,2.6807,2.6814,2.738,2.6718,2.6395,2.6304,2.6454,2.6514,0.0,2.6647,2.6707,2.6707,2.6691,2.6691,2.6707,2.6707,2.6543,2.6349,0.0,0.0,0.0,0.0,0.0,0.0,0.0,0.0617,0.0627,0.0654,0.0821,0.0768,0.0436,0.1035,0.1314,0.0957,0.0829,0.0,0.0,0.0,0.0,0.0,0.0,0.0,0.0,0.3422,0.3795,0.3876,0.4016,0.4119,0.4234,0.4719,0.481,0.4661,0.0,0.0,0.0,0.0,0.0,0.0,0.0,0.0,0.0,0.0,0.0,0.0,0.0,0.0,0.0,0.0,0.0,0.0,0.0,0.0,0.0,1.729,1.7567,1.781,1.759,1.7534,1.7534,1.7534,1.7902,1.8239,1.8109,0.0,0.0,2.1805,2.2792,2.3843,2.5078,2.5633,2.5934,2.6136,2.6712,2.6746,0.0,0.0,0.0,0.0,0.0,0.0,0.0,0.0,0.0,0.0,0.0,0.0,2.7529,2.7435,2.7327,2.7246,2.6462,2.6177,2.6544,2.61,2.6183,2.6764,2.6581,2.6366,2.6127,2.6435,2.6075,0.0,2.5768,2.6029,2.6014,2.567,2.579,2.6183,2.5696,2.5224,2.4862,2.5334,2.5466,2.5487,0.0,0.0,0.0,0.0,0.0,0.0,0.0,0.0777,0.0952,0.1113,0.1246,0.1258,0.1003,0.1515,0.1786,0.1535,0.1576,0.0,0.0,0.0,0.0,0.0,0.0,0.0,0.3741,0.4285,0.4696,0.4958,0.4925,0.5006,0.5084,0.5577,0.5634,0.5363,0.5728,0.5656,0.0,0.0,0.0,0.0,0.0,0.0,1.0338,0.0,0.0,0.0,0.0,0.0,0.0,0.0,0.0,0.0,0.0,0.0,0.0,0.0,1.7145,1.7278,1.7278,1.7278,1.7278,1.7278,1.7778,0.0,0.0,0.0,0.0,2.1902,2.2779,2.3872,2.5356,2.5839,2.6096,2.6283,2.6376,2.624,0.0,0.0,0.0,0.0,0.0,0.0,0.0,0.0,0.0,0.0,0.0,0.0,2.6949,2.7211,2.7301,2.7089,2.6329,2.612,2.6484,2.5757,2.5621,2.6024,2.5571,2.5149,2.4803,2.503,2.4667,0.0,2.4422,2.4649,0.0,2.4311,2.4428,2.4792,2.4388,2.3923,2.3575,2.4018,2.4388,2.4634,0.0,0.0,0.0,0.0,0.0,0.0,0.0,0.087,0.1527,0.1277,0.1498,0.1774,0.1952,0.1917,0.1907,0.1973,0.0,0.0,0.0,0.0,0.0,0.0,0.0,0.0,0.5392,0.5727,0.6177,0.6703,0.6373,0.6314,0.6424,0.6583,0.6664,0.6563,0.6065,0.588,0.5992,0.0,0.0,0.0,0.0,0.9943,0.0,0.0,0.0,0.0,0.0,0.0,0.0,0.0,0.0,0.0,0.0,0.0,0.0,0.0,0.0,0.0,0.0,1.7278,1.7278,1.7278,1.7501,1.7767,1.803,1.8762,0.0,2.1936,2.2795,2.3734,2.5548,2.6108,2.6269,2.6279,2.6,0.0,0.0,2.6309,0.0,0.0,0.0,0.0,0.0,0.0,0.0,0.0,0.0,0.0,2.638,2.6903,2.6919,2.6195,2.6134,2.6149,2.6241,2.5533,2.5191,2.5273,2.3971,2.339,2.3452,2.2898,2.2586,0.0,2.2588,2.264,0.0,2.2765,2.2817,2.2817,2.2864,2.2848,2.2817,2.2864,2.3322,2.3923,0.0,0.0,0.0,0.0,0.0,0.0,0.0,0.0,0.0,0.0,0.167,0.1774,0.1952,0.1917,0.1925,0.0,0.0,0.0,0.0,0.0,0.0,0.0,0.0,0.0,0.5495,0.6298,0.6716,0.6703,0.6633,0.6502,0.6416,0.6456,0.6413,0.6371,0.6315,0.6384,0.6602,0.7115,0.0,0.0,0.8698,0.9514,0.0,0.0,0.0,0.0,1.2744,1.2797,0.0,0.0,0.0,0.0,0.0,0.0,0.0,0.0,1.7011,1.7078,1.7267,0.0,1.7278,1.7278,1.7334,1.7501,0.0,1.8596,1.9527,2.1366,2.252,2.3657,2.5202,2.5944,2.6246,2.598,2.5828,2.5611,2.5027,0.0,0.0,0.0,0.0,0.0,0.0,0.0,0.0,0.0,0.0,2.698,2.5641,2.5718,2.5256,2.4056,2.4076,2.4323,2.4795,2.4168,2.3606,2.3134,2.2945,2.2613,2.2144,2.2613,2.224,2.1248,2.1768,2.2055,2.2086,2.2122,2.2122,2.2185,2.269,2.2548,2.2137,2.269,2.3322,2.3923,0.0,0.0,0.0,0.0,0.0,0.0,0.0,0.0,0.0,0.0,0.0,0.1774,0.1952,0.1943,0.0,0.0,0.0,0.0,0.0,0.0,0.0,0.0,0.0,0.6195,0.6671,0.6966,0.7198,0.7354,0.6999,0.6637,0.6427,0.654,0.6466,0.623,0.6263,0.6446,0.6719,0.715,0.7363,0.7501,0.8528,0.0,0.0,0.0,0.0,0.0,1.2744,1.2683,0.0,1.3563,1.4204,1.4845,0.0,0.0,0.0,0.0,1.7145,1.7145,1.7278,1.7278,1.7278,1.7278,1.7278,1.7501,1.8271,1.8701,1.9622,2.2005,2.3001,2.3878,2.5317,2.6107,2.6275,0.0,2.5654,0.0,0.0,0.0,0.0,0.0,0.0,0.0,0.0,0.0,0.0,0.0,0.0,2.6378,2.5018,2.4941,2.4462,2.3491,2.315,2.3165,2.3443,2.2855,2.2403,2.2066,2.1898,2.1623,2.1311,2.1758,2.1505,2.081,2.1189,2.1363,2.1395,2.1395,2.1584,2.1932,2.2295,2.239,2.2359,2.2738,2.3322,2.3923,0.0,0.0,0.0,0.0,0.0,0.0,0.0,0.0,0.0,0.0,0.0,0.0,0.0,0.0,0.0,0.0,0.0,0.0,0.0,0.0,0.0,0.0,0.6357,0.7122,0.8025,0.7638,0.7641,0.8072,0.7332,0.6814,0.6409,0.6733,0.656,0.608,0.6174,0.6337,0.6548,0.6993,0.7428,0.7812,0.8514,0.0,0.0,0.0,0.0,0.0,0.0,0.0,0.0,1.3983,1.456,1.4963,1.5948,0.0,0.0,0.0,0.0,0.0,1.7278,1.7434,1.7523,1.7345,1.7334,1.7656,1.8611,1.8997,1.9941,2.2893,2.3608,2.4135,2.5545,2.617,0.0,0.0,0.0,0.0,2.5423,2.56,0.0,0.0,0.0,0.0,0.0,0.0,0.0,0.0,0.0,2.5741,2.4405,2.4343,2.4035,2.338,2.2758,2.2399,2.2207,2.1822,2.1577,2.1557,2.0976,2.0744,2.0794,2.0794,2.0794,2.0794,0.0,0.0,2.0794,2.0794,2.1221,2.19,2.19,2.2359,2.3038,2.3038,2.348,2.4081,0.0,0.0,0.0,0.0,0.0,0.0,0.0,0.0,0.0,0.0,0.0,0.0,0.0,0.0,0.0,0.0,0.0,0.0,0.0,0.0,0.0,0.7122,0.7278,0.7498,0.7771,0.8288,0.8335,0.7824,0.7654,0.724,0.658,0.6639,0.6402,0.6055,0.6309,0.6543,0.6759,0.7059,0.7511,0.8006,0.8408,0.0,0.0,0.0,0.0,0.0,0.0,0.0,0.0,1.4697,1.5167,1.5459,1.6549,0.0,0.0,0.0,0.0,0.0,1.7278,1.8115,1.8655,1.759,1.749,1.7822,1.8565,1.9438,2.0602,2.2315,2.3238,2.411,2.5524,2.5458,2.5159,0.0,0.0,0.0,0.0,0.0,0.0,0.0,0.0,0.0,0.0,0.0,0.0,0.0,0.0,2.5258,2.3661,2.3584,2.3148,2.2277,2.1972,2.1692,2.1391,2.1566,2.1396,2.085,2.0824,2.0794,2.0794,2.0794,2.0794,2.0794,0.0,2.0794,2.0794,2.0794,2.1221,2.19,2.19,2.2659,2.3765,2.3765,2.4207,2.4847,0.0,0.0,0.0,0.0,0.0,0.0,0.0,0.0,0.0,0.0,0.0,0.0,0.0,0.0,0.0,0.0,0.0,0.0,0.0,0.0,0.6702,0.7373,0.7972,0.8394,0.8626,0.9004,0.9055,0.8775,0.8337,0.7947,0.7501,0.6987,0.6611,0.6286,0.6552,0.6823,0.7021,0.7116,0.7594,0.8317,0.0,0.0,0.0,0.0,0.0,0.0,0.0,0.0,0.0,0.0,1.5294,1.5584,1.6503,0.0,0.0,0.0,0.0,0.0,1.7831,1.8495,1.9173,1.8924,1.9191,1.9742,2.0533,2.1169,2.2008,2.3162,2.3865,2.4376,2.4785,0.0,2.5091,2.5491,0.0,0.0,0.0,0.0,0.0,0.0,0.0,0.0,0.0,0.0,0.0,0.0,0.0,0.0,2.3615,2.3179,2.2719,2.2179,2.1727,2.1325,2.099,2.1144,2.1059,2.0744,2.0794,2.0794,2.0794,2.0794,2.0794,2.0794,0.0,2.0794,2.0826,2.1221,2.1805,2.2469,2.2848,2.3607,2.4476,2.4476,2.4775,2.5178,0.0,0.0,0.0,0.0,0.0,0.0,0.0,0.0,0.0,0.0,0.0,0.0,0.0,0.0,0.0,0.0,0.0,0.0,0.0,0.6759,0.749,0.7813,0.8707,0.9248,0.9475,0.9714,0.9816,0.9714,0.9226,0.8784,0.8473,0.7843,0.7308,0.6841,0.7061,0.7135,0.7226,0.7337,0.7835,0.8576,0.0,0.0,0.0,0.0,0.0,0.0,0.0,0.0,0.0,0.0,0.0,0.0,0.0,0.0,0.0,1.739,1.7744,1.819,1.834,1.9035,1.9825,2.0316,2.0628,2.1081,2.2134,2.2566,2.2999,2.3986,2.4431,2.4604,0.0,2.4843,0.0,2.5863,0.0,0.0,0.0,0.0,0.0,0.0,0.0,0.0,0.0,0.0,0.0,0.0,0.0,0.0,2.344,2.2899,2.2458,2.2183,2.1616,2.1214,2.1055,2.0893,2.0794,2.0794,2.0794,2.0794,2.0794,2.0794,2.0794,2.0794,2.0794,2.0889,2.1094,2.1647,2.2374,2.318,2.3717,2.4349,2.5005,2.5045,2.5217,2.5355,0.0,0.0,0.0,0.0,0.0,0.0,0.0,0.0,0.0,0.0,0.0,0.0,0.0,0.0,0.0,0.0,0.0,0.0,0.0,0.718,0.7798,0.9254,0.9535,0.966,0.9701,1.0215,1.0385,1.0187,1.0263,0.9957,0.9144,0.9373,0.8889,0.7822,0.8016,0.7762,0.7231,0.7747,0.8166,0.8576,0.9396,0.0,0.0,0.0,0.0,0.0,0.0,0.0,0.0,0.0,0.0,0.0,0.0,0.0,1.7334,1.7601,1.7941,1.834,1.8608,1.9874,2.1159,2.1198,2.0577,2.0292,2.1856,2.2365,2.2789,2.3803,0.0,0.0,0.0,2.5617,2.569,0.0,0.0,0.0,0.0,0.0,0.0,0.0,0.0,0.0,0.0,0.0,0.0,0.0,0.0,0.0,2.2751,2.262,2.2371,2.185,2.1497,2.1433,2.1738,2.1103,2.0794,2.0794,2.0794,2.0794,2.0794,2.0794,2.0794,2.0794,2.0794,2.1189,2.1821,2.1821,2.2591,2.3844,2.3891,2.4349,2.5005,2.5217,2.5394,2.5621,0.0,0.0,0.0,0.0,0.0,0.0,0.0,0.0,0.0,0.0,0.0,0.0,0.0,0.0,0.0,0.0,0.0,0.0,0.0,0.7728,0.8509,0.9543,1.0228,1.076,1.1172,1.1436,1.1427,1.1178,1.105,1.051,0.9487,0.9691,0.9406,0.8733,0.8935,0.8868,0.8684,0.8971,0.9326,0.9709,1.0465,1.1156,0.0,0.0,0.0,0.0,0.0,0.0,0.0,0.0,1.5802,1.6379,1.7123,1.7579,1.7822,1.7931,1.8494,1.9089,1.8863,2.0129,2.1452,2.1402,2.1314,2.156,2.2564,2.3307,2.3738,2.3743,2.4351,0.0,0.0,0.0,2.5709,0.0,0.0,0.0,0.0,0.0,0.0,0.0,0.0,0.0,0.0,0.0,0.0,0.0,0.0,0.0,2.2694,2.2649,2.2485,2.2056,2.1764,2.1678,2.1797,2.1135,2.0893,2.1119,2.0893,2.0794,2.0794,2.0794,2.0794,2.0794,2.0794,2.1189,2.1884,2.2311,2.3054,2.3954,2.4551,2.5,2.5378,2.547,2.5621,2.5807,0.0,0.0,0.0,0.0,0.0,0.0,0.0,0.0,0.0,0.0,0.0,0.0,0.0,0.0,0.0,0.0,0.0,0.0,0.7109,0.8092,0.8984,0.9747,1.061,1.1383,1.2065,1.2189,1.2227,1.2123,1.2098,1.1546,1.0547,1.0771,1.0464,0.9797,0.9926,0.9831,0.9703,0.9894,1.0148,1.0465,1.1156,1.1787,0.0,0.0,0.0,0.0,0.0,0.0,0.0,0.0,1.6165,1.6652,1.739,1.7854,1.8104,1.7997,1.879,1.9583,1.9282,2.0241,2.1431,2.1609,2.1829,2.2235,2.2915,2.3724,2.4259,2.3967,2.455,2.5211,2.5246,0.0,0.0,0.0,0.0,0.0,0.0,0.0,0.0,0.0,0.0,0.0,0.0,0.0,0.0,0.0,0.0,0.0,0.0,2.2712,2.2508,2.2096,2.1969,2.1899,2.1797,2.1355,2.123,2.1464,2.1119,2.0893,2.0794,2.0794,2.0827,2.0909,2.1131,2.1657,2.2375,2.3092,2.3792,2.4515,2.5125,2.547,2.5605,2.568,2.577,2.5897,0.0,0.0,0.0,0.0,0.0,0.0,0.0,0.0,0.2139,0.2879,0.3381,0.0,0.0,0.0,0.0,0.0,0.0,0.0,0.7467,0.8302,0.9231,1.0159,1.0725,1.132,1.2003,1.2385,1.2656,1.2796,1.3461,1.3274,1.231,1.2846,1.2357,1.1017,1.1017,1.064,1.0015,1.0395,1.0514,1.0577,1.1483,1.1988,1.2428,0.0,0.0,0.0,0.0,0.0,0.0,0.0,1.6989,1.6719,1.7799,1.8084,1.8089,1.7897,1.8761,1.9775,1.9794,2.0341,2.1121,2.1969,2.1936,2.1888,2.255,2.3383,2.4112,2.4417,2.4843,2.5422,2.6317,0.0,0.0,0.0,0.0,0.0,0.0,0.0,0.0,0.0,0.0,0.0,0.0,0.0,0.0,0.0,0.0,0.0,0.0,2.2712,2.2426,2.1827,2.2068,2.2068,2.1811,2.1797,2.1797,2.1797,2.1464,2.1119,2.0794,2.0794,2.0909,2.1151,2.1889,2.2663,2.3479,2.4207,2.4956,2.5605,2.5605,2.5605,2.5642,2.5844,2.5881,2.5934,0.0,0.0,0.0,0.0,0.0,0.0,0.0,0.0,0.2298,0.2787,0.3507,0.0,0.0,0.0,0.0,0.0,0.0,0.0,0.6923,0.7616,0.8483,0.9542,1.0213,1.1027,1.2003,1.2491,1.2889,1.314,1.3271,1.3222,1.3116,1.2608,1.2429,1.2389,1.1973,1.167,1.1483,1.1663,1.1794,1.1794,1.2421,1.285,1.3208,0.0,0.0,0.0,0.0,0.0,0.0,0.0,0.0,0.0,1.8494,1.8721,1.8667,1.8503,1.8896,1.9387,1.8988,2.0175,2.1497,2.1255,2.2277,2.3518,2.422,2.4234,0.0,0.0,2.5761,2.6156,2.6856,0.0,0.0,0.0,0.0,0.0,0.0,0.0,0.0,0.0,0.0,0.0,0.0,0.0,0.0,0.0,0.0,0.0,0.0,2.2816,2.2632,2.2426,2.2265,2.2292,2.2508,2.1811,2.1705,2.222,2.2184,2.1682,2.081,2.1483,2.1823,2.1921,2.2747,2.3527,2.4223,2.4989,2.5501,2.5807,2.5807,2.5897,2.6023,2.6096,2.6222,2.6364,0.0,0.0,0.0,0.0,0.0,0.0,0.1925,0.2167,0.2414,0.2751,0.3399,0.3909,0.0,0.0,0.0,0.5502,0.6146,0.6588,0.6712,0.7348,0.8159,0.926,0.9878,1.0796,1.1945,1.2594,1.2923,1.3001,1.3003,1.3209,1.3545,1.271,1.2789,1.3554,1.2666,1.235,1.2466,1.2549,1.2472,1.2414,1.2976,1.3398,1.37,0.0,0.0,0.0,0.0,0.0,0.0,0.0,0.0,0.0,1.8827,1.8948,1.8873,1.8746,1.9166,1.9672,1.9636,2.0726,2.1945,2.2123,2.3288,2.4684,2.6046,0.0,0.0,0.0,2.7326,2.7623,2.8236,0.0,0.0,0.0,0.0,0.0,0.0,0.0,0.0,0.0,0.0,0.0,0.0,0.0,0.0,0.0,0.0,0.0,0.0,2.3003,2.2825,2.2686,2.2527,2.25,2.2634,2.2485,2.2562,2.2873,2.3227,2.2992,2.2216,2.2687,2.2882,2.2997,2.3799,2.4589,2.5349,2.5701,2.5954,2.6187,2.6043,2.6096,2.622,2.622,2.631,2.6415,0.0,0.0,0.0,0.0,0.0,0.0,0.1947,0.224,0.253,0.283,0.3119,0.3369,0.0,0.0,0.0,0.4967,0.6169,0.6875,0.6663,0.7241,0.8105,0.9205,0.9811,1.0666,1.1945,1.2687,1.2885,1.2621,1.2751,1.3084,1.3685,1.2911,1.3243,1.441,1.3183,1.2802,1.3079,1.305,1.2872,1.2597,1.3246,1.3682,1.3912,1.3939,0.0,0.0,0.0,0.0,0.0,0.0,0.0,0.0,1.8827,1.8885,1.8734,1.8784,1.9512,2.0424,2.1062,2.1773,2.2636,2.4066,2.486,2.5822,2.7921,2.8322,2.8401,2.8943,0.0,2.9436,0.0,0.0,0.0,0.0,0.0,0.0,0.0,0.0,0.0,0.0,0.0,0.0,0.0,0.0,0.0,0.0,0.0,0.0,0.0,2.3259,2.3017,2.2746,2.2816,2.2747,2.2569,2.3552,2.3977,2.3762,2.455,2.4774,2.4495,2.4179,2.4132,2.4314,2.4996,2.5781,2.6572,2.6345,2.638,2.6572,2.631,2.622,2.622,2.622,2.622,2.6239,0.0,0.0,0.0,0.0,0.0,0.0,0.2311,0.2567,0.2903,0.322,0.3282,0.3513,0.418,0.4671,0.0,0.5403,0.5991,0.6334,0.6287,0.6707,0.7558,0.8916,1.0629,1.1678,1.2011,1.2448,1.2701,1.2621,1.2639,1.2972,1.35,1.259,1.2991,1.446,1.3253,1.313,1.3789,1.3392,1.3072,1.287,1.36,1.3582,1.3123,1.372,1.4011,0.0,0.0,0.0,0.0,0.0,0.0,0.0,1.8934,1.8963,1.8906,1.8763,1.9426,2.0302,2.0669,2.236,2.4219,2.4831,2.6703,2.8596,2.9496,3.0285,3.054,2.9644,2.9622,0.0,0.0,0.0,0.0,0.0,0.0,0.0,0.0,0.0,0.0,0.0,0.0,0.0,0.0,0.0,0.0,0.0,0.0,0.0,2.381,2.3606,2.3382,2.3188,2.3164,2.3407,2.3816,2.3757,2.4164,0.0,2.5512,2.5875,2.6086,2.5272,2.5212,2.5758,2.6337,2.6606,2.6589,2.6554,2.6554,2.6572,2.631,2.622,2.622,2.622,2.6345,2.6468,0.0,0.0,0.0,0.0,0.0,0.0,0.0,0.0,0.4281,0.4108,0.4198,0.4408,0.4749,0.5125,0.0,0.0,0.6036,0.6276,0.6182,0.6386,0.729,0.906,1.1182,1.2274,1.2274,1.2464,1.2541,1.2305,1.2486,1.2929,1.3743,1.2763,1.3156,1.4581,1.3611,1.3354,1.3657,1.3431,1.3257,1.3215,1.3898,1.3936,1.3603,1.3993,1.4244,1.4552,1.5616,0.0,0.0,0.0,0.0,0.0,0.0,0.0,1.9307,1.9321,2.012,2.1154,2.1968,2.3345,2.4885,2.6383,2.8312,3.0049,3.0782,3.1509,3.1812,3.1313,0.0,0.0,0.0,0.0,0.0,0.0,0.0,0.0,0.0,0.0,0.0,0.0,0.0,0.0,0.0,0.0,0.0,0.0,0.0,2.465,2.4132,2.3899,2.3753,2.3685,2.3939,2.4171,2.4396,2.4963,2.5487,2.5998,2.6545,2.6852,2.6964,2.6326,2.6252,2.6589,2.6725,2.6859,2.6957,2.6859,2.6792,2.6759,2.6503,2.631,2.622,2.622,2.6293,2.6452,0.0,0.0,0.0,0.0,0.0,0.0,0.0,0.0,0.0,0.5058,0.5199,0.5408,0.5424,0.5702,0.5901,0.0,0.0,0.0,0.6295,0.6536,0.7548,0.9473,1.1352,1.2436,1.2621,1.256,1.2437,1.2078,1.2373,1.294,1.3767,1.2989,1.3359,1.4608,1.3886,1.3485,1.3477,1.3441,1.3426,1.3509,1.4071,1.4262,1.422,1.43,1.453,1.4831,1.56,1.6367,1.7146,1.7847,0.0,0.0,0.0,0.0,1.9685,1.9993,2.0945,2.2191,2.3379,2.4281,2.5536,2.8092,2.9668,0.0,3.1683,3.2179,3.2507,3.2852,0.0,0.0,0.0,0.0,0.0,0.0,0.0,0.0,0.0,0.0,0.0,0.0,0.0,0.0,0.0,0.0,0.0,0.0,0.0,2.5118,2.4543,2.4355,2.4295,2.4315,2.4881,2.5154,2.5088,2.6361,2.6961,2.6891,2.7432,2.7612,2.7434,2.7198,2.7038,2.7006,2.6859,2.7023,2.7373,2.7166,2.7038,2.6973,2.6691,2.645,2.6203,2.6274,2.6312,2.633,0.0,0.0,0.0,0.0,0.0,0.0,0.0,0.0,0.0,0.0,0.5463,0.5616,0.6191,0.6037,0.6125,0.6579,0.6735,0.674,0.6712,0.0,0.0,1.0033,1.0986,1.1809,1.256,1.2552,1.2429,1.2364,1.2394,1.2606,0.0,0.0,1.2987,1.4025,1.3453,1.3584,1.4152,1.3669,1.36,1.3762,1.3765,1.3631,1.3429,1.4022,1.4316,1.4576,1.5404,1.617,1.6865,1.7483,1.7776,0.0,0.0,0.0,1.9552,2.0153,2.1393,2.263,2.2809,2.4847,2.737,2.9252,3.054,3.1459,0.0,0.0,3.2639,0.0,0.0,0.0,0.0,0.0,0.0,0.0,0.0,0.0,0.0,0.0,0.0,0.0,0.0,0.0,0.0,0.0,0.0,0.0,2.6872,2.6142,2.5373,2.5374,2.5335,2.5217,2.5968,2.6571,2.7013,2.7,2.7317,2.7905,2.7776,2.7701,2.7642,2.7448,2.7215,2.7038,2.74,2.7491,2.7404,2.7373,2.7198,2.6973,2.6691,2.645,2.6239,2.6607,2.6556,2.6365,0.0,0.0,0.0,0.0,0.0,0.0,0.0,0.0,0.0,0.0,0.0,0.6376,0.6822,0.6587,0.6511,0.6787,0.6791,0.6911,0.7146,0.8436,0.9431,0.9797,1.076,1.1677,1.2428,1.2292,1.2244,1.2411,1.253,1.2706,0.0,1.2928,1.3048,0.0,0.0,1.3462,1.328,1.3387,1.3409,1.33,1.3521,1.3989,1.4488,1.4009,1.4501,1.5395,1.489,1.5412,1.6372,1.6965,1.7665,1.8351,1.8969,0.0,0.0,0.0,2.2017,2.3257,2.3772,2.5584,2.7661,2.9197,3.0537,3.1654,3.2179,0.0,3.2672,0.0,0.0,0.0,0.0,0.0,0.0,0.0,0.0,0.0,0.0,0.0,0.0,0.0,0.0,0.0,0.0,0.0,0.0,0.0,2.7664,2.7112,2.6432,2.634,2.6302,2.6244,2.7021,2.7469,2.7556,2.7755,2.7923,2.8102,2.7964,2.7926,2.7926,2.7672,2.7491,2.74,2.7509,2.7539,2.7569,2.7569,2.7338,2.7006,2.6892,2.6572,2.6239,2.6435,2.6573,2.6657,0.0,0.0,0.0,0.0,0.0,0.0,0.0,0.0,0.0,0.0,0.0,0.6889,0.7264,0.0,0.0,0.0,0.713,0.7313,0.7791,0.8819,0.9482,0.9674,1.0677,1.1545,1.2305,1.2194,1.2299,1.2555,1.2678,0.0,1.2958,1.3131,1.3231,0.0,1.3669,1.3469,0.0,0.0,0.0,1.3308,1.3916,1.4766,1.5631,1.5028,1.5683,1.6776,1.5211,1.544,1.6492,1.6479,1.7196,1.82,1.9008,1.992,0.0,0.0,0.0,2.3141,2.4085,2.5481,2.6989,2.8523,3.0101,3.147,0.0,0.0,0.0,0.0,0.0,0.0,0.0,0.0,0.0,0.0,0.0,0.0,0.0,0.0,0.0,0.0,0.0,0.0,0.0,0.0,0.0,0.0,2.8234,2.7863,2.7435,2.727,2.7213,2.7213,2.8013,2.8341,2.8132,2.8474,2.8478,2.8192,2.8112,2.8102,2.8102,2.7811,2.7701,2.7701,2.7539,2.7569,2.7701,2.7642,2.7369,2.7006,2.6923,2.6623,2.6239,2.6521,2.6707,2.6905,0.0,0.0,0.0,0.0,0.0,0.0,0.0,0.0,0.0,0.0,0.0,0.6776,0.744,0.7092,0.7135,0.7852,0.7952,0.821,0.8849,0.8988,0.9384,1.0218,1.0773,0.0,1.2305,1.2679,1.2889,1.294,1.2777,1.2786,1.2995,1.2936,1.3459,1.4371,1.4004,1.369,1.3548,0.0,0.0,1.431,1.543,1.5856,1.6051,1.7733,1.8531,1.857,1.7147,0.0,1.7666,1.6095,1.6044,1.6779,1.7913,1.8604,1.9252,0.0,0.0,0.0,2.2608,2.3795,0.0,2.7276,2.9245,3.0923,0.0,0.0,0.0,0.0,0.0,0.0,0.0,0.0,0.0,0.0,0.0,0.0,0.0,0.0,0.0,0.0,0.0,0.0,0.0,0.0,0.0,0.0,2.869,2.8203,2.824,2.8107,2.8046,2.803,2.8886,2.9312,2.9312,2.9075,2.8803,2.8478,2.8219,2.8102,2.8102,2.7811,2.7701,2.7701,2.7701,2.7701,2.7701,2.7478,2.7261,2.6973,2.6791,2.6504,2.6293,2.7144,2.7189,2.7017,0.0,0.0,0.0,0.0,0.0,0.0,0.0,0.0,0.0,0.0,0.0,0.0,0.0,0.7654,0.7751,0.8301,0.8506,0.8692,0.8726,0.9128,0.9648,1.0329,1.0795,1.1578,1.2903,1.2729,1.301,1.38,1.3256,1.3372,1.4042,1.3983,1.4175,1.4553,1.3661,1.3304,1.3342,1.3136,0.0,0.0,0.0,1.5608,1.6713,1.729,0.0,0.0,0.0,0.0,0.0,1.7147,1.7142,1.7287,1.8795,1.9654,2.0215,0.0,0.0,2.1721,0.0,0.0,0.0,2.6538,2.8442,3.0213,3.137,0.0,0.0,0.0,0.0,0.0,0.0,0.0,0.0,0.0,0.0,0.0,0.0,0.0,0.0,0.0,0.0,0.0,0.0,0.0,0.0,0.0,0.0,2.9102,2.9245,2.9063,2.894,2.8942,2.924,2.9304,2.9156,2.9222,2.9007,2.8504,2.8384,2.8272,2.8102,2.7811,2.7701,2.7701,2.7701,2.7701,2.7701,2.7748,2.7509,2.707,2.7068,2.6889,2.6708,2.7083,2.7396,2.7619,0.0,0.0,0.0,0.0,0.0,0.0,0.0,0.0,0.0,0.7531,0.0,0.0,0.0,0.0,0.8414,0.863,0.8958,0.911,0.8854,0.9432,0.9936,1.0456,1.117,1.2073,1.326,1.3124,1.3442,1.4281,1.3502,1.36,1.4376,1.4217,1.4323,1.4585,1.344,1.3142,0.0,0.0,0.0,1.2355,0.0,0.0,1.6503,0.0,0.0,0.0,0.0,0.0,0.0,0.0,0.0,0.0,0.0,0.0,0.0,0.0,0.0,0.0,2.1647,0.0,0.0,0.0,0.0,2.8795,3.0723,0.0,0.0,0.0,0.0,0.0,0.0,0.0,0.0,0.0,0.0,0.0,0.0,0.0,0.0,0.0,0.0,0.0,0.0,0.0,0.0,0.0,0.0,0.0,2.988,2.9699,2.955,2.9471,2.9409,2.9304,2.9134,2.9304,2.916,2.867,2.8652,2.8529,2.8246,2.8102,2.7964,2.7886,2.7886,2.78,2.7701,2.7806,2.7552,2.7117,2.7195,2.7115,2.6937,2.7195,2.7595,2.7954,0.0,0.0,0.0,0.0,0.0,0.0,0.0,0.0,0.6973,0.8248,0.0,0.0,0.0,0.0,0.0,0.9035,0.9332,0.9479,0.9383,0.9905,1.0308,1.058,1.1881,1.2781,1.3304,1.3834,1.422,1.444,1.3551,1.3447,1.4039,0.0,1.377,1.4619,1.34,1.3277,1.4132,0.0,1.4666,1.3795,0.0,1.6907,1.5408,0.0,0.0,0.0,1.7993,1.8207,0.0,0.0,0.0,0.0,0.0,0.0,0.0,0.0,0.0,0.0,0.0,0.0,0.0,0.0,0.0,0.0,0.0,0.0,0.0,0.0,0.0,0.0,0.0,0.0,0.0,0.0,0.0,0.0,0.0,0.0,0.0,0.0,0.0,0.0,0.0,0.0,0.0,0.0,3.0118,3.0022,3.0095,2.9962,2.9803,2.9608,2.9471,2.9407,2.9407,2.9407,2.9283,2.9003,2.9012,2.886,2.8603,2.8676,2.8529,2.821,2.821,2.8037,2.773,2.7654,2.743,2.7117,2.7117,2.7051,2.6985,2.7517,2.7829,2.801,0.0,0.0,0.0,0.0,0.0,0.7916,0.7923,0.7751,0.796,0.0,0.0,0.0,0.981,0.9972,0.998,0.9735,1.004,0.9979,0.9425,0.9945,1.0435,1.086,1.1715,1.2689,1.3856,1.383,1.4248,1.5143,1.401,1.3883,1.472,1.4239,1.4158,0.0,1.4034,1.3615,1.3186,1.3553,0.0,0.0,1.5392,1.6381,0.0,0.0,0.0,0.0,0.0,2.0093,0.0,0.0,1.9758,1.9344,0.0,0.0,0.0,0.0,0.0,0.0,1.9067,0.0,0.0,0.0,0.0,0.0,0.0,0.0,0.0,0.0,0.0,0.0,0.0,0.0,0.0,0.0,0.0,0.0,0.0,0.0,0.0,0.0,0.0,0.0,0.0,0.0,0.0,0.0,3.0015,2.9888,2.9946,2.9699,2.957,2.9608,2.9551,2.9492,2.9407,2.9492,2.9373,2.9003,2.9012,2.886,2.8603,2.8676,2.8628,2.8478,2.8554,2.8435,2.8272,2.8219,2.8037,2.7833,2.7918,2.789,2.7805,2.7936,2.802,2.8047,0.0,0.0,0.9075,0.8318,0.8493,0.8794,0.889,0.872,0.8948,0.0,0.0,0.0,1.029,1.0505,1.0434,1.002,1.0282,1.0158,0.9516,1.0119,1.0629,1.088,1.1688,1.2699,1.3904,1.3844,1.4334,1.5401,1.4165,1.3946,1.4694,1.3987,1.3664,1.3651,1.3434,1.3374,1.3417,0.0,0.0,0.0,1.5399,0.0,0.0,1.8382,1.9294,0.0,0.0,0.0,1.952,2.0908,2.0325,0.0,0.0,0.0,0.0,0.0,0.0,0.0,0.0,0.0,0.0,0.0,0.0,0.0,0.0,0.0,0.0,0.0,0.0,0.0,0.0,0.0,0.0,0.0,0.0,0.0,0.0,0.0,0.0,0.0,0.0,0.0,0.0,3.0204,3.0232,3.0279,3.003,2.9902,2.9977,2.9803,2.9751,2.9851,2.9767,2.9644,2.9531,2.957,2.9395,2.9003,2.9144,2.9082,2.8814,2.902,2.902,2.886,2.8906,2.8842,2.8748,2.8713,2.8446,2.8102,2.8192,2.8166,2.8102,2.8102,2.8102,2.8075,0.0,0.0,0.9191,0.8554,0.9248,0.9892,0.9892,0.9587,0.9973,0.0,1.0955,1.0566,1.086,1.0944,1.0736,1.0186,1.04,1.0331,0.9754,1.0426,1.083,1.0742,1.1762,1.2679,1.3578,1.3777,1.4413,1.5378,1.4068,1.3721,1.4265,1.3204,1.2708,1.2693,1.2253,1.2805,1.4018,1.377,0.0,1.2799,1.6386,1.6685,0.0,0.0,1.9015,0.0,2.0266,2.0138,1.9305,2.138,2.0855,0.0,0.0,0.0,0.0,0.0,1.6714,0.0,0.0,0.0,0.0,0.0,0.0,0.0,0.0,0.0,0.0,0.0,0.0,0.0,0.0,0.0,0.0,0.0,0.0,0.0,0.0,0.0,0.0,0.0,0.0,0.0,0.0,3.0185,3.0226,3.0279,3.0133,3.0037,3.0109,3.0095,3.0109,3.0215,3.0026,2.9853,2.9698,2.9662,2.9435,2.9048,2.9373,2.9395,2.9193,2.9551,2.9551,2.9272,2.9251,2.9209,2.9148,2.9148,2.8772,2.821,2.821,2.8183,2.8156,2.8156,2.8102,2.8047,0.8125,0.9077,0.9788,0.9439,1.0176,1.075,1.065,1.0604,1.0879,1.1507,1.1628,1.1674,1.1741,1.1735,1.1503,1.116,1.1353,1.1172,1.0373,1.1005,1.1142,1.0492,1.1649,1.2506,1.2876,1.363,1.4357,1.5055,1.4049,1.3825,1.4265,1.3301,1.2606,1.2158,1.2319,1.243,1.2494,0.0,0.0,1.5095,1.7023,0.0,1.7721,2.028,2.1418,2.178,2.2768,2.3245,2.3432,0.0,2.2313,2.0846,0.0,0.0,0.0,0.0,0.0,0.0,0.0,0.0,0.0,0.0,0.0,0.0,0.0,0.0,0.0,0.0,0.0,0.0,0.0,0.0,0.0,0.0,0.0,0.0,0.0,0.0,0.0,0.0,0.0,0.0,0.0,3.009,3.0221,3.0292,3.0155,3.0095,3.0109,2.9992,3.0026,3.0182,3.0109,2.9946,2.9698,2.9786,2.9681,2.9312,2.9551,2.9661,2.9661,2.9805,2.9805,2.968,2.9626,2.9531,2.9414,2.9353,2.9163,2.8892,2.8892,2.8743,2.8492,2.8492,2.821,2.7771,0.8673,0.9564,1.0293,1.0353,1.11,1.1704,1.1802,1.1615,1.1781,1.2488,1.2514,1.226,1.1728,1.1795,1.1785,1.1637,1.1713,1.1563,1.1214,1.1273,1.1187,1.0918,1.1306,1.2059,1.3132,1.3382,1.4116,1.5363,1.4132,1.3801,1.4332,1.3034,1.3107,1.4177,1.25,1.2887,0.0,0.0,1.4036,1.4992,1.773,0.0,1.9913,2.2213,2.3336,2.3794,2.4353,2.4839,2.5,2.3955,2.2757,0.0,0.0,2.0438,1.975,0.0,1.8005,1.9014,0.0,0.0,0.0,1.9923,0.0,0.0,0.0,0.0,0.0,0.0,0.0,0.0,0.0,0.0,0.0,0.0,0.0,0.0,0.0,0.0,0.0,0.0,0.0,0.0,0.0,3.0079,3.018,3.0147,3.0215,3.0196,3.0109,3.0122,3.0209,3.0348,3.0316,3.0196,2.9943,3.0022,2.9912,2.9662,2.9799,2.9861,2.9912,2.9902,2.9888,2.9836,2.9737,2.9664,2.9589,2.9569,2.9431,2.9225,2.9141,2.9007,2.8827,2.8767,2.8334,2.7833,0.9268,1.0067,1.0766,1.1197,1.1906,1.2553,1.2755,1.2523,1.2575,1.3355,1.3279,1.2763,0.0,0.0,0.0,0.0,0.0,1.1989,1.1986,1.1518,1.1339,1.1512,1.1194,1.179,1.3408,1.3223,1.3792,1.5256,1.4105,1.378,1.4213,1.281,1.3386,1.5507,0.0,0.0,0.0,0.0,0.0,1.5481,0.0,1.9968,2.0339,2.3207,2.4293,2.4469,2.5449,2.5804,2.56,2.4238,0.0,2.2143,2.2532,2.1764,0.0,0.0,0.0,0.0,0.0,0.0,0.0,0.0,0.0,2.1507,0.0,0.0,0.0,0.0,0.0,0.0,0.0,0.0,0.0,0.0,0.0,0.0,0.0,0.0,0.0,0.0,0.0,0.0,0.0,2.9882,2.9947,3.0052,3.0075,3.0107,3.015,3.0309,3.0428,3.0499,3.0499,3.0406,3.0228,3.0216,3.0103,2.9908,3.0023,3.0065,3.0056,3.0018,2.9992,2.9965,2.9841,2.9773,2.9773,2.9773,2.9682,2.9513,2.9254,2.9148,2.9064,2.8938,2.8522,2.8031,0.9697,1.0511,1.1311,1.1674,1.2657,1.3265,1.2704,1.3092,1.3356,1.3108,1.3266,0.0,0.0,0.0,0.0,0.0,0.0,0.0,1.228,0.0,1.2053,1.201,1.1905,1.2189,1.2873,1.3237,1.3531,1.3728,1.3712,1.3678,1.3666,1.3032,1.2556,1.2411,1.4446,0.0,0.0,0.0,1.7612,0.0,2.0348,1.8608,0.0,2.1545,2.3274,2.3299,2.6303,2.6976,2.6273,0.0,2.4014,2.2892,0.0,2.1534,2.3284,0.0,0.0,0.0,0.0,0.0,0.0,0.0,2.1038,0.0,0.0,0.0,0.0,0.0,0.0,0.0,0.0,0.0,0.0,0.0,0.0,0.0,0.0,0.0,0.0,0.0,0.0,0.0,0.0,0.0,2.9265,3.019,2.9474,2.9392,3.0316,3.0394,3.0428,3.0499,3.0499,3.0417,3.0285,3.0228,3.0131,2.9999,3.0186,3.0274,3.0271,3.0323,3.0312,3.0247,3.0103,3.0052,3.0052,3.0052,3.0052,2.9973,2.9533,2.9251,2.9064,2.8938,2.8658,2.8324,1.0975,1.1138,1.1502,1.2143,1.2672,1.3092,1.3184,1.3548,1.3611,1.3055,0.0,0.0,0.0,0.0,0.0,0.0,0.0,1.2998,0.0,0.0,1.2512,1.2966,1.2162,1.2309,1.363,1.3342,1.3442,1.4014,1.3772,1.357,1.3473,1.2628,1.3107,1.474,1.5213,0.0,1.787,0.0,0.0,0.0,0.0,0.0,0.0,2.3197,2.5702,2.5736,2.713,2.7395,2.7081,0.0,2.4881,0.0,0.0,0.0,0.0,0.0,0.0,0.0,0.0,0.0,0.0,0.0,0.0,0.0,2.0962,0.0,2.0644,0.0,0.0,0.0,0.0,0.0,0.0,0.0,0.0,0.0,0.0,0.0,0.0,0.0,0.0,0.0,0.0,0.0,0.0,0.0,0.0,2.9384,3.034,3.0436,3.0469,3.0499,3.053,3.053,3.0472,3.0453,3.0424,3.0414,3.0486,3.0506,3.047,3.0433,3.0365,3.0294,3.0157,3.0109,3.0109,3.0109,3.0109,3.0075,2.988,2.9696,2.9533,2.9272,2.8975,2.8693,1.2132,1.1707,1.1606,1.2419,1.2683,1.2992,1.3922,1.4001,1.3939,0.0,0.0,0.0,1.3499,1.3058,0.0,0.0,1.3617,1.3457,0.0,0.0,1.3214,1.4159,1.2699,0.0,1.4446,1.3402,1.3219,1.3958,1.3717,1.3561,1.3429,1.2533,1.3421,1.5758,1.5595,1.7198,1.9996,0.0,0.0,1.8778,1.8668,1.8777,1.9591,2.4612,2.698,2.7625,2.7625,2.7625,2.7515,2.7156,2.545,0.0,2.5901,0.0,0.0,0.0,0.0,0.0,2.0945,0.0,0.0,0.0,0.0,0.0,0.0,0.0,0.0,0.0,0.0,0.0,0.0,0.0,0.0,0.0,0.0,0.0,0.0,0.0,0.0,0.0,0.0,0.0,0.0,0.0,0.0,0.0,0.0,0.0,3.034,3.0466,3.0519,3.052,3.0577,3.0618,3.062,3.0639,3.0645,3.0697,3.0715,3.0682,3.0626,3.0547,3.0466,3.0395,3.0312,3.026,3.0248,3.0232,3.0239,3.0239,3.0184,3.0109,2.9962,2.9589,2.9299,2.9101,1.3076,1.2226,1.1733,1.2501,1.2805,1.3468,1.4942,1.4501,0.0,0.0,0.0,0.0,0.0,0.0,0.0,0.0,0.0,1.4608,1.4561,0.0,1.444,0.0,0.0,1.3483,0.0,1.3513,1.2839,1.2851,1.3348,1.3594,1.3589,1.3084,1.2968,1.3232,1.5535,1.6662,1.7007,1.9519,2.2013,2.4268,2.364,2.4911,2.6995,0.0,2.533,2.7625,2.7625,0.0,0.0,2.6093,2.56,0.0,0.0,0.0,0.0,0.0,0.0,0.0,0.0,0.0,0.0,2.0545,0.0,0.0,0.0,0.0,1.9271,0.0,0.0,0.0,0.0,0.0,0.0,0.0,0.0,0.0,0.0,0.0,0.0,0.0,0.0,0.0,0.0,0.0,0.0,0.0,0.0,0.0,3.0302,3.0466,3.053,3.0602,3.061,3.0626,3.0706,3.0706,3.0706,3.0711,3.0765,3.0765,3.0706,3.0765,3.0742,3.0682,3.0682,3.0682,3.0677,3.0614,3.0586,3.0571,3.0364,3.0294,3.0227,2.9758,2.9587,2.9532,1.3418,1.2989,1.2604,1.2519,1.2997,1.3663,1.4623,1.4559,0.0,0.0,0.0,0.0,0.0,1.4266,1.4147,0.0,0.0,1.4658,1.5089,1.4689,0.0,0.0,0.0,1.4243,0.0,0.0,0.0,1.3344,1.3735,1.3864,1.3727,1.3221,1.3115,1.3452,0.0,1.723,0.0,0.0,0.0,0.0,0.0,2.4418,2.5674,0.0,0.0,2.7625,2.7625,2.7625,0.0,2.7066,2.6081,2.5274,2.6505,2.5555,2.4351,2.6389,2.6739,0.0,0.0,0.0,2.7352,2.3302,0.0,0.0,0.0,0.0,0.0,0.0,0.0,0.0,0.0,0.0,0.0,0.0,0.0,0.0,0.0,0.0,0.0,0.0,0.0,0.0,0.0,0.0,0.0,0.0,0.0,0.0,0.0,3.051,3.0576,3.0602,3.0639,3.0706,3.0765,3.0768,3.0796,3.0831,3.0856,3.0831,3.0768,3.0796,3.0765,3.0711,3.0711,3.0711,3.0706,3.0672,3.0661,3.0656,3.0594,3.0545,3.0461,3.006,2.9939,2.9924,1.4647,1.4559,1.4249,1.3493,1.4224,1.5114,0.0,0.0,0.0,0.0,1.5584,0.0,1.5723,0.0,1.4916,0.0,1.5452,1.5437,1.5737,1.5712,0.0,1.6965,1.587,0.0,0.0,0.0,0.0,0.0,0.0,1.4736,1.4132,1.3728,1.3662,1.3974,0.0,1.7322,2.0707,0.0,2.2188,0.0,0.0,2.5531,0.0,0.0,2.747,2.6617,0.0,2.771,2.7894,2.7894,2.7269,2.67,2.8357,2.7307,2.5956,2.8417,2.853,2.7889,2.7993,2.9107,0.0,2.5463,2.5185,0.0,2.1387,0.0,0.0,0.0,0.0,0.0,0.0,0.0,0.0,0.0,0.0,0.0,0.0,0.0,0.0,0.0,0.0,0.0,0.0,0.0,0.0,0.0,0.0,0.0,0.0,0.0,3.0614,3.062,3.0706,3.0768,3.0831,3.0831,3.0857,3.0857,3.0898,3.0859,3.0799,3.0799,3.0776,3.0747,3.0747,3.0747,3.0745,3.0742,3.0732,3.0732,3.0715,3.0667,3.0594,3.0304,3.0151,3.0103,1.6559,1.6764,1.6538,1.5431,1.6449,0.0,0.0,0.0,1.7471,0.0,1.7641,1.6857,1.736,1.702,1.681,1.7,1.7011,0.0,1.6504,1.7179,0.0,0.0,1.7315,1.7601,1.8629,0.0,0.0,0.0,0.0,0.0,1.491,1.4602,1.4466,1.4521,1.4629,0.0,2.079,2.1488,2.4056,2.771,2.8158,2.8275,2.8261,2.8888,2.724,2.4927,2.6954,2.8042,2.8511,2.8511,2.8904,2.9451,2.9629,2.9897,3.0294,3.087,3.135,3.1323,2.9809,2.9487,2.9035,2.6903,0.0,0.0,0.0,0.0,2.1931,0.0,0.0,0.0,0.0,0.0,0.0,0.0,0.0,0.0,0.0,0.0,0.0,0.0,0.0,0.0,0.0,0.0,0.0,0.0,0.0,0.0,0.0,0.0,3.0601,3.0693,3.076,3.0831,3.0898,3.0898,3.0857,3.0801,3.0857,3.0856,3.0799,3.0799,3.0799,3.0799,3.0799,3.0799,3.0804,3.0798,3.0804,3.0782,3.0735,3.0735,3.076,3.054,3.0389,3.0286,1.7194,1.7762,1.8373,0.0,1.7936,1.7698,0.0,0.0,0.0,0.0,1.7595,1.6965,1.7556,1.7177,1.6989,1.7157,1.7213,0.0,0.0,0.0,0.0,1.9471,1.9016,1.894,1.9239,1.8466,0.0,1.7946,0.0,0.0,1.6531,1.4687,1.408,1.4506,0.0,0.0,2.127,2.2191,2.4951,2.8748,2.8842,2.7992,0.0,0.0,2.7791,2.6104,2.8014,2.8873,2.9011,2.9011,2.9255,2.9657,3.0278,3.063,3.0931,3.1718,3.223,3.2284,3.1288,3.133,3.0939,2.7991,2.7218,2.6573,0.0,0.0,0.0,0.0,0.0,0.0,0.0,0.0,0.0,0.0,0.0,0.0,0.0,0.0,0.0,0.0,0.0,0.0,0.0,0.0,0.0,0.0,0.0,0.0,0.0,0.0,0.0,3.0674,3.0814,3.0878,3.0898,3.0855,3.0825,3.0801,3.0768,3.0735,3.0728,3.0728,3.0728,3.0728,3.0771,3.0768,3.0732,3.0788,3.0796,3.0796,3.0779,3.1169,3.1724,3.1631,3.1981,3.2486,1.8723,0.0,0.0,2.074,0.0,0.0,1.9857,0.0,0.0,1.9219,1.8431,0.0,1.8333,1.8159,1.8104,1.8147,1.8447,0.0,1.877,0.0,0.0,2.0253,2.0267,2.0424,2.0685,2.0255,0.0,1.9251,0.0,0.0,1.6375,1.5095,1.4502,1.4604,0.0,1.7078,0.0,2.3079,2.551,2.775,2.8981,0.0,0.0,2.9625,2.9575,2.8915,2.9987,3.0058,2.9685,2.9685,2.9978,3.0402,3.0999,3.1367,3.1631,3.1911,3.2264,3.2367,3.1588,3.1636,3.1454,2.9673,2.9038,2.8301,2.6245,2.5493,2.5254,0.0,0.0,0.0,0.0,0.0,0.0,0.0,0.0,0.0,0.0,0.0,0.0,0.0,0.0,0.0,0.0,0.0,0.0,0.0,0.0,0.0,0.0,0.0,0.0,3.0753,3.0469,3.0487,3.0898,3.0433,3.0372,3.0762,3.072,3.0677,3.0656,3.0656,3.0656,3.0656,3.0667,3.0661,3.0656,3.0691,3.0946,3.1363,3.1734,3.2185,3.2654,3.2988,3.3156,3.321,2.0636,0.0,0.0,0.0,0.0,0.0,0.0,2.0688,0.0,2.0237,0.0,1.9328,1.9328,1.942,1.9512,1.9512,0.0,2.0114,1.9684,2.07,2.109,2.0683,2.124,2.1813,2.2278,2.2239,0.0,0.0,0.0,0.0,1.5651,1.561,0.0,0.0,0.0,0.0,0.0,2.4256,2.6161,2.6656,2.916,3.0344,3.067,3.1287,3.1696,3.2039,3.2021,3.138,3.0526,3.0526,3.0885,3.1389,3.175,3.2022,3.2119,3.1782,3.1869,3.1872,3.1138,3.0974,3.1016,3.0984,3.0485,2.9677,2.8264,2.742,2.6924,2.6924,2.5805,2.5621,0.0,0.0,0.0,0.0,0.0,0.0,0.0,0.0,0.0,0.0,0.0,0.0,0.0,0.0,0.0,0.0,0.0,0.0,0.0,0.0,0.0,3.0839,3.0089,0.0,3.0702,0.0,2.9874,3.0497,3.0598,3.062,3.0556,3.0556,3.0556,3.0556,3.0507,3.0516,3.0576,3.0683,3.1262,3.2188,3.3063,3.34,3.351,3.4309,3.4137,3.3379,0.0,0.0,0.0,0.0,0.0,2.2824,2.2184,2.1331,2.0914,2.1432,2.0656,2.0042,2.0042,2.0042,2.0042,2.0042,2.0633,0.0,0.0,0.0,0.0,2.1876,2.2346,2.2692,2.2797,2.2381,2.1771,0.0,0.0,0.0,1.7019,1.6038,0.0,0.0,0.0,0.0,2.4161,2.62,0.0,2.9922,3.0734,3.1145,3.1304,3.1771,3.2039,3.2109,3.2196,3.2039,3.179,3.179,3.1933,3.2179,3.2502,3.219,3.1765,3.2025,3.1681,3.1021,3.0251,3.0085,2.9973,2.9393,2.9168,2.9057,2.8828,2.8663,2.8572,2.8572,2.8352,2.7934,2.7163,0.0,0.0,0.0,0.0,0.0,0.0,0.0,0.0,0.0,0.0,0.0,0.0,0.0,0.0,0.0,0.0,0.0,0.0,0.0,0.0,0.0,0.0,0.0,0.0,0.0,3.0017,2.9482,3.0085,3.0364,3.0359,3.0359,3.0359,3.034,3.0334,3.0342,3.041,3.1135,3.1911,3.2742,3.3611,3.3984,3.4138,3.4885,3.5094,3.502,0.0,0.0,0.0,0.0,0.0,0.0,0.0,2.2082,0.0,2.1406,2.1017,2.0733,2.0733,2.0782,2.0818,2.0818,2.1369,2.1732,2.1732,2.2263,2.2555,2.2555,2.2797,0.0,2.2992,2.279,2.2191,2.1252,0.0,0.0,1.7178,1.6846,0.0,1.591,0.0,2.0234,0.0,0.0,0.0,2.9482,3.1085,3.1878,3.2109,3.235,3.2601,3.2781,3.283,3.283,3.2716,3.2334,3.2231,3.2351,3.2699,3.2527,3.2143,3.1697,3.1292,3.0758,2.9551,2.9275,2.9253,2.8925,2.8905,2.8952,2.8994,2.8994,2.8994,2.8994,2.8994,2.8498,2.6906,2.5311,0.0,0.0,0.0,0.0,0.0,0.0,0.0,0.0,0.0,0.0,0.0,0.0,0.0,0.0,0.0,0.0,0.0,0.0,0.0,0.0,0.0,0.0,0.0,0.0,0.0,2.9767,3.0129,3.0292,3.0292,3.0292,3.0292,3.0292,3.0228,3.0478,3.1021,3.2301,3.2827,3.2942,3.423,3.4462,3.4192,3.4995,3.5321,3.529,0.0,2.6551,0.0,0.0,2.4286,0.0,2.3042,2.2926,2.254,2.1527,2.1431,2.1431,2.1431,2.1527,2.1575,2.1575,2.2077,2.237,2.237,2.2706,2.2933,2.3053,2.2978,2.3068,2.3407,2.3334,2.2816,0.0,0.0,0.0,0.0,1.7896,1.7443,0.0,0.0,0.0,0.0,0.0,2.8441,2.9127,3.1341,3.2435,3.2734,3.2876,3.3129,3.3393,3.3393,3.3393,3.3304,3.2734,3.2519,3.2586,3.2844,3.28,3.245,3.1345,3.0876,3.045,2.9069,2.8737,2.881,2.8881,2.8929,2.8975,2.9044,2.9067,2.9067,2.9067,2.9021,2.8521,2.6927,2.5882,0.0,0.0,0.0,0.0,0.0,0.0,0.0,0.0,0.0,0.0,0.0,0.0,0.0,0.0,0.0,0.0,0.0,0.0,0.0,0.0,0.0,2.9128,2.9571,0.0,2.948,2.999,3.0126,3.0207,3.0207,3.0207,3.0207,3.0213,3.0109,3.0681,3.1819,3.333,3.3674,3.3372,3.4687,3.4802,3.4267,3.4955,3.5219,3.5108,0.0,0.0,0.0,0.0,0.0,0.0,2.4028,2.3852,2.3581,2.2828,2.237,2.2123,2.2123,2.2123,2.2137,2.2137,2.2555,2.2843,2.2843,2.2888,2.3142,2.3608,2.3172,2.3392,2.442,2.4048,2.3764,0.0,0.0,2.1948,0.0,1.9259,1.9058,0.0,0.0,0.0,0.0,2.7878,2.9506,3.176,3.2398,3.2716,3.2844,3.3208,3.3364,3.3393,3.3393,3.3393,3.3393,3.3334,3.3304,3.3286,3.3316,3.2857,3.2097,3.1256,3.0459,2.9725,2.8905,2.8694,2.8743,2.8881,2.8887,2.898,2.9228,2.9272,2.9272,2.9272,2.9138,2.8544,2.7071,2.7848,2.7777,0.0,0.0,0.0,0.0,0.0,0.0,0.0,0.0,0.0,0.0,0.0,0.0,0.0,0.0,0.0,0.0,0.0,0.0,2.8182,0.0,2.7596,2.6867,2.8937,2.9646,2.894,2.9623,2.9937,2.9937,2.9937,2.9937,2.9937,2.9921,3.0831,3.2384,3.3333,3.4111,3.4718,3.487,3.4889,3.4832,3.4908,3.4926,3.4926,0.0,0.0,0.0,0.0,0.0,0.0,0.0,2.5436,2.5284,2.4822,2.3881,2.3216,2.2934,2.292,2.3004,2.3177,2.3591,2.4058,2.461,2.4867,2.5165,2.5484,2.531,2.5456,2.5984,2.5815,2.5556,0.0,0.0,0.0,0.0,2.1691,2.2242,0.0,0.0,2.6749,2.863,3.0249,3.152,3.2568,3.2975,3.3147,3.3178,3.3334,3.3393,3.3393,3.3393,3.3393,3.3393,3.3393,3.3393,3.3393,3.3393,3.3176,3.2669,3.1438,3.0821,3.0321,2.9082,2.8785,2.8863,2.903,2.9119,2.9188,2.9435,2.9494,2.9494,2.9494,2.9353,2.9061,2.8474,2.8042,2.769,0.0,0.0,0.0,0.0,0.0,0.0,0.0,0.0,0.0,0.0,0.0,0.0,0.0,0.0,0.0,0.0,0.0,0.0,2.6294,0.0,2.8312,2.6877,2.8699,2.9438,2.9119,2.9511,2.9716,2.9716,2.9839,2.9888,2.9945,3.0966,3.1781,3.252,3.3866,3.4605,3.4908,3.4908,3.4908,3.4908,3.4908,3.4908,3.487,3.2364,0.0,3.0297,0.0,2.8616,2.7482,2.6748,2.6729,2.6686,2.639,2.5543,2.4802,2.4251,2.4148,2.4313,2.4608,2.4881,2.5334,2.6046,2.6317,2.6611,2.6941,2.6769,0.0,2.7326,2.7185,2.7067,2.7082,2.5886,0.0,0.0,2.4437,2.5136,0.0,2.8135,2.9339,3.0141,3.2005,3.2876,3.2988,3.3286,3.3393,3.3393,3.3393,3.3393,3.3411,3.3481,3.3491,3.353,3.352,3.3587,3.3625,3.3462,3.3452,3.3154,3.1672,3.1172,3.0818,2.9326,2.8957,2.903,2.9188,2.9314,2.9455,2.9644,2.9681,2.9698,2.9716,2.9589,2.9474,2.9513,2.8501,2.7923,2.8762,0.0,0.0,0.0,0.0,0.0,0.0,0.0,0.0,0.0,0.0,0.0,0.0,0.0,0.0,0.0,0.0,0.0,0.0,0.0,0.0,0.0,2.8633,2.9395,2.9395,2.9474,2.9513,2.9532,2.9662,2.9902,3.0275,3.1693,3.2485,3.2899,3.432,3.4908,3.4908,3.4908,3.4908,3.4908,3.4908,3.4851,3.4791,3.2087,3.139,3.0684,2.9988,2.8735,2.7664,2.7237,2.7508,2.7664,2.7237,2.731,2.7015,2.6077,2.594,2.6092,2.6361,2.6361,2.645,2.6682,2.6682,2.6941,0.0,0.0,2.7211,2.8373,2.7818,2.8103,2.9343,0.0,0.0,2.8987,2.7274,2.7251,2.8675,2.8825,3.0313,3.2666,3.2763,3.3019,3.3393,3.3393,3.3393,3.3393,3.3393,3.3393,3.3422,3.3633,3.3743,3.3795,3.3815,3.4012,3.4195,3.3652,3.3549,3.3332,3.1906,3.1347,3.0903,2.9566,2.9188,2.9209,2.9272,2.9455,2.9644,2.9855,2.9888,2.9924,2.9972,2.9787,2.9644,2.9767,2.9712,2.9164,2.7684,0.0,0.0,0.0,0.0,0.0,0.0,2.5252,2.4534,2.7964,0.0,0.0,0.0,0.0,0.0,0.0,0.0,0.0,2.7323,2.7481,0.0,2.7095,2.8763,2.9608,2.9589,2.9395,2.9293,2.9293,2.9314,2.9902,3.0922,3.1749,3.2694,3.3752,3.4567,3.4908,3.4908,3.4908,3.4908,3.4908,3.4908,3.4771,3.4583,3.4296,3.3827,3.3165,3.2572,3.1712,3.079,2.9976,2.9966,2.9926,2.9617,2.9617,2.9552,2.9303,2.7525,2.6607,0.0,2.7564,2.8104,0.0,2.9428,2.9748,2.9862,2.9724,2.9781,3.0151,2.9959,3.0195,3.084,0.0,0.0,0.0,2.9485,3.019,3.1906,3.1954,3.2415,3.3196,3.3178,3.3286,3.3393,3.3393,3.3393,3.3393,3.3393,3.3481,3.3615,3.3725,3.3891,3.4087,3.4117,3.4242,3.4334,3.4171,3.4117,3.3783,3.2281,3.1793,3.1418,2.9903,2.9456,2.9513,2.9662,2.9751,2.9855,3.0049,3.0109,3.0104,3.0118,3.003,2.9981,3.0051,2.9975,2.9813,2.9494,2.9948,0.0,0.0,0.0,0.0,0.0,0.0,2.8752,0.0,2.7988,0.0,0.0,0.0,0.0,0.0,0.0,0.0,0.0,2.7671,0.0,2.6841,2.8249,2.892,2.8779,2.8993,2.9148,2.923,2.923,2.9739,3.0681,3.1483,3.2328,3.3212,3.4076,3.4542,3.4689,3.448,3.4542,3.4668,3.448,3.4386,3.4316,3.5402,3.5006,3.4534,3.4216,3.33,3.2405,3.1771,3.1426,3.1201,3.101,3.0914,3.0874,3.1044,2.9288,0.0,2.8914,2.9261,2.9766,3.0575,3.1027,3.1218,3.1213,3.1213,3.1213,3.1213,3.1213,0.0,3.1562,3.1011,3.0923,3.1319,3.1506,3.2241,3.3393,3.3393,3.3393,3.3393,3.3393,3.3393,3.3393,3.3393,3.3452,3.3491,3.3491,3.3633,3.3842,3.4012,3.4208,3.4348,3.442,3.4553,3.4695,3.4614,3.4614,3.4295,3.2654,3.2105,3.1689,3.0132,2.9716,2.9734,2.9872,2.9972,3.0049,3.0185,3.0194,3.0215,3.026,3.0248,3.0241,3.0323,3.0282,3.0274,3.0449,3.051,3.0535,3.0628,0.0,0.0,0.0,0.0,0.0,0.0,2.8925,0.0,0.0,0.0,0.0,0.0,0.0,0.0,2.6854,2.8464,0.0,2.765,2.8338,2.8651,2.8507,2.8682,2.8827,2.8897,2.8897,2.9572,3.0775,3.1297,3.2199,3.3369,3.3889,3.425,3.4431,3.4269,3.4293,3.4427,3.4269,3.4148,3.4049,3.5593,3.5318,3.5025,0.0,3.3739,0.0,3.2655,3.2021,3.1542,3.1542,3.1334,3.1295,3.1559,3.1162,3.1004,3.1162,0.0,0.0,0.0,3.1559,3.1559,3.1542,3.1542,3.1542,3.1542,3.1542,3.1637,3.1787,3.2419,3.2734,3.2766,3.3226,3.3422,3.3422,3.3422,3.3452,3.3452,3.3452,3.3452,3.3452,3.3452,3.3549,3.3726,3.3726,3.3868,3.408,3.4409,3.4567,3.4653,3.4714,3.4926,3.5176,3.4982,3.5054,3.4833,3.2971,3.2279,3.1807,3.0326,2.9921,2.9921,2.9921,3.0064,3.0213,3.0221,3.0221,3.0267,3.0381,3.0413,3.0443,3.0576,3.061,3.0605,3.0613,3.067,3.0701,3.0716,0.0,0.0,0.0,0.0,0.0,0.0,2.841,2.8967,0.0,0.0,0.0,0.0,0.0,2.6689,2.9706,2.9588,2.9378,2.9188,2.886,2.8676,2.8676,2.8474,2.8416,2.847,2.847,2.9502,3.1271,3.1271,3.2294,3.3931,3.3931,3.4018,3.4148,3.4148,3.4148,3.4173,3.4148,3.3972,3.378,0.0,0.0,3.6317,3.5667,3.4833,3.4012,3.3382,3.2649,3.2214,3.2214,3.2126,3.2126,3.2161,3.209,3.2037,3.209,3.1711,3.1582,3.1785,3.2037,3.2073,3.1839,3.1802,3.1858,3.2038,3.2038,3.2283,3.2766,3.2943,3.3086,3.3226,3.352,3.3633,3.3633,3.3807,3.386,3.386,3.386,3.386,3.386,3.386,3.3947,3.4074,3.4074,3.425,3.4483,3.4672,3.4831,3.4982,3.5072,3.5141,3.5193,3.5141,3.5157,3.4849,3.3122,3.2613,3.2216,3.0571,3.0128,3.0138,3.0182,3.0286,3.0343,3.0343,3.0383,3.0449,3.0462,3.0528,3.0579,3.0656,3.0686,3.0701,3.0807,3.0838,3.0831,3.0781,3.0797,3.0658,0.0,3.0169,3.0144,3.0203,3.0141,2.9713,0.0,0.0,0.0,0.0,2.7755,2.8175,2.975,2.9318,2.9023,2.8975,2.8707,2.8551,2.8551,2.8353,2.8613,2.9241,2.9241,3.0186,3.1812,3.1812,3.2365,3.3302,3.3302,3.3447,3.3652,3.3437,3.3569,3.3788,3.3605,3.3509,3.3491,3.6908,3.6948,3.6847,3.6426,3.5425,3.4547,3.4126,3.3108,3.2406,3.2406,3.2406,3.2406,3.2406,3.2406,3.2406,3.2406,3.2144,3.202,3.2108,3.2319,3.2319,3.2144,3.2197,3.23,3.2519,3.2619,3.2844,3.325,3.3339,3.3415,3.3549,3.3753,3.386,3.3842,3.3947,3.4023,3.4099,3.4099,3.4105,3.4136,3.4136,3.4232,3.4371,3.4371,3.4526,3.4753,3.4889,3.5001,3.511,3.5176,3.5242,3.5289,3.5289,3.5289,3.5055,3.381,3.3111,3.2379,3.0694,3.0279,3.0352,3.0372,3.0423,3.0452,3.0482,3.052,3.0546,3.0595,3.0626,3.0661,3.0732,3.0758,3.0771,3.0838,3.0859,3.0839,3.0755,3.0746,3.0742,3.0742,3.0724,3.072,3.0758,3.0682,3.0257,2.9264,2.9322,0.0,2.9246,2.957,2.9861,3.0114,2.9576,2.9497,2.9862,2.924,2.873,2.8353,2.8264,2.862,2.9444,2.9444,3.0331,3.1846,3.1846,3.2325,3.3073,3.3073,3.3178,3.3321,3.3178,3.3238,3.3415,3.3256,3.3274,3.3352,3.6987,3.6987,3.6987,3.6987,3.5782,3.4744,3.4744,3.3494,3.2541,3.2541,3.2541,3.2541,3.2541,3.2541,3.2594,3.2733,3.2733,3.263,3.2406,3.2457,3.2439,3.2439,3.2639,3.2813,3.3014,3.3225,3.339,3.3504,3.3652,3.3753,3.3753,3.3947,3.4049,3.4049,3.4099,3.4173,3.4293,3.4316,3.4325,3.4379,3.4379,3.4489,3.4674,3.4674,3.4793,3.4964,3.5073,3.5127,3.5162,3.5209,3.532,3.5407,3.5407,3.5407,3.5262,3.4518,3.3607,3.2513,3.0936,3.0528,3.0518,3.0521,3.0517,3.0556,3.0591,3.0618,3.0626,3.0697,3.0715,3.0732,3.0782,3.0806,3.0718,3.0447,3.0618,3.0665,3.036,3.0521,3.0677,3.0677,3.0672,3.0745,3.0872,3.0717,3.0665,3.0848,3.1136,3.1318,3.136,3.16,3.1441,3.0787,3.0259,3.0196,3.0749,2.9725,2.8887,2.8182,2.8182,2.8691,2.9583,2.9583,3.0404,3.1867,3.1867,3.2291,3.2979,3.2979,3.3011,3.3055,3.3055,3.3086,3.3086,3.3086,3.3183,3.331,3.6987,3.6987,3.6987,3.6987,3.5915,3.5047,3.5047,3.396,3.3172,3.3172,3.3172,3.3172,3.3172,3.3172,3.3454,3.4178,3.4262,3.3732,3.2492,3.2621,3.2749,3.2749,3.3093,3.3361,3.3569,3.377,3.3876,3.3921,3.3947,3.3947,3.3947,3.4173,3.4245,3.4269,3.4539,3.4687,3.4708,3.4771,3.4812,3.4812,3.4812,3.4889,3.502,3.502,3.5073,3.516,3.5176,3.5258,3.5369,3.5369,3.5416,3.547,3.547,3.547,3.5341,3.4522,3.3723,3.2842,3.1845,3.1086,3.0587,3.0575,3.062,3.0671,3.0671,3.0675,3.0697,3.0706,3.0755,3.0782,3.0796,3.08,3.0311,2.8836,2.9793,3.0193,2.8701,2.9719,3.0614,3.0614,3.0614,3.0909,3.163,3.1045,3.1149,3.2424,3.1774,3.155,3.2107,3.2284,3.225,3.2044,3.1148,3.0332,2.9651,2.8826,2.8307,2.8182,2.8182,2.8959,3.0332,3.0332,3.1207,3.2719,3.2719,3.2809,3.2916,3.2916,3.2916,3.2948,3.2948,3.2979,3.3011,3.3011,3.3122,3.3292,3.6987,3.6987,3.7048,3.7243,3.6452,3.5862,3.6029,3.5255,3.4655,3.4655,3.4655,3.4655,3.4697,3.4679,3.4884,3.5319,3.5337,3.506,3.4375,3.4447,3.4509,3.4478,3.435,3.4183,3.4042,3.455,3.4618,3.4173,3.4173,3.4173,3.4173,3.445,3.4561,3.458,3.4769,3.4888,3.4965,3.4983,3.5038,3.5054,3.5054,3.5108,3.5143,3.5143,3.5176,3.5209,3.5289,3.5335,3.5412,3.5443,3.5514,3.5615,3.5609,3.562,3.5543,3.5247,3.3884,3.229,3.1482,3.0987,3.0706,3.072,3.0724,3.0747,3.0747,3.0755,3.0762,3.0807,3.081,3.08,3.0801,3.0775,3.0462,2.9624,3.0146,3.036,2.9552,3.0098,3.0757,3.1183,3.1207,3.1534,3.2367,3.2031,3.2039,3.2694,3.2575,3.2597,3.2825,3.3013,3.3077,3.2994,3.1885,3.0682,2.9405,2.9048,2.8637,2.82,2.8655,2.944,3.0511,3.0957,3.1778,3.2916,3.2916,3.2787,3.2573,3.2573,3.2454,3.2266,3.2488,3.2606,3.2639,3.2884,3.3028,3.3194,3.7126,3.7126,3.7223,3.7469,3.7005,3.6723,3.6985,3.6455,3.6035,3.6035,3.6035,3.6076,3.6117,3.6146,3.6248,3.6489,3.6489,3.6609,3.6812,3.6812,3.6589,3.6029,3.5653,3.5236,3.468,3.5277,3.5203,3.4363,3.4363,3.4363,3.4381,3.4666,3.4788,3.4809,3.4908,3.5001,3.5092,3.511,3.5143,3.5209,3.5209,3.5209,3.5209,3.5242,3.5258,3.5273,3.5393,3.5449,3.5476,3.5526,3.5626,3.5728,3.5735,3.5752,3.5768,3.5878,3.4169,3.2035,3.1063,3.0801,3.0807,3.0804,3.0806,3.0808,3.0792,3.0792,3.0813,3.0874,3.084,3.0797,3.0772,3.0732,3.0555,3.0089,3.036,3.0459,3.0055,3.0501,3.1091,3.1709,3.1896,3.23,3.3083,3.2947,3.2905,3.316,3.3391,3.3504,3.3524,3.3571,3.3549,3.3444,3.2313,3.1046,2.9672,2.9494,2.9101,2.8495,2.9101,2.9886,3.0796,3.1421,3.2135,3.2916,3.2916,3.2672,3.2283,3.2283,3.2056,3.1714,3.2056,3.2162,3.2197,3.2588,3.2927,3.3241,3.7395,3.7469,3.7469,3.7505,3.7413,3.7332,3.7363,3.6999,3.6738,3.6738,3.677,3.682,3.682,3.682,3.7144,3.7985,3.8041,3.8378,3.92,3.9289,3.8458,3.6463,3.6677,3.6517,3.5799,3.5837,3.5443,3.458,3.458,3.458,3.4561,3.4747,3.4788,3.4809,3.5002,3.5092,3.5092,3.516,3.5193,3.5209,3.5209,3.5209,3.5226,3.5335,3.5398,3.5393,3.5464,3.5562,3.5667,3.5678,3.5728,3.5799,3.5864,3.5898,3.5892,3.589,3.4667,3.2921,3.125,3.081,3.0804,3.0797,3.0799,3.08,3.08,3.0798,3.0798,3.0818,3.0797,3.0772,3.0719,3.0691,3.0164,2.8546,2.9597,3.0046,2.8421,3.0211,3.1709,3.1719,3.2351,3.3103,3.3839,3.325,3.3383,3.48,3.4036,3.3708,3.4209,3.385,3.3386,3.2979,3.2148,3.1296,3.044,2.9744,2.9369,2.9315,2.9369,3.019,3.1599,3.1671,3.2135,3.2916,3.2916,3.2672,3.2283,3.2283,3.2056,3.1714,3.1714,3.175,3.1787,3.2214,3.2861,3.3599,3.7844,3.7879,3.7929,3.8147,3.8199,3.8276,3.8479,3.8449,3.8413,3.8413,3.8439,3.8464,3.8515,3.8515,3.8652,3.9045,3.9064,3.9214,3.9552,3.9596,3.9002,3.7654,3.8222,3.7976,3.6667,3.7136,3.6986,3.6141,3.5653,3.5434,3.5461,3.5036,3.5211,3.5869,3.5925,3.6298,3.684,3.6853,3.6868,3.6868,3.6959,3.668,3.6199,3.6246,3.5945,3.5477,3.5593,3.5669,3.5708,3.581,3.5838,3.5879,3.5889,3.5899,3.5807,3.5295,3.4317,3.3137,3.1924,3.1203,3.0796,3.0799,3.0801,3.08,3.0797,3.0797,3.0795,3.0806,3.0771,3.0724,3.0656,3.0639,3.0424,2.9763,3.0181,3.0347,2.9583,3.0788,3.1912,3.2334,3.302,3.3785,3.4598,3.4293,3.4207,3.4639,3.4183,3.3897,3.3924,3.3578,3.3208,3.2916,3.2581,3.2045,3.1242,3.0029,2.9637,3.0083,2.9875,3.0331,3.1356,3.16,3.1882,3.2162,3.2162,3.2091,3.1913,3.164,3.1452,3.1389,3.1827,3.2015,3.2105,3.2993,3.3491,3.3917,3.87,3.8645,3.8743,3.9007,3.8973,3.8998,3.9229,3.9373,3.9444,3.9444,3.9444,3.9495,3.952,3.952,3.9546,3.9596,3.9602,3.9602,3.9602,3.9602,3.9314,3.8732,3.9276,3.892,3.7512,3.8019,3.7906,3.7099,3.6581,3.6365,3.6392,3.5989,3.6192,3.6897,3.6968,3.7356,3.795,3.795,3.795,3.7964,3.8067,3.7746,3.7205,3.723,3.688,3.6381,3.6503,3.6559,3.655,3.6372,3.63,3.6264,3.5997,3.5919,3.5776,3.4947,3.4078,3.3203,3.2344,3.1465,3.08,3.08,3.0797,3.079,3.076,3.0777,3.0771,3.0767,3.0735,3.0671,3.0605,3.0602,3.0597,3.0598,3.0791,3.0906,3.0821,3.1749,3.2589,3.3053,3.3745,3.4423,3.4943,3.4888,3.4708,3.4483,3.425,3.3954,3.357,3.3262,3.3055,3.2916,3.2787,3.2563,3.2261,3.0934,3.0543,3.1058,3.0688,3.0783,3.1289,3.1581,3.1677,3.1677,3.1677,3.164,3.149,3.1223,3.1139,3.1304,3.1808,3.2144,3.2454,3.3383,3.3847,3.4202,4.0,3.9896,3.9927,3.9981,3.9668,3.9418,3.9418,3.9444,3.9495,3.9495,3.9571,3.9602,3.9602,3.9602,3.9602,3.9602,3.9602,3.9602,3.9602,3.9602,3.9602,3.9602,3.9602,3.9183,3.8338,3.8319,3.7925,3.7122,3.7235,3.73,3.7322,3.7641,3.7797,3.7814,3.8026,3.8106,3.8125,3.8125,3.8125,3.8125,3.8125,3.8125,3.8119,3.8183,3.8258,3.8315,3.8373,3.8436,3.8369,3.7506,3.7214,3.7063,3.6192,3.5957,3.5838,3.4979,3.4082,3.3218,3.2337,3.147,3.0794,3.0794,3.0794,3.0781,3.072,3.0703,3.0691,3.0697,3.069,3.0676,3.061,3.0602,3.0613,3.0607,3.1212,3.1696,3.1703,3.3018,3.3953,3.3811,3.4573,3.5037,3.4809,3.4788,3.4747,3.4623,3.4269,3.3823,3.325,3.3024,3.2916,3.2884,3.2506,3.2652,3.3423,3.2599,3.2231,3.2283,3.1806,3.1623,3.1694,3.1677,3.1677,3.1677,3.1677,3.1452,3.1123,3.1083,3.1297,3.162,3.1636,3.2067,3.2768,3.3143,3.3846,3.4549,4.1189,4.1192,4.1231,4.1259,4.0736,4.0293,4.0293,3.9902,3.9571,3.9571,3.9596,3.9602,3.9602,3.9602,3.9602,3.9602,3.9602,3.9602,3.9602,3.9602,3.9656,3.98,3.9698,3.9489,3.9201,3.9354,3.9312,3.9066,3.867,3.8516,3.855,3.8089,3.8262,3.9,3.8975,3.9329,3.999,3.999,3.9995,4.0012,4.0102,3.9799,3.9307,3.9322,3.8967,3.8436,3.8468,3.8472,3.8454,3.82,3.8131,3.8131,3.7819,3.7359,3.6855,3.6542,3.4992,3.3336,3.3035,3.1886,3.0806,3.0807,3.0798,3.0769,3.0714,3.0703,3.0685,3.0642,3.0593,3.054,3.0472,3.0428,3.0402,3.0379,3.1053,3.1552,3.1489,3.286,3.3794,3.362,3.4358,3.483,3.4666,3.4561,3.445,3.4269,3.3752,3.3321,3.2993,3.293,3.3019,3.323,3.3143,3.3558,3.4575,3.2723,3.2066,3.2639,3.1637,3.1206,3.1261,3.0965,3.0861,3.0861,3.0861,3.0965,3.1083,3.0781,3.0914,3.1321,3.2097,3.2497,3.2857,3.3977,3.4585,3.4831,4.2333,4.2333,4.2249,4.1921,4.1263,4.0633,4.0314,3.9896,3.9602,3.9602,3.9602,3.9602,3.9602,3.9602,3.9602,3.9602,3.9602,3.9602,3.9602,3.9679,3.9777,3.9892,3.9848,3.9826,3.9826,3.9977,4.002,4.0021,3.9715,3.9567,3.9611,3.9229,3.938,4.0006,3.9956,4.0258,4.0837,4.0837,4.0849,4.0878,4.096,4.0707,4.0273,4.0273,3.9964,3.9535,3.9521,3.952,3.9488,3.9136,3.8817,3.8552,3.8516,3.8163,3.777,3.7721,3.6378,3.4811,3.4428,3.3336,3.2138,3.1441,3.1018,3.0734,3.0644,3.063,3.0579,3.0492,3.0449,3.0521,3.0782,3.081,3.0893,3.1218,3.1924,3.2386,3.233,3.3405,3.4131,3.3956,3.4406,3.4666,3.4539,3.4381,3.413,3.377,3.3408,3.3099,3.2916,3.2916,3.3042,3.3388,3.3261,3.3692,3.4797,3.3267,3.2655,3.3009,3.2124,3.1415,3.0845,3.0593,3.0526,3.0526,3.0526,3.0634,3.0878,3.0908,3.1233,3.185,3.2796,3.3292,3.3673,3.4568,3.4899,3.493,4.3446,4.3297,4.3062,4.2254,4.1454,4.0647,3.9821,3.9658,3.9602,3.9602,3.9602,3.9602,3.9602,3.9602,3.9602,3.9602,3.9602,3.9602,3.9626,3.98,3.9914,3.9937,4.0139,4.0251,4.025,4.0251,4.0232,4.0227,4.0367,4.0431,4.0457,4.0681,4.0812,4.0812,4.0878,4.0907,4.0907,4.0907,4.0935,4.1003,4.1003,4.1006,4.1,4.1,4.1042,4.1097,4.1094,4.1094,4.0976,4.0175,3.9394,3.8723,3.8721,3.8671,3.8615,3.8612,3.7947,3.7019,3.6111,3.5256,3.4179,3.2486,3.1475,3.0819,3.055,3.0549,3.0565,3.0433,3.0452,3.0726,3.1454,3.1593,3.1842,3.2632,3.3344,3.3779,3.3711,3.432,3.4727,3.4602,3.4539,3.4495,3.434,3.4173,3.3823,3.325,3.319,3.3135,3.3005,3.2991,3.3117,3.3563,3.3156,3.3413,3.4408,3.4034,3.3634,3.3313,3.29,3.1918,3.0526,3.0526,3.0526,3.0526,3.0526,3.0526,3.0576,3.1279,3.2017,3.2663,3.3475,3.4203,3.48,3.4866,3.4899,3.4899,4.4158,4.4196,4.3961,4.3163,4.2318,4.1473,4.0666,3.999,3.9602,3.9602,3.9602,3.9602,3.9602,3.9602,3.9602,3.9602,3.9602,3.9674,3.9826,3.987,4.004,4.0356,4.0403,4.0511,4.0681,4.053,4.0427,4.0434,4.0662,4.0792,4.0784,4.0858,4.0878,4.0878,4.0878,4.0907,4.0907,4.0907,4.0932,4.1,4.1,4.1037,4.1078,4.1078,4.1094,4.111,4.1107,4.1093,4.1072,4.0876,4.0698,4.0539,4.0542,4.0063,3.9529,3.9516,3.8427,3.6982,3.6001,3.5103,3.4156,3.2929,3.249,3.2031,3.077,3.0959,3.134,3.1251,3.1704,3.2161,3.2333,3.2292,3.2283,3.2473,3.318,3.3712,3.3713,3.4241,3.4561,3.4404,3.4173,3.3972,3.3807,3.3726,3.3587,3.322,3.319,3.3386,3.3812,3.3474,3.3719,3.4691,3.4301,3.429,3.4775,3.4117,3.347,3.2857,3.2724,3.1918,3.0526,3.0526,3.0526,3.0526,3.0526,3.0526,3.0576,3.1279,3.1719,3.1984,3.3292,3.3889,3.4104,3.4684,3.4899,3.4899,4.4458,4.4487,4.4139,4.29,4.2318,4.1605,4.0403,3.9858,3.9602,3.9602,3.9602,3.9602,3.9602,3.9602,3.965,3.9731,3.9731,3.9826,4.002,4.0139,4.0266,4.05,4.0582,4.0706,4.0834,4.0738,4.0694,4.0687,4.0826,4.0888,4.0908,4.0898,4.0907,4.0907,4.0907,4.0907,4.0907,4.0907,4.0941,4.0994,4.0994,4.1037,4.1103,4.1103,4.1093,4.1108,4.1093,4.1108,4.1094,4.1094,4.1108,4.1094,4.1091,4.0794,4.0418,4.0415,3.9754,3.8785,3.7792,3.7172,3.6439,3.4988,3.4242,3.3485,3.1872,3.1807,3.2044,3.1955,3.2238,3.2642,3.3061,3.3067,3.3145,3.3524,3.3904,3.4108,3.4007,3.4147,3.4197,3.3998,3.3842,3.3671,3.3444,3.3415,3.349,3.3611,3.3434,3.3608,3.4305,3.3894,3.3999,3.4721,3.4541,3.4561,3.4899,3.4154,3.3425,3.268,3.2348,3.1603,3.0526,3.0526,3.0526,3.0526,3.0526,3.0725,3.1064,3.1835,3.2332,3.2762,3.3889,3.4319,3.4369,3.475,3.4899,3.4899,4.4515,4.4402,4.382,4.228,4.1905,4.1304,3.9827,3.9602,3.9602,3.9602,3.9602,3.9602,3.9602,3.9626,3.9727,3.9892,3.9935,4.004,4.0251,4.0419,4.0526,4.054,4.0718,4.0848,4.0907,4.0907,4.0888,4.0888,4.0888,4.0908,4.0907,4.0907,4.0907,4.0907,4.0907,4.0907,4.0907,4.0907,4.0949,4.1006,4.1006,4.1039,4.1093,4.1093,4.1108,4.1097,4.1099,4.1091,4.1105,4.1105,4.11,4.111,4.111,4.111,4.111,4.1085,4.103,4.0749,3.9723,3.9398,3.8921,3.7183,3.6124,3.5147,3.3739,3.3206,3.3001,3.3031,3.3051,3.3278,3.3998,3.4017,3.4112,3.4794,3.4771,3.462,3.4549,3.4284,3.4099,3.3988,3.392,3.3803,3.3556,3.3525,3.3768,3.424,3.3847,3.3949,3.4756,3.4259,3.4199,3.458,3.4526,3.4621,3.4899,3.4154,3.3425,3.268,3.1967,3.1196,3.0526,3.0526,3.0526,3.0526,3.0526,3.0874,3.1461,3.2332,3.3044,3.369,3.4551,3.4899,3.4899,3.4899,3.4899,3.4899,4.4515,4.3951,4.3144,4.2187,4.1436,4.0647,3.9727,3.9602,3.9602,3.9602,3.9602,3.9602,3.9602,3.9773,3.987,3.9892,4.006,4.0251,4.0457,4.0481,4.0588,4.0745,4.0846,4.0897,4.0907,4.0908,4.0898,4.0898,4.0898,4.0907,4.0907,4.0907,4.0907,4.0907,4.0907,4.0907,4.0907,4.0907,4.0933,4.1007,4.1007,4.1043,4.111,4.111,4.1099,4.1094,4.1097,4.1096,4.1097,4.1097,4.1097,4.111,4.111,4.111,4.1085,4.103,4.0924,4.0586,3.9522,3.9161,3.8774,3.7661,3.7243,3.7032,3.6805,3.5628,3.4794,3.5514,3.5685,3.5723,3.5836,3.5249,3.4775,3.4889,3.4889,3.4997,3.5371,3.5182,3.5146,3.5448,3.5213,3.495,3.4916,3.4916,3.497,3.5061,3.4658,3.4774,3.551,3.4792,3.4684,3.5402,3.5044,3.483,3.4899,3.4154,3.3425,3.268,3.1967,3.1196,3.0526,3.0526,3.0526,3.0526,3.0526,3.0576,3.0775,3.2133,3.2746,3.2978,3.4352,3.4899,3.4899,3.4899,3.4899,3.4899,4.4515,4.3857,4.3031,4.2141,4.1342,4.0534,3.9733,3.9602,3.9602,3.9602,3.9703,3.9754,3.9754,3.9956,4.012,4.0233,4.0319,4.045,4.0635,4.07,4.075,4.0846,4.0888,4.0908,4.0908,4.0898,4.0907,4.0907,4.0907,4.0907,4.0907,4.0907,4.0907,4.0888,4.0941,4.0964,4.0964,4.0948,4.0983,4.1062,4.1062,4.1074,4.1091,4.1091,4.1094,4.11,4.11,4.1109,4.111,4.111,4.111,4.111,4.111,4.111,4.1078,4.0924,4.082,4.0595,3.9931,3.9674,3.949,3.8971,3.8472,3.8224,3.8698,3.7883,3.6992,3.6879,3.686,3.686,3.686,3.6557,3.6291,3.6291,3.6171,3.6054,3.5994,3.5781,3.5608,3.5483,3.5305,3.5204,3.5204,3.5204,3.5278,3.5473,3.5116,3.5094,3.5614,3.5036,3.486,3.5178,3.5024,3.4899,3.4899,3.4154,3.3425,3.268,3.1967,3.1196,3.0526,3.0526,3.0526,3.0526,3.0526,3.0716,3.1222,3.2249,3.2928,3.3408,3.4485,3.4899,3.4899,3.4899,3.4899,3.4899]}]]